[[{"header":{"parameterUnit":"m.s-1","parameterCategory":1,"la1":30.6,"la2":28.766,"lo1":-90.7593,"lo2":-88.6598,"dy":0.0162,"dx":0.0183,"nx":116,"ny":114,"refTime":"2023-10-10T18:00:00:Z","depth":0,"parameterNumber":2,"parameterNumberName":"U-component_of_WINDS"},"data":[0.0,0.0,0.0,0.0,0.0,0.0,0.0,0.0,0.0,0.0,0.0,0.0,0.0,0.0,0.0,0.0,0.0,0.0,0.0,0.0,0.0,0.0,0.0,0.0,0.0,0.0,0.0,0.0,0.0,0.0,0.0,0.0,0.0,0.0,0.0,0.0,0.0,0.0,0.0,0.0,0.0,0.0,0.0,0.0,0.0,0.0,0.0,0.0,0.0,0.0,0.0,0.0,0.0,0.0,0.0,0.0,0.0,0.0,0.0,0.0,0.0,0.0,0.0,0.0,0.0,0.0,0.0,0.0,0.0,0.0,0.0,0.0,0.0,0.0,0.0,0.0,0.0,0.0,0.0,0.0,0.0,0.0,0.0,0.0,0.0,0.0,0.0,0.0,0.0,0.0,0.0,0.0,0.0,0.0,0.0,0.0,0.0,0.0,0.0,0.0,0.0,0.0,0.0,0.0,0.0,0.0,0.0,0.0,0.0,0.0,0.0,0.0,0.0,0.0,0.0,0.0,0.0,0.0,0.0,0.0,0.0,0.0,0.0,0.0,0.0,0.0,0.0,0.0,0.0,0.0,0.0,0.0,0.0,0.0,0.0,0.0,0.0,0.0,0.0,0.0,0.0,0.0,0.0,0.0,0.0,0.0,0.0,0.0,0.0,0.0,0.0,0.0,0.0,0.0,0.0,0.0,0.0,0.0,0.0,0.0,0.0,0.0,0.0,0.0,0.0,0.0,0.0,0.0,0.0,0.0,0.0,0.0,0.0,0.0,0.0,0.0,0.0,0.0,0.0,0.0,0.0,0.0,0.0,0.0,0.0,0.0,0.0,0.0,0.0,0.0,0.0,0.0,0.0,0.0,0.0,0.0,0.0,0.0,0.0,0.0,0.0,0.0,0.0,0.0,0.0,0.0,0.0,0.0,0.0,0.0,0.0,0.0,0.0,0.0,0.0,0.0,0.0,0.0,0.0,0.0,0.0,0.0,0.0,0.0,0.0,0.0,0.0,0.0,0.0,0.0,0.0,0.0,0.0,0.0,0.0,0.0,0.0,0.0,0.0,0.0,0.0,0.0,0.0,0.0,0.0,0.0,0.0,0.0,0.0,0.0,0.0,0.0,0.0,0.0,0.0,0.0,0.0,0.0,0.0,0.0,0.0,0.0,0.0,0.0,0.0,0.0,0.0,0.0,0.0,0.0,0.0,0.0,0.0,0.0,0.0,0.0,0.0,0.0,0.0,0.0,0.0,0.0,0.0,0.0,0.0,0.0,0.0,0.0,0.0,0.0,0.0,0.0,0.0,0.0,0.0,0.0,0.0,0.0,0.0,0.0,0.0,0.0,0.0,0.0,0.0,0.0,0.0,0.0,0.0,0.0,0.0,0.0,0.0,0.0,0.0,0.0,0.0,0.0,0.0,0.0,0.0,0.0,0.0,0.0,0.0,0.0,0.0,0.0,0.0,0.0,0.0,0.0,0.0,0.0,0.0,0.0,0.0,0.0,0.0,0.0,0.0,0.0,0.0,0.0,0.0,0.0,0.0,0.0,0.0,0.0,0.0,0.0,0.0,0.0,0.0,0.0,0.0,0.0,0.0,0.0,0.0,0.0,0.0,0.0,0.0,0.0,0.0,0.0,0.0,0.0,0.0,0.0,0.0,0.0,0.0,0.0,0.0,0.0,0.0,0.0,0.0,0.0,0.0,0.0,0.0,0.0,0.0,0.0,0.0,0.0,0.0,0.0,0.0,0.0,0.0,0.0,0.0,0.0,0.0,0.0,0.0,0.0,0.0,0.0,0.0,0.0,0.0,0.0,0.0,0.0,0.0,0.0,0.0,0.0,0.0,0.0,0.0,0.0,0.0,0.0,0.0,0.0,0.0,0.0,0.0,0.0,0.0,0.0,0.0,0.0,0.0,0.0,0.0,0.0,0.0,0.0,0.0,0.0,0.0,0.0,0.0,0.0,0.0,0.0,0.0,0.0,0.0,0.0,0.0,0.0,0.0,0.0,0.0,0.0,0.0,0.0,0.0,0.0,0.0,0.0,0.0,0.0,0.0,0.0,0.0,0.0,0.0,0.0,0.0,0.0,0.0,0.0,0.0,0.0,0.0,0.0,0.0,0.0,0.0,0.0,0.0,0.0,0.0,0.0,0.0,0.0,0.0,0.0,0.0,0.0,0.0,0.0,0.0,0.0,0.0,0.0,0.0,0.0,0.0,0.0,0.0,0.0,0.0,0.0,0.0,0.0,0.0,0.0,0.0,0.0,0.0,0.0,0.0,0.0,0.0,0.0,0.0,0.0,0.0,0.0,0.0,0.0,0.0,0.0,0.0,0.0,0.0,0.0,0.0,0.0,0.0,0.0,0.0,0.0,0.0,0.0,0.0,0.0,0.0,0.0,0.0,0.0,0.0,0.0,0.0,0.0,0.0,0.0,0.0,0.0,0.0,0.0,0.0,0.0,0.0,0.0,0.0,0.0,0.0,0.0,0.0,0.0,0.0,0.0,0.0,0.0,0.0,0.0,0.0,0.0,0.0,0.0,0.0,0.0,0.0,0.0,0.0,0.0,0.0,0.0,0.0,0.0,0.0,0.0,0.0,0.0,0.0,0.0,0.0,0.0,0.0,0.0,0.0,0.0,0.0,0.0,0.0,0.0,0.0,0.0,0.0,0.0,0.0,0.0,0.0,0.0,0.0,0.0,0.0,0.0,0.0,0.0,0.0,0.0,0.0,0.0,0.0,0.0,0.0,0.0,0.0,0.0,0.0,0.0,0.0,0.0,0.0,0.0,0.0,0.0,0.0,0.0,0.0,0.0,0.0,0.0,0.0,0.0,0.0,0.0,0.0,0.0,0.0,0.0,0.0,0.0,0.0,0.0,0.0,0.0,0.0,0.0,0.0,0.0,0.0,0.0,0.0,0.0,0.0,0.0,0.0,0.0,0.0,0.0,0.0,0.0,0.0,0.0,0.0,0.0,0.0,0.0,0.0,0.0,0.0,0.0,0.0,0.0,0.0,0.0,0.0,0.0,0.0,0.0,0.0,0.0,0.0,0.0,0.0,0.0,0.0,0.0,0.0,0.0,0.0,0.0,0.0,0.0,0.0,0.0,0.0,0.0,0.0,0.0,0.0,0.0,0.0,0.0,0.0,0.0,0.0,0.0,0.0,0.0,0.0,0.0,0.0,0.0,0.0,0.0,0.0,0.0,0.0,0.0,0.0,0.0,0.0,0.0,0.0,0.0,0.0,0.0,0.0,0.0,0.0,0.0,0.0,0.0,0.0,0.0,0.0,0.0,0.0,0.0,0.0,0.0,0.0,0.0,0.0,0.0,0.0,0.0,0.0,0.0,0.0,0.0,0.0,0.0,0.0,0.0,0.0,0.0,0.0,0.0,0.0,0.0,0.0,0.0,0.0,0.0,0.0,0.0,0.0,0.0,0.0,0.0,0.0,0.0,0.0,0.0,0.0,0.0,0.0,0.0,0.0,0.0,0.0,0.0,0.0,0.0,0.0,0.0,0.0,0.0,0.0,0.0,0.0,0.0,0.0,0.0,0.0,0.0,0.0,0.0,0.0,0.0,0.0,0.0,0.0,0.0,0.0,0.0,0.0,0.0,0.0,0.0,0.0,0.0,0.0,0.0,0.0,0.0,0.0,0.0,0.0,0.0,0.0,0.0,0.0,0.0,0.0,0.0,0.0,0.0,0.0,0.0,0.0,0.0,0.0,0.0,0.0,0.0,0.0,0.0,0.0,0.0,0.0,0.0,0.0,0.0,0.0,0.0,0.0,0.0,0.0,0.0,0.0,0.0,0.0,0.0,0.0,0.0,0.0,0.0,0.0,0.0,0.0,0.0,0.0,0.0,0.0,0.0,0.0,0.0,0.0,0.0,0.0,0.0,0.0,0.0,0.0,0.0,0.0,0.0,0.0,0.0,0.0,0.0,0.0,0.0,0.0,0.0,0.0,0.0,0.0,0.0,0.0,0.0,0.0,0.0,0.0,0.0,0.0,0.0,0.0,0.0,0.0,0.0,0.0,0.0,0.0,0.0,0.0,0.0,0.0,0.0,0.0,0.0,0.0,0.0,0.0,0.0,0.0,0.0,0.0,0.0,0.0,0.0,0.0,0.0,0.0,0.0,0.0,0.0,0.0,0.0,0.0,0.0,0.0,0.0,0.0,0.0,0.0,0.0,0.0,0.0,0.0,0.0,0.0,0.0,0.0,0.0,0.0,0.0,0.0,0.0,0.0,0.0,0.0,0.0,0.0,0.0,0.0,0.0,0.0,0.0,0.0,0.0,0.0,0.0,0.0,0.0,0.0,0.0,0.0,0.0,0.0,0.0,0.0,0.0,0.0,0.0,0.0,0.0,0.0,0.0,0.0,0.0,0.0,0.0,0.0,0.0,0.0,0.0,0.0,0.0,0.0,0.0,0.0,0.0,0.0,0.0,0.0,0.0,0.0,0.0,0.0,0.0,0.0,0.0,0.0,0.0,0.0,0.0,0.0,0.0,0.0,0.0,0.0,0.0,0.0,0.0,0.0,0.0,0.0,0.0,0.0,0.0,0.0,0.0,0.0,0.0,0.0,0.0,0.0,0.0,0.0,0.0,0.0,0.0,0.0,0.0,0.0,0.0,0.0,0.0,0.0,0.0,0.0,0.0,0.0,0.0,0.0,0.0,0.0,0.0,0.0,0.0,0.0,0.0,0.0,0.0,0.0,0.0,0.0,0.0,0.0,0.0,0.0,0.0,0.0,0.0,0.0,0.0,0.0,0.0,0.0,0.0,0.0,0.0,0.0,0.0,0.0,0.0,0.0,0.0,0.0,0.0,0.0,0.0,0.0,0.0,0.0,0.0,0.0,0.0,0.0,0.0,0.0,0.0,0.0,0.0,0.0,0.0,0.0,0.0,0.0,0.0,0.0,0.0,0.0,0.0,0.0,0.0,0.0,0.0,0.0,0.0,0.0,0.0,0.0,0.0,0.0,0.0,0.0,0.0,0.0,0.0,0.0,0.0,0.0,0.0,0.0,0.0,0.0,0.0,0.0,0.0,0.0,0.0,0.0,0.0,0.0,0.0,0.0,0.0,0.0,0.0,0.0,0.0,0.0,0.0,0.0,0.0,0.0,0.0,0.0,0.0,0.0,0.0,0.0,0.0,0.0,0.0,0.0,0.0,0.0,0.0,0.0,0.0,0.0,0.0,0.0,0.0,0.0,0.0,0.0,0.0,0.0,0.0,0.0,0.0,0.0,0.0,0.0,0.0,0.0,0.0,0.0,0.0,0.0,0.0,0.0,0.0,0.0,0.0,0.0,0.0,0.0,0.0,0.0,0.0,0.0,0.0,0.0,0.0,0.0,0.0,0.0,0.0,0.0,0.0,0.0,0.0,0.0,0.0,0.0,0.0,0.0,0.0,0.0,0.0,0.0,0.0,0.0,0.0,0.0,0.0,0.0,0.0,0.0,0.0,0.0,0.0,0.0,0.0,0.0,0.0,0.0,0.0,0.0,0.0,0.0,0.0,0.0,0.0,0.0,0.0,0.0,0.0,0.0,0.0,0.0,0.0,0.0,0.0,0.0,0.0,0.0,0.0,0.0,0.0,0.0,0.0,0.0,0.0,0.0,0.0,0.0,0.0,0.0,0.0,0.0,0.0,0.0,0.0,0.0,0.0,0.0,0.0,0.0,0.0,0.0,0.0,0.0,0.0,0.0,0.0,0.0,0.0,0.0,0.0,0.0,0.0,0.0,0.0,0.0,0.0,0.0,0.0,0.0,0.0,0.0,0.0,0.0,0.0,0.0,0.0,0.0,0.0,0.0,0.0,0.0,0.0,0.0,0.0,0.0,0.0,0.0,0.0,0.0,0.0,0.0,0.0,0.0,0.0,0.0,0.0,0.0,0.0,0.0,0.0,0.0,0.0,0.0,0.0,0.0,0.0,0.0,0.0,0.0,0.0,0.0,0.0,0.0,0.0,0.0,0.0,0.0,0.0,0.0,0.0,0.0,0.0,0.0,0.0,0.0,0.0,0.0,0.0,0.0,0.0,0.0,0.0,0.0,0.0,0.0,0.0,0.0,0.0,0.0,0.0,0.0,0.0,0.0,0.0,0.0,0.0,0.0,0.0,0.8728,0.8399,0.0,0.0,0.0,0.0,0.0,0.0,0.0,0.0,0.0,0.0,0.0,0.0,0.0,0.0,0.0,0.0,0.0,0.0,0.0,0.0,0.0,0.0,0.0,0.0,0.0,0.0,0.0,0.0,0.0,0.0,0.0,0.0,0.0,0.0,0.0,0.0,0.0,-0.4491,-0.4563,-0.4675,-0.4785,-0.489,-0.4767,-0.4491,0.0,0.0,0.0,0.0,0.0,0.0,0.0,0.0,0.0,0.0,0.0,0.0,0.0,0.0,0.0,0.0,0.0,0.0,0.0,0.0,0.0,0.0,0.0,0.0,0.0,0.0,0.0,0.0,0.0,0.0,0.0,0.0,0.0,0.0,0.0,0.0,0.0,0.0,0.0,0.0,0.0,0.0,0.0,0.0,0.0,0.0,0.0,0.0,0.0,0.0,0.0,0.0,0.0,0.0,0.0,0.0,0.0,0.0,0.0,0.0,0.0,0.0,0.0,0.0,0.0,0.0,0.0,0.0,0.0,0.0,0.9546,0.8945,0.0,0.0,0.0,0.0,0.0,0.0,0.0,0.0,0.0,0.0,0.0,0.0,0.0,0.0,0.0,0.0,0.0,0.0,0.0,0.0,0.0,0.0,0.0,-0.8778,-0.8738,-0.8672,-0.8104,-0.7719,-0.7656,0.0,0.0,0.0,0.0,0.0,-0.5304,-0.4873,-0.4612,-0.4532,-0.4737,-0.4945,-0.5181,-0.5365,-0.5204,-0.4723,-0.4641,0.0,0.0,0.0,0.0,0.0,0.0,0.0,0.0,0.0,0.0,0.0,0.0,0.0,0.0,0.0,0.0,0.0,0.0,0.0,0.0,0.0,0.0,0.0,0.0,0.0,0.0,0.0,0.0,0.0,0.0,0.0,0.0,0.0,0.0,0.0,0.0,0.0,0.0,0.0,0.0,0.0,0.0,0.0,0.0,0.0,0.0,0.0,0.0,0.0,0.0,0.0,0.0,0.0,0.0,0.0,0.0,0.0,0.0,0.0,0.0,0.0,0.0,0.0,1.1026,1.1254,1.1688,1.1606,1.1791,1.2085,1.0725,0.9871,0.9432,0.9342,0.0,0.0,0.0,0.0,0.0,0.0,0.0,0.0,0.0,0.0,0.0,0.0,0.0,0.0,0.0,0.0,0.0,0.0,0.0,-0.8804,-0.8804,-0.8692,-0.8704,-0.8917,-0.8758,-0.8742,-0.9016,0.0,0.0,0.0,0.0,-0.5823,-0.5308,-0.5226,-0.5023,-0.466,-0.5102,-0.5395,-0.5532,-0.5677,-0.5701,-0.5606,-0.5216,-0.4665,-0.402,0.0,0.0,0.0,0.0,0.0,0.0,0.0,0.0,0.0,0.0,0.0,0.0,0.0,0.0,0.0,0.0,0.0,0.0,0.0,0.0,0.0,0.0,0.0,0.0,0.0,0.0,0.0,0.0,0.0,0.0,0.0,0.0,0.0,0.0,0.0,0.0,0.0,0.0,0.0,0.0,0.0,0.5061,0.5245,0.0,0.0,0.0,0.0,0.0,0.0,0.0,0.0,0.0,0.0,0.0,0.0,0.0,1.0261,1.0794,1.0261,0.9735,0.9134,0.9134,0.9731,1.0794,1.1446,1.231,1.3278,1.28,0.0,1.0816,1.0322,0.0,0.0,0.0,0.0,0.0,0.0,0.0,0.0,0.0,0.0,0.0,0.0,0.0,0.0,0.0,0.0,0.0,0.0,0.0,0.0,0.0,-0.8963,-0.9114,-0.9576,-0.9256,-0.9166,-0.9496,-0.8599,0.0,0.0,-0.7176,-0.6426,-0.5823,-0.5577,-0.5376,-0.5196,-0.5682,-0.6023,-0.622,-0.6447,-0.6512,-0.6502,-0.6225,-0.5679,-0.4937,-0.4574,0.0,0.0,0.0,0.0,0.0,0.0,0.0,0.0,0.0,0.0,0.0,0.0,0.0,0.0,0.0,0.0,0.0,0.0,0.0,0.0,0.0,0.0,0.0,0.0,0.0,0.0,0.0,0.0,0.0,0.0,0.0,0.0,0.0,0.0,0.0,0.0,0.0,0.0,0.0,0.5267,0.5265,0.5553,0.5496,0.5473,0.0,0.0,0.0,0.0,0.0,0.0,0.0,0.0,0.0,0.8384,0.9169,0.9732,0.9998,1.0475,1.0542,1.0272,1.124,1.1589,1.132,1.3072,1.3696,1.3456,1.3844,1.3592,1.2813,1.1691,1.1032,1.0767,0.0,0.0,0.0,0.0,1.0635,1.0731,0.0,0.0,0.0,0.0,0.0,0.0,0.0,0.0,0.0,0.0,0.0,0.0,-0.9291,-0.9457,-0.975,-1.0201,-0.9894,-0.9752,-0.9875,-0.9124,-0.8617,-0.8478,-0.7862,-0.7203,-0.6536,-0.6382,-0.6226,-0.6079,-0.663,-0.69,-0.6878,-0.7136,-0.7213,-0.721,-0.7102,-0.6517,-0.56,-0.5414,-0.4453,-0.3012,0.0,0.0,0.0,0.0,0.0,0.0,0.0,0.0,0.0,0.0,0.0,0.0,0.0,0.0,0.0,0.0,0.0,0.0,0.0,0.0,0.0,0.0,0.0,0.0,0.0,0.0,0.0,0.0,0.0,0.0,0.0,0.0,0.0,0.0,0.0,0.0,0.0,0.5409,0.5504,0.5827,0.5772,0.5809,0.0,0.0,0.0,0.0,0.0,0.0,0.6861,0.7187,0.7513,0.7905,0.8925,0.9512,0.96,1.0664,1.1111,1.0896,1.2209,1.2384,1.1688,1.3522,1.3884,1.3231,1.3773,1.3891,1.3645,1.2691,1.2133,1.1874,1.1624,1.1516,1.1516,1.1516,1.1516,1.1516,0.0,0.0,0.0,0.0,0.0,0.0,0.0,0.0,0.0,0.0,0.0,-0.9304,-0.9626,-1.0191,-1.0583,-1.0653,-1.088,-1.0818,-1.0402,-0.9962,-0.9507,-0.9003,-0.8732,-0.8259,-0.7447,-0.7975,-0.796,-0.7405,-0.818,-0.8143,-0.7388,-0.7502,-0.7577,-0.7577,-0.757,-0.6815,-0.5621,-0.587,-0.4951,-0.3344,-0.3147,0.0,0.0,0.0,0.0,0.0,0.0,0.0,0.0,0.0,0.0,0.0,0.0,0.0,0.0,0.0,0.0,0.0,0.0,0.0,0.0,0.0,0.0,0.0,0.0,0.0,0.0,0.0,0.0,0.0,0.0,0.0,0.0,0.0,0.0,0.0,0.0,0.0,0.0,0.5976,0.6198,0.0,0.0,0.0,0.0,0.7007,0.7048,0.7304,0.788,0.7931,0.8639,1.0087,1.0183,1.0355,1.0632,1.0715,1.0311,0.9507,0.9582,1.0156,1.1114,1.1109,1.1694,1.2608,1.2257,1.2125,1.2187,1.3078,1.3278,1.2975,1.2735,1.262,1.262,1.262,1.262,1.262,0.0,0.0,0.0,0.0,0.0,0.0,0.0,0.0,-1.0244,-0.9335,-0.9467,-0.9822,-1.0224,-1.0968,-1.1597,-1.2005,-1.1755,-1.1407,-1.1061,-1.0244,-0.9568,-0.9096,-0.8942,-0.8746,-0.8423,-0.7513,-0.7422,-0.8124,-0.8133,-0.8076,-0.8002,-0.8099,-0.8167,-0.8167,-0.8167,-0.7792,-0.7097,-0.6662,-0.5698,-0.4407,-0.349,-0.2505,0.0,0.0,0.0,0.0,0.0,0.0,0.0,0.0,0.0,0.0,0.0,0.0,0.0,0.0,0.0,0.0,0.0,0.0,0.0,0.0,0.0,0.0,0.0,0.0,0.0,0.0,0.0,0.0,0.0,0.0,0.0,0.0,0.0,0.0,0.0,0.0,0.0,0.6693,0.6686,0.0,0.7496,0.7424,0.7482,0.7841,0.7953,0.814,0.8455,0.8652,0.9047,0.9595,0.97,0.9752,0.9867,0.9972,0.9821,0.953,1.045,1.0621,1.0164,1.1597,1.1955,1.1544,1.205,1.218,1.2029,1.2373,1.2611,1.2755,1.2343,1.2589,1.3224,1.3224,1.3224,1.3179,0.0,0.0,0.0,0.0,0.0,0.0,0.0,-1.1082,-1.0845,-0.9839,-1.0066,-1.0476,-1.0981,-1.1826,-1.2518,-1.2928,-1.2563,-1.2054,-1.1409,-1.056,-0.9802,-0.9242,-0.926,-0.9458,-0.9767,-0.898,-0.8977,-0.98,-0.9727,-0.9434,-0.8958,-0.9115,-0.8952,-0.8482,-0.8537,-0.8421,-0.8153,-0.7513,-0.6549,-0.5402,-0.4272,-0.3089,-0.1939,0.0,0.0,0.0,0.0,0.0,0.0,0.0,0.0,0.0,0.0,0.0,0.0,0.0,0.0,0.0,0.0,0.0,0.0,0.0,0.0,0.0,0.0,0.0,0.0,0.0,0.0,0.0,0.0,0.0,0.0,0.0,0.0,0.0,0.0,0.6022,0.6415,0.7242,0.7307,0.7538,0.8128,0.8129,0.8262,0.8618,0.874,0.8818,0.9072,0.9225,0.933,0.9262,0.9303,0.9294,0.9235,0.9334,0.9383,0.9387,1.0318,1.0254,0.9437,1.0794,1.0967,1.0114,1.0773,1.0929,1.065,1.07,1.1084,1.1544,1.1601,1.2146,1.2905,1.2867,1.3031,1.3223,0.0,0.0,0.0,0.0,0.0,0.0,-1.2603,-1.2067,-1.148,-1.1139,-1.1111,-1.1341,-1.1849,-1.2685,-1.3267,-1.3294,-1.3307,-1.2732,-1.1405,-1.0851,-1.0238,-0.9476,-0.9726,-1.0413,-1.1507,-1.2517,-1.2813,-1.232,-1.3075,-1.239,-1.0272,-1.0514,-0.9872,-0.8569,-0.8719,-0.8699,-0.8496,-0.8408,-0.7549,-0.631,-0.5517,-0.4256,-0.2695,0.0,0.0,0.0,0.0,0.0,0.0,0.0,0.0,0.0,0.0,0.0,0.0,0.0,0.0,0.0,0.0,0.0,0.0,0.0,0.0,0.0,0.0,0.0,0.0,0.0,0.0,0.0,0.0,0.0,0.0,0.0,0.0,0.0,0.5785,0.6435,0.701,0.7572,0.7959,0.8313,0.8593,0.8702,0.8933,0.9374,0.9266,0.9371,0.9744,0.9633,0.95,0.9271,0.9275,0.9156,0.8915,0.8915,0.8915,0.8915,0.8915,0.8915,0.8906,0.8567,0.8384,0.8427,0.8439,0.8318,0.8036,0.8237,0.871,0.9461,1.0514,1.1281,1.1718,1.1653,1.2116,1.2764,0.0,0.0,0.0,0.0,0.0,0.0,-1.2101,-1.166,-1.1149,-1.072,-1.139,-1.1909,-1.189,-1.3053,-1.3746,-1.3531,-1.3205,-1.2602,-1.1572,-1.0842,-1.0401,-1.0269,-1.0221,-1.0867,-1.2325,-1.188,-1.2125,-1.3102,-1.2912,-1.2597,-1.2087,-1.2349,-1.1798,-1.0527,-1.0574,-0.9999,-0.9023,-0.8982,-0.8538,-0.7705,-0.6354,-0.519,-0.4112,0.0,0.0,0.0,0.0,0.0,0.0,0.0,0.0,0.0,0.0,0.0,0.0,0.0,0.0,0.0,0.0,0.0,0.0,0.0,0.0,0.0,0.0,0.0,0.0,0.0,0.0,0.0,0.0,0.0,0.0,0.0,0.3197,0.4564,0.6171,0.6862,0.7404,0.8109,0.8482,0.8803,0.9008,0.9428,0.9654,0.9634,0.9522,0.9554,0.9676,0.93,0.9057,0.9034,0.9037,0.8976,0.8915,0.8915,0.8915,0.8915,0.8915,0.8915,0.8906,0.8567,0.8384,0.8369,0.8217,0.81,0.7986,0.806,0.81,0.8178,0.926,1.0626,1.1987,1.1773,1.1905,1.2273,0.0,0.0,0.0,0.0,0.0,0.0,-1.2323,-1.2092,-1.1703,-1.1071,-1.1811,-1.243,-1.2557,-1.3241,-1.3824,-1.4089,-1.3333,-1.254,-1.1774,-1.0983,-1.0745,-1.112,-1.1257,-1.1937,-1.335,-1.3093,-1.3428,-1.4428,-1.4331,-1.4138,-1.3755,-1.3925,-1.3346,-1.2069,-1.1653,-1.0988,-1.0141,-0.9571,-0.9188,-0.8811,-0.7748,-0.6551,-0.5281,-0.4005,-0.2754,-0.1668,-0.1,-0.0449,0.0,0.0,0.0,0.0,0.0,0.0,0.0,0.0,0.0,0.0,0.0,0.0,0.0,0.0,0.0,0.0,0.0,0.0,0.0,0.0,0.0,0.0,0.0,0.0,0.0,0.0,0.2339,0.358,0.5228,0.6661,0.7755,0.8312,0.8619,0.8854,0.9059,0.9405,0.9633,0.9579,0.9466,0.9453,0.9453,0.9137,0.8854,0.8674,0.8671,0.861,0.8485,0.8485,0.8485,0.8485,0.8485,0.8485,0.848,0.8212,0.809,0.8026,0.7936,0.7815,0.7654,0.7768,0.766,0.7529,0.0,0.0,0.0,0.0,1.0612,1.0694,0.0,0.0,0.0,0.0,0.0,0.0,-1.2881,-1.2856,-1.2544,-1.1746,-1.2257,-1.2885,-1.3276,-1.3251,-1.3588,-1.4493,-1.3383,-1.2415,-1.1857,-1.1281,-1.1289,-1.2049,-1.2614,-1.3413,-1.4461,-1.5191,-1.5716,-1.5982,-1.6495,-1.6224,-1.5252,-1.538,-1.4751,-1.3495,-1.2583,-1.1939,-1.151,-1.039,-0.9792,-0.9635,-0.9344,-0.8122,-0.6305,-0.5646,-0.4246,-0.2519,-0.1991,-0.1094,-0.0206,-0.0205,0.0,0.0,0.0,0.0,0.0,0.0,0.0,0.0,0.0,0.0,0.0,0.0,0.0,0.0,0.0,0.0,0.0,0.0,0.0,0.0,0.0,0.0,0.0,0.0,0.1748,0.2408,0.3458,0.5882,0.7694,0.8136,0.8531,0.8767,0.8881,0.911,0.9279,0.9338,0.9221,0.9209,0.9273,0.901,0.0,0.0,0.0,0.8183,0.7933,0.7872,0.7872,0.7872,0.7872,0.7872,0.7867,0.7739,0.7622,0.751,0.7658,0.7534,0.721,0.7438,0.7438,0.7199,0.7422,0.7792,0.8267,0.8847,0.8935,0.8825,0.0,0.0,0.0,0.0,0.0,0.0,-1.2832,-1.2529,-1.2031,-1.1442,-1.2567,-1.313,-1.238,-1.287,-1.3286,-1.3281,-1.2275,-1.1567,-1.135,-1.1618,-1.2209,-1.3153,-1.389,-1.469,-1.5565,-1.5943,-1.6266,-1.6543,-1.6863,-1.69,-1.6728,-1.6925,-1.6473,-1.5475,-1.5264,-1.4099,-1.218,-1.1931,-1.1116,-0.9886,-0.9764,-0.9017,-0.7818,-0.658,-0.5575,-0.4697,-0.3468,-0.234,-0.1433,-0.1318,-0.0704,0.0,0.0,0.0,0.0,0.0,0.0,0.0,0.0,0.0,0.0,0.0,0.0,0.0,0.0,0.0,0.0,0.0,0.0,0.0,0.0,0.0,0.0,0.0285,0.1323,0.2138,0.2403,0.394,0.5428,0.6612,0.813,0.8921,0.8684,0.92,0.9459,0.9212,0.9032,0.8962,0.8962,0.8554,0.823,0.8146,0.8047,0.7994,0.7872,0.7872,0.7872,0.7872,0.7872,0.0,0.7864,0.7652,0.754,0.7505,0.7398,0.7287,0.721,0.7265,0.7265,0.7263,0.8014,0.8196,0.8147,0.8926,0.9078,0.8825,0.0,0.0,0.0,0.0,0.0,0.0,-1.2856,-1.2676,-1.2339,-1.1861,-1.2597,-1.3007,-1.2594,-1.2727,-1.2907,-1.3101,-1.2189,-1.1695,-1.1902,-1.2366,-1.316,-1.4238,-1.4944,-1.5692,-1.6516,-1.6649,-1.6754,-1.6893,-1.7292,-1.7485,-1.7491,-1.7762,-1.7648,-1.7103,-1.6534,-1.5649,-1.4426,-1.3042,-1.2044,-1.1192,-1.027,-0.955,-0.9,-0.7859,-0.6805,-0.5888,-0.4828,-0.3606,-0.2411,-0.1817,-0.1194,-0.0602,-0.0161,0.0,0.0,0.0,0.0,0.0,0.0,0.0,0.0,0.0,0.0,0.0,0.0,0.0,0.0,0.0,0.0,0.0,0.0,0.0,0.0,0.0,0.0566,0.1039,0.1061,0.2274,0.3759,0.5166,0.6773,0.7712,0.7514,0.852,0.9056,0.8853,0.8797,0.871,0.859,0.8275,0.8089,0.8029,0.7966,0.7845,0.7785,0.7842,0.7842,0.7785,0.7845,0.7842,0.7782,0.7663,0.7543,0.7421,0.7298,0.7211,0.721,0.721,0.721,0.7265,0.7654,0.7701,0.7526,0.7927,0.792,0.7677,0.0,0.0,0.0,0.0,0.0,0.0,-1.2905,-1.2905,-1.2717,-1.2266,-1.2565,-1.2849,-1.2898,-1.2609,-1.2532,-1.287,-1.2164,-1.2016,-1.2643,-1.3177,-1.402,-1.5371,-1.5948,-1.6596,-1.731,-1.7367,-1.7301,-1.7243,-1.772,-1.7956,-1.7962,-1.8185,-1.8318,-1.8316,-1.744,-1.691,-1.6504,-1.407,-1.2899,-1.2451,-1.0762,-0.9985,-0.9697,-0.896,-0.789,-0.6822,-0.6113,-0.4899,-0.3412,-0.2514,-0.198,-0.1469,-0.0555,-0.0245,-0.0234,-0.0036,0.0,0.0,0.0,0.0,0.0,0.0,0.0,0.0,0.0,0.0,0.0,0.0,0.0,0.0,0.0,0.0,0.0,0.0,0.0,0.0,0.0,0.1007,0.2142,0.3342,0.4956,0.5973,0.5973,0.7312,0.8184,0.8184,0.8432,0.8473,0.828,0.8225,0.8108,0.7974,0.7861,0.7796,0.7703,0.7769,0.7758,0.7668,0.7758,0.7755,0.7665,0.7641,0.7524,0.7277,0.7309,0.7244,0.721,0.721,0.721,0.721,0.721,0.7152,0.7005,0.6883,0.676,0.6638,0.0,0.0,0.0,0.0,0.0,0.0,0.0,0.0,-1.2652,-1.1961,-1.2665,-1.2954,-1.229,-1.2388,-1.222,-1.1578,-1.148,-1.1912,-1.2977,-1.3654,-1.4765,-1.6434,-1.7095,-1.7573,-1.7894,-1.8133,-1.8097,-1.7787,-1.8094,-1.8245,-1.8251,-1.8275,-1.842,-1.8644,-1.8542,-1.7909,-1.6872,-1.5325,-1.386,-1.2463,-1.0887,-1.008,-0.9771,-0.9303,-0.8762,-0.8207,-0.7427,-0.6208,-0.4848,-0.4451,-0.3549,-0.2401,-0.1448,-0.1198,-0.1077,-0.026,0.0,0.0,0.0,0.0,0.0,0.0,0.0,0.0,0.0,0.0,0.0,0.0,0.0,0.0,0.0,0.0,0.0,0.0,0.0,0.0,0.0,0.0133,0.0264,0.0462,0.2865,0.4562,0.4562,0.5837,0.6644,0.6644,0.7764,0.8424,0.8399,0.8193,0.8125,0.8097,0.7831,0.7714,0.7701,0.7606,0.7551,0.754,0.7551,0.7551,0.7535,0.7426,0.7304,0.7274,0.7222,0.7224,0.721,0.721,0.721,0.721,0.721,0.7202,0.7177,0.7008,0.6888,0.6763,0.0,0.0,0.0,0.0,0.0,0.0,0.0,0.0,-1.2798,-1.2476,-1.282,-1.2911,-1.25,-1.2419,-1.2315,-1.2137,-1.1821,-1.2159,-1.3379,-1.3877,-1.487,-1.6627,-1.7292,-1.7971,-1.8752,-1.872,-1.8624,-1.8416,-1.8692,-1.8703,-1.8523,-1.868,-1.8807,-1.8915,-1.8915,-1.8645,-1.8156,-1.6726,-1.5683,-1.4758,-1.2412,-1.1205,-1.0647,-0.9479,-0.8662,-0.8037,-0.7473,-0.6628,0.0,-0.4748,-0.4006,-0.3302,-0.2369,-0.1717,-0.1248,-0.0886,-0.0404,0.0,0.0,0.0,0.0,0.0,0.0,0.0,0.0,0.0,0.0,0.0,0.0,0.0,0.0,0.0,0.0,0.0,0.0,0.0,0.0,0.0,0.0,0.0,0.1033,0.2144,0.2946,0.4323,0.5174,0.5174,0.6448,0.7176,0.7049,0.7728,0.8054,0.7853,0.7752,0.7275,0.6432,0.7155,0.7129,0.6366,0.7132,0.7481,0.741,0.7301,0.7296,0.7228,0.7232,0.721,0.721,0.721,0.721,0.721,0.721,0.7169,0.7051,0.7002,0.6953,0.688,0.0,0.0,0.0,0.0,0.0,0.0,0.0,0.0,0.0,0.0,-1.2905,-1.2856,-1.27,-1.2505,-1.242,-1.2582,-1.2273,-1.259,-1.3753,-1.4098,-1.5052,-1.6796,-1.7556,-1.8275,-1.9037,-1.926,-1.9152,-1.8776,-1.8995,-1.9001,-1.882,-1.8896,-1.8924,-1.8981,-1.8918,-1.8861,-1.8792,-1.7371,-1.6651,-1.6159,-1.3633,-1.2093,-1.1138,-0.9636,-0.8475,-0.7506,-0.7214,-0.6675,-0.5975,-0.4933,-0.4413,-0.4068,-0.3136,-0.2468,-0.1962,-0.1737,-0.114,-0.0494,-0.02,-0.0128,-0.0091,0.0,0.0,0.0,0.0,0.0,0.0,0.0,0.0,0.0,0.0,0.0,0.0,0.0,0.0,0.0,0.0,0.0,0.0,0.0,0.0,0.0373,0.1444,0.2859,0.3711,0.3711,0.4922,0.5661,0.5535,0.6765,0.7244,0.6661,0.6993,0.648,0.5051,0.594,0.5914,0.4984,0.6292,0.6854,0.6776,0.7115,0.7239,0.721,0.721,0.721,0.721,0.721,0.721,0.721,0.721,0.7141,0.6986,0.6986,0.6964,0.6904,0.0,0.0,0.0,0.0,0.0,0.0,0.0,0.0,0.0,0.0,0.0,-1.2856,-1.27,-1.2578,-1.2431,-1.2317,-1.2642,-1.3228,-1.4147,-1.4434,-1.5397,-1.7296,-1.8288,-1.8654,-1.8444,-1.9759,-1.9887,-1.8781,-1.8763,-1.8894,-1.9193,-1.8613,-1.8435,-1.8729,-1.8435,-1.8318,-1.825,-1.6808,-1.6044,-1.5671,-1.3838,-1.2148,-1.0619,-0.9857,-0.8485,-0.6913,-0.6906,-0.64,-0.5675,-0.5355,-0.5091,-0.4711,-0.3757,-0.3641,-0.3676,-0.2875,-0.2301,-0.1718,-0.0686,-0.0369,-0.0346,-0.0051,0.0,0.0,0.0,0.0,0.0,0.0,0.0,0.0,0.0,0.0,0.0,0.0,0.0,0.0,0.0,0.0,0.0,0.0,0.0,0.0,0.0059,0.1352,0.2142,0.2142,0.3401,0.4156,0.4154,0.5337,0.5354,0.4056,0.5148,0.5165,0.3841,0.3787,0.3673,0.367,0.4912,0.5489,0.5487,0.6657,0.7215,0.721,0.721,0.721,0.721,0.721,0.721,0.721,0.721,0.7141,0.6986,0.6986,0.691,0.679,0.0,0.0,0.0,0.0,0.0,0.0,0.0,0.0,0.0,0.0,0.0,0.0,0.0,0.0,0.0,0.0,-1.2307,-1.2643,-1.3616,-1.3939,-1.4962,-1.692,-1.7781,-1.8664,-1.9681,-2.0187,-2.0026,-1.9231,-1.9042,-1.8685,-1.8077,-1.7673,-1.7646,-1.7929,-1.781,-1.7756,-1.7756,-1.7267,-1.6675,-1.5988,-1.4359,-1.2529,-1.0675,-0.9309,-0.7719,-0.6156,0.0,-0.5723,-0.547,-0.5143,-0.4951,-0.4779,-0.456,-0.4219,-0.3835,-0.3413,-0.3321,-0.3126,-0.2096,-0.1895,-0.1761,-0.0895,-0.0702,-0.073,-0.0689,-0.0694,-0.0631,-0.0628,-0.0619,-0.0548,-0.0298,-0.024,-0.0181,0.0,0.0,0.0,0.0,0.0,0.0,0.0,0.0,0.0,0.0,0.0413,0.0726,0.0734,0.1957,0.2703,0.2731,0.3888,0.4346,0.3877,0.4218,0.3827,0.2489,0.3247,0.3212,0.241,0.3609,0.4196,0.4195,0.4641,0.5256,0.5984,0.5984,0.6485,0.721,0.721,0.721,0.721,0.721,0.6871,0.633,0.633,0.5948,0.5595,0.0,0.0,0.0,0.0,0.0,0.0,0.0,0.0,0.0,0.0,0.0,0.0,0.0,0.0,0.0,0.0,0.0,-1.2726,-1.3455,-1.3592,-1.446,-1.6254,-1.6965,-1.7917,-1.9184,-1.9604,-1.9506,-1.8955,-1.8643,-1.8174,-1.7642,-1.6899,-1.6719,-1.7029,-1.6655,-1.6543,-1.6628,-1.6531,-1.6139,-1.5477,-1.4208,-1.2517,-1.0572,-0.9052,-0.7395,0.0,-0.5386,-0.5167,-0.5051,-0.4884,-0.481,-0.4796,-0.4984,-0.4869,-0.4619,-0.4403,-0.4572,-0.4619,-0.3714,-0.3648,-0.3422,-0.2133,-0.1837,-0.1698,-0.1148,-0.1013,-0.0933,-0.0908,-0.0825,-0.0744,-0.0553,-0.0502,-0.0453,-0.0286,-0.0298,-0.0307,-0.0185,-0.0187,-0.0124,0.0,0.0,0.0,0.0,0.0,0.0,0.0,0.0781,0.1275,0.1294,0.2525,0.3003,0.2488,0.2911,0.253,0.1187,0.1926,0.2129,0.1821,0.2587,0.3189,0.358,0.358,0.4027,0.4756,0.4756,0.52,0.5924,0.6374,0.6429,0.6262,0.6707,0.6379,0.5687,0.5704,0.5324,0.4938,0.0,0.0,0.0,0.0,0.0,0.0,0.0,0.0,0.0,0.0,0.0,0.0,0.0,0.0,0.0,0.0,0.0,0.0,-1.3646,-1.3504,-1.403,-1.5391,-1.5922,-1.6434,-1.7036,-1.8063,-1.8371,-1.798,-1.7521,-1.7405,-1.7673,-1.61,-1.5655,-1.6084,-1.5089,-1.4757,-1.4968,-1.4721,-1.4437,-1.4087,-1.3326,-1.1964,-1.0259,-0.9018,-0.7464,-0.5872,-0.5139,-0.4721,-0.4525,-0.4672,-0.4714,-0.4799,-0.5073,-0.5578,-0.6047,-0.5889,-0.6062,-0.6203,-0.5585,-0.551,-0.5256,-0.3744,-0.3275,-0.2884,-0.1452,-0.1056,-0.0908,-0.0864,-0.0767,-0.0733,-0.0706,-0.0713,-0.073,-0.081,-0.0863,-0.0785,-0.0491,-0.0493,-0.043,-0.006,-0.006,-0.0059,0.0,0.0,0.0,0.0,0.0,0.0,0.0,0.1234,0.1295,0.0062,0.1234,0.1286,0.0,0.0,0.0579,0.1736,0.1736,0.2295,0.3413,0.3413,0.3469,0.3525,0.3525,0.3525,0.3692,0.481,0.4925,0.4534,0.5648,0.5649,0.5015,0.4987,0.4896,0.4751,0.0,0.0,0.0,0.0,0.0,0.0,0.0,0.0,0.0,0.0,0.0,0.0,0.0,0.0,0.0,0.0,0.0,0.0,-1.3384,-1.355,-1.4009,-1.4883,-1.5328,-1.5829,-1.648,-1.6758,-1.6631,-1.6111,-1.5789,-1.5301,-1.466,-1.4055,-1.3796,-1.385,-1.3546,-1.34,-1.3314,-1.3248,-1.2837,-1.2163,-1.1787,-1.0576,-0.8922,-0.7933,-0.6786,-0.5624,-0.4968,-0.4701,-0.4665,-0.4677,-0.506,-0.5589,-0.6,-0.6542,-0.7088,-0.7323,-0.7801,-0.8046,-0.7221,-0.7238,-0.7142,-0.5776,-0.4669,-0.3814,-0.3211,-0.2324,-0.1548,-0.1379,-0.1261,-0.1161,-0.0981,-0.0911,-0.0898,-0.0737,-0.0798,-0.085,-0.0758,-0.0846,-0.086,-0.0725,-0.0721,-0.0656,-0.0413,-0.0353,-0.0296,0.0,0.0,0.0,0.0,0.0309,0.037,0.0,0.0309,0.0368,0.0,0.0,0.0172,0.0448,0.0448,0.0616,0.0896,0.0896,0.14,0.2239,0.2239,0.2742,0.358,0.3635,0.3579,0.3467,0.3578,0.3209,0.2672,0.3313,0.3192,0.2848,0.0,0.0,0.0,0.0,0.0,0.0,0.0,0.0,0.0,0.0,0.0,0.0,0.0,0.0,0.0,0.0,0.0,0.0,0.0,-1.316,-1.3412,-1.396,-1.4109,-1.4503,-1.523,-1.5249,-1.5155,-1.5026,-1.4769,-1.4395,-1.3847,-1.329,-1.2917,-1.2674,-1.2337,-1.2067,-1.1856,-1.1727,-1.142,0.0,0.0,-0.9688,-0.8589,-0.7396,-0.6487,-0.5743,-0.4901,-0.4718,-0.4935,-0.5267,-0.5742,-0.6285,-0.6803,-0.7288,-0.7767,-0.8231,-0.8713,-0.9057,-0.8711,-0.8881,-0.8814,-0.7523,-0.6457,-0.5584,-0.4551,-0.3339,-0.2343,-0.2053,-0.1627,-0.1305,-0.115,-0.1145,-0.111,-0.1074,-0.1181,-0.1217,-0.1087,-0.1139,-0.1169,-0.1037,-0.0975,-0.0911,-0.0722,-0.0722,-0.0664,-0.0426,-0.0182,0.0,0.0,0.0,0.0,0.0,0.0,0.0,0.0,0.0,0.0,0.0,0.0,0.0,0.0,0.0,0.0392,0.1008,0.1008,0.1344,0.1847,0.2182,0.207,0.1791,0.2182,0.1892,0.1379,0.1862,0.1826,0.1624,0.0,0.0,0.0,0.0,0.0,0.0,0.0,0.0,0.0,0.0,0.0,0.0,0.0,0.0,0.0,0.0,0.0,0.0,0.0,0.0,-1.2691,-1.3017,-1.2796,-1.2973,-1.3654,-1.3672,-1.3818,-1.4185,-1.4001,-1.3902,-1.3838,-1.2952,-1.2373,-1.1976,-1.1286,-1.083,-1.0562,-1.0337,-1.0211,-1.0128,-0.9568,-0.9146,-0.8751,0.0,-0.6554,-0.6209,-0.5061,-0.4854,-0.5214,-0.604,-0.6481,-0.6868,-0.7492,-0.7906,-0.8224,-0.8801,-0.9239,-0.9564,-0.993,-1.031,-1.0247,-0.8954,-0.8269,-0.7376,-0.559,-0.4109,-0.3051,-0.2626,-0.1849,-0.1267,-0.1271,-0.1283,-0.1312,-0.1448,-0.1661,-0.1694,-0.1416,-0.1487,-0.1474,-0.1169,-0.111,-0.1111,-0.105,-0.105,-0.105,-0.0988,-0.0488,-0.0122,-0.0062,0.0,0.0,0.0,0.0,0.0,0.0,0.0,0.0,0.0,0.0,0.0,-0.0056,-0.0056,-0.0056,-0.0112,-0.0112,-0.0224,-0.0393,0.056,0.0504,-0.0056,0.0952,0.1009,0.0559,0.0605,0.0649,0.085,0.0,0.0,0.0,0.0,0.0,0.0,0.0,0.0,0.0,0.0,-1.2905,-1.2905,0.0,0.0,0.0,0.0,0.0,0.0,0.0,0.0,0.0,-1.2609,-1.2559,-1.2501,-1.2413,-1.2413,-1.245,-1.2523,-1.2472,-1.235,-1.2115,-1.1499,-1.0979,-1.0551,-0.9952,-0.9612,-0.9483,-0.9432,-0.9267,-0.9068,-0.8944,-0.8735,-0.84,-0.7502,0.0,0.0,-0.5817,-0.5273,-0.5214,-0.604,-0.6617,-0.7146,-0.7926,-0.8445,-0.8821,-0.9354,-0.9703,-0.9943,-1.0327,-1.0544,-1.0526,-0.9966,-0.8751,-0.7364,-0.6382,-0.4463,-0.2765,-0.2354,-0.1604,-0.108,-0.1137,-0.1193,-0.1236,-0.131,-0.1501,-0.1632,-0.1608,-0.1771,-0.1791,-0.1754,-0.1777,-0.1729,-0.142,-0.142,-0.1297,-0.105,-0.0862,-0.0677,-0.0432,-0.0123,0.0,0.0,0.0,0.0,0.0,0.0,0.0,0.0,0.0,-0.0112,-0.0336,-0.0336,-0.0505,-0.0729,-0.0729,-0.0785,-0.0841,-0.0841,-0.0953,-0.1065,-0.1121,-0.1234,-0.1231,-0.0495,-0.0216,-0.0106,0.0,0.0,0.0,0.0,0.0,0.0,0.0,-1.2256,-1.2627,-1.2876,-1.2905,-1.2905,-1.2905,-1.2905,-1.2881,0.0,0.0,0.0,0.0,0.0,0.0,-1.2406,-1.2332,-1.2224,-1.2101,-1.2101,-1.2101,-1.2101,0.0,-1.2018,-1.1893,-1.1653,-1.1245,-1.0743,-1.0176,-0.972,-0.9377,-0.9114,-0.8925,-0.8788,-0.8728,-0.8617,-0.8415,-0.7685,0.0,0.0,-0.5458,-0.5128,-0.5181,-0.5829,-0.6366,-0.698,-0.8045,-0.8638,-0.8972,-0.9476,-0.9819,-1.0034,-1.0321,-1.049,-1.0493,-1.0042,-0.9062,-0.7956,-0.7124,-0.5122,-0.3367,-0.2903,-0.1836,-0.1019,-0.1048,-0.1411,-0.1764,-0.1884,-0.2049,-0.2185,-0.2311,-0.2052,-0.1874,-0.1904,-0.1948,-0.1915,-0.1791,-0.1729,-0.1667,-0.1544,-0.1348,-0.1037,-0.0732,-0.0545,-0.0479,-0.0471,-0.0464,-0.0458,-0.0454,-0.045,-0.0449,-0.0449,-0.0449,-0.0561,-0.0673,-0.0673,-0.0729,-0.0897,-0.0897,-0.0953,-0.1121,-0.1234,-0.1402,-0.157,-0.1739,-0.1795,-0.1735,-0.132,-0.1135,-0.1009,0.0,0.0,0.0,0.0,0.0,0.0,0.0,-1.2021,-1.249,-1.2856,-1.2905,-1.2905,-1.2905,-1.2905,-1.2856,0.0,0.0,0.0,0.0,0.0,0.0,0.0,0.0,0.0,-1.2101,0.0,0.0,-1.2101,-1.2101,0.0,0.0,0.0,0.0,0.0,-1.0379,-0.9814,-0.9413,-0.8982,-0.8804,0.0,0.0,-0.8633,-0.8573,0.0,0.0,0.0,0.0,-0.4998,-0.5128,-0.5582,-0.5972,-0.6528,-0.7678,-0.8394,-0.8889,-0.9371,-0.9724,-0.994,-1.0222,-1.0361,-1.0337,-0.9886,-0.9215,-0.8418,-0.7489,-0.5717,-0.4065,-0.3451,-0.2172,-0.1161,-0.1166,-0.1724,-0.229,-0.2575,-0.2734,-0.2803,-0.2828,-0.2344,-0.1985,-0.191,-0.1922,-0.1967,-0.1967,-0.1973,-0.1974,-0.1967,-0.1691,-0.1316,-0.09,-0.0887,-0.0874,-0.092,-0.0917,-0.0909,-0.0898,-0.0897,-0.0897,-0.0897,-0.0897,-0.0953,-0.1009,-0.1009,-0.1009,-0.1065,-0.1065,-0.1234,-0.1402,-0.1402,-0.157,-0.1795,-0.1795,-0.1795,-0.1791,-0.1816,-0.1785,-0.1594,0.0,0.0,0.0,0.0,0.0,0.0,0.0,-1.2299,-1.2856,-1.2895,-1.2905,-1.2905,-1.2905,-1.2905,-1.2905,0.0,0.0,0.0,0.0,0.0,0.0,0.0,0.0,0.0,0.0,0.0,0.0,-1.2101,-1.2101,0.0,0.0,0.0,0.0,0.0,0.0,-0.891,-0.8883,-0.8831,0.0,0.0,0.0,0.0,0.0,0.0,0.0,0.0,0.0,-0.5369,-0.4971,-0.5311,-0.5543,-0.5786,-0.6487,-0.7473,-0.8445,-0.9081,-0.9412,-0.9741,-1.0164,-1.029,-1.0192,-0.9741,-0.9062,-0.8231,-0.7204,-0.5763,-0.4369,-0.3348,-0.2392,-0.174,-0.174,-0.1935,-0.2317,-0.294,-0.3312,-0.3276,-0.2648,-0.2664,-0.2543,-0.1865,-0.1864,-0.1935,-0.1935,-0.196,-0.1965,-0.1937,-0.1823,-0.1511,-0.0944,-0.0872,-0.0921,-0.092,-0.0906,-0.0899,-0.0897,-0.0897,-0.0897,-0.0897,-0.0897,-0.1009,-0.129,-0.129,-0.1402,-0.1739,-0.1739,-0.1739,-0.1739,-0.1739,-0.1795,-0.1795,-0.1795,-0.1795,-0.1791,-0.1816,-0.1785,-0.17,0.0,0.0,0.0,0.0,0.0,0.0,-1.1567,-1.2113,-1.2588,-1.2866,-1.2905,-1.2905,-1.2905,-1.2646,-1.2564,-1.2754,0.0,0.0,0.0,0.0,0.0,0.0,0.0,0.0,0.0,0.0,-1.1952,-1.1628,-1.1628,0.0,0.0,0.0,0.0,0.0,0.0,-0.929,-0.9263,-0.8929,0.0,0.0,0.0,0.0,0.0,0.0,0.0,0.0,0.0,0.0,-0.5014,-0.507,-0.5195,-0.5351,-0.5706,-0.6432,-0.7281,-0.8321,-0.8961,-0.9447,-0.9849,-1.0165,-1.0247,-0.9374,-0.8799,-0.807,-0.6914,-0.5314,-0.3949,-0.3683,-0.2663,-0.1909,-0.2274,-0.2781,-0.3261,-0.3685,-0.3946,-0.4051,-0.397,-0.3878,-0.369,-0.3476,-0.3685,-0.3639,-0.2907,-0.2953,-0.272,-0.1965,-0.1864,-0.1723,-0.143,-0.1421,-0.1416,-0.1416,-0.1463,-0.1458,-0.1458,-0.1458,-0.1458,-0.1458,-0.1458,-0.1514,-0.1627,-0.1627,-0.1683,-0.1795,-0.1795,-0.1795,-0.1795,-0.1795,-0.1795,-0.1795,-0.1795,-0.1795,-0.1791,-0.1816,-0.1796,-0.1778,0.0,0.0,0.0,0.0,0.0,-1.1016,-1.134,-1.1748,-1.2139,-1.2475,-1.2631,-1.2661,-1.2533,-1.2334,-1.2248,-1.2353,-1.2368,0.0,0.0,0.0,0.0,0.0,0.0,0.0,0.0,0.0,-1.1753,-1.1553,-1.1209,-1.0922,0.0,0.0,-1.0167,-1.0141,0.0,0.0,0.0,0.0,0.0,0.0,0.0,0.0,0.0,0.0,0.0,0.0,0.0,0.0,0.0,0.0,0.0,-0.5032,-0.5238,-0.5607,-0.6185,-0.7489,-0.8349,-0.8996,-0.9364,-0.978,-0.9915,-0.9045,-0.8492,-0.7847,-0.6694,-0.5108,-0.3843,-0.3686,-0.2673,-0.1986,-0.2597,-0.318,-0.3773,-0.431,-0.4625,-0.482,-0.4797,-0.4735,-0.4618,-0.4491,-0.4878,-0.4717,-0.3586,-0.3294,-0.2963,-0.2474,-0.208,-0.1818,-0.1796,-0.1795,-0.1791,-0.1782,-0.1782,-0.1777,-0.1768,-0.1777,-0.1782,-0.1782,-0.1791,-0.1795,-0.1795,-0.1795,-0.1795,-0.1795,-0.1795,-0.1795,-0.1795,-0.1795,-0.1795,-0.1795,-0.1795,-0.1795,-0.1793,-0.1826,-0.1812,-0.1798,0.0,0.0,0.0,0.0,0.0,0.0,-1.0918,-1.131,-1.1616,-1.1616,-1.1963,-1.207,-1.1665,-1.1963,-1.2051,-1.1655,-1.1859,0.0,0.0,0.0,0.0,0.0,0.0,0.0,0.0,0.0,-1.1578,-1.2101,-1.0956,-1.0711,-1.1267,-1.0131,-0.9614,-0.9588,0.0,0.0,0.0,0.0,0.0,0.0,0.0,0.0,0.0,0.0,0.0,0.0,0.0,0.0,0.0,0.0,0.0,0.0,0.0,-0.5092,-0.5378,-0.6627,-0.757,-0.8314,-0.8797,-0.9054,-0.9157,-0.8779,-0.8258,-0.7554,-0.6541,-0.5356,-0.4202,-0.3123,-0.2318,-0.1986,-0.2597,-0.2918,-0.3505,-0.4705,-0.5383,-0.5524,-0.4729,-0.5048,-0.5129,-0.4493,-0.4753,-0.4556,-0.3521,-0.2447,-0.2373,-0.3699,-0.257,-0.1795,-0.1795,-0.1795,-0.1781,-0.1806,-0.1804,-0.179,-0.1705,-0.1789,-0.1804,-0.1805,-0.178,-0.1795,-0.1795,-0.1795,-0.1795,-0.1795,-0.1795,-0.1795,-0.1795,-0.1795,-0.1795,-0.1795,-0.1795,-0.1795,-0.1795,-0.1795,-0.1776,-0.1804,0.0,0.0,0.0,0.0,0.0,0.0,0.0,-1.1025,-1.1242,-1.1567,-1.1702,-1.1741,-1.1616,-1.1426,-1.1248,-1.1079,-1.1618,0.0,0.0,0.0,0.0,0.0,0.0,0.0,0.0,0.0,-1.1744,-1.1544,-1.0787,-1.032,-1.0131,-0.9394,-0.9061,-0.9035,-0.8883,-0.8804,0.0,0.0,0.0,0.0,0.0,0.0,-0.6154,0.0,0.0,0.0,0.0,0.0,0.0,0.0,0.0,0.0,0.0,0.0,0.0,-0.5961,-0.6794,-0.7583,-0.7884,-0.8378,-0.8644,-0.8012,-0.7634,-0.7104,-0.5956,-0.4806,-0.3883,-0.3348,-0.2605,-0.2322,-0.3153,-0.3472,-0.3868,-0.4749,-0.5335,-0.5602,-0.5449,-0.5459,-0.5388,-0.5177,-0.4429,-0.4139,-0.4704,-0.2976,-0.2304,-0.3584,-0.2496,-0.1786,-0.182,-0.1819,-0.1815,-0.1804,-0.1804,-0.1789,-0.1705,-0.1714,-0.1729,-0.1804,-0.1814,-0.1775,-0.1795,-0.1795,-0.1795,-0.1795,-0.1795,-0.1795,-0.1795,-0.1795,-0.1795,-0.1795,-0.1795,-0.1795,-0.1795,-0.1795,-0.1789,-0.1778,0.0,0.0,0.0,0.0,0.0,0.0,0.0,-1.0674,-1.0771,-1.1066,-1.1232,-1.1281,-1.1136,-1.0956,-1.0835,-1.0773,-1.1343,0.0,0.0,0.0,0.0,0.0,0.0,0.0,0.0,-1.1585,-1.1301,-1.0947,-1.028,-0.9829,-0.9588,-0.9151,-0.8884,-0.8804,-0.8804,-0.8804,0.0,0.0,0.0,0.0,0.0,0.0,-0.5504,0.0,0.0,0.0,0.0,0.0,0.0,0.0,0.0,0.0,0.0,0.0,0.0,0.0,-0.6046,-0.6675,-0.7071,-0.7569,-0.7874,-0.7334,-0.6927,-0.6423,-0.5453,-0.4376,-0.3475,-0.3196,-0.2444,-0.2099,-0.2933,-0.3333,-0.3757,-0.4445,-0.5173,-0.5612,-0.5389,-0.5388,-0.5574,-0.5917,-0.5208,-0.5082,-0.6048,-0.3935,-0.3022,-0.424,-0.2755,-0.199,-0.2405,-0.201,-0.1781,-0.1771,-0.1771,-0.1755,-0.1671,-0.1682,-0.1698,-0.1771,-0.1793,-0.1814,-0.1778,-0.179,-0.1795,-0.1795,-0.1795,-0.1795,0.0,-0.1795,-0.1795,-0.1795,-0.1795,-0.1795,-0.1795,-0.1795,-0.1795,-0.1791,0.0,0.0,0.0,0.0,0.0,0.0,0.0,-1.0303,-1.0303,-1.0303,-1.0625,-1.0732,-1.0391,-1.0603,-1.0783,-1.074,0.0,0.0,0.0,0.0,0.0,0.0,0.0,0.0,-1.1242,-1.0685,-1.0389,-1.0389,-0.964,-0.9391,-0.9632,-0.935,-0.9071,-0.8838,-0.8818,-0.8804,0.0,0.0,0.0,0.0,0.0,0.0,0.0,0.0,0.0,0.0,0.0,0.0,0.0,0.0,0.0,0.0,0.0,0.0,0.0,0.0,0.0,0.0,0.0,-0.6763,-0.6869,-0.6698,-0.6222,-0.5625,-0.5078,-0.4065,0.0,-0.2735,-0.1962,-0.1542,-0.21,-0.2716,-0.3322,-0.3905,-0.5041,-0.5557,-0.4726,-0.4958,-0.5549,-0.6372,-0.6547,-0.6829,-0.7344,-0.5075,-0.4162,-0.5587,-0.3444,-0.2455,-0.3423,-0.241,-0.1793,-0.1712,-0.1711,-0.1645,-0.1617,-0.1645,-0.1712,-0.1715,-0.1771,-0.1799,-0.1802,-0.1776,-0.1789,-0.1789,-0.1791,-0.1792,-0.1792,-0.1794,-0.1795,-0.1795,-0.1795,-0.1793,-0.1792,-0.1792,-0.1847,-0.184,0.0,0.0,0.0,0.0,0.0,0.0,0.0,0.0,0.0,0.0,-1.0391,-1.0518,-1.0742,-1.0747,-1.0815,0.0,0.0,0.0,0.0,0.0,0.0,0.0,0.0,0.0,-1.0601,-1.0474,-1.0389,-1.0389,-1.007,-0.9924,-0.996,-0.9446,-0.9178,-0.9098,-0.8905,-0.8804,0.0,0.0,0.0,0.0,0.0,0.0,0.0,0.0,0.0,0.0,-0.5215,-0.527,0.0,0.0,0.0,0.0,0.0,0.0,0.0,0.0,-0.5325,-0.5394,-0.5591,0.0,-0.6159,-0.6114,-0.5876,-0.5448,0.0,-0.4133,-0.3526,-0.2523,-0.2128,-0.2045,-0.2183,-0.2979,-0.3719,-0.3967,-0.5276,-0.5887,-0.4763,-0.455,-0.4463,-0.4201,-0.4169,-0.4932,-0.7001,-0.4985,-0.4455,-0.6451,-0.52,-0.4045,-0.336,-0.3081,-0.2535,-0.1628,-0.1628,-0.1624,-0.1617,-0.1624,-0.1639,-0.1714,-0.1728,-0.1747,-0.1715,-0.1722,-0.1725,-0.1727,-0.1805,-0.1816,-0.1817,-0.1785,-0.1795,-0.1795,-0.1795,-0.178,-0.1816,-0.1816,-0.2018,-0.2318,0.0,0.0,0.0,0.0,0.0,0.0,0.0,0.0,0.0,0.0,0.0,0.0,0.0,0.0,0.0,0.0,0.0,0.0,0.0,0.0,0.0,0.0,0.0,-1.0287,-1.0038,-1.0038,-0.9909,-0.9666,-0.9824,-0.9841,-0.9673,-0.9519,-0.9344,-0.9198,-0.8911,-0.8804,0.0,0.0,0.0,0.0,-0.675,0.0,0.0,0.0,0.0,0.0,-0.5183,-0.5242,0.0,-0.5297,-0.5297,-0.5297,0.0,0.0,0.0,0.0,-0.5297,-0.5297,-0.5297,-0.5466,-0.5615,-0.5615,-0.5249,-0.4752,-0.427,-0.3764,-0.3216,-0.2577,-0.2354,-0.2293,-0.2293,-0.2955,-0.3658,-0.4025,-0.4973,-0.5472,-0.4892,-0.525,-0.5428,-0.5141,-0.5501,-0.6222,-0.7325,-0.6017,-0.5665,-0.7026,-0.5797,-0.496,-0.4864,-0.385,-0.2954,-0.2372,-0.1869,-0.1617,-0.1617,-0.1617,-0.1625,-0.1641,-0.1707,-0.1722,-0.1685,-0.1698,-0.1704,-0.1705,-0.1722,-0.1729,-0.173,-0.1746,-0.1753,-0.1753,-0.2028,-0.1961,-0.1837,-0.2322,-0.247,-0.2554,0.0,0.0,0.0,0.0,0.0,0.0,0.0,0.0,0.0,0.0,0.0,0.0,0.0,0.0,0.0,0.0,0.0,0.0,0.0,0.0,0.0,0.0,0.0,-0.9943,-0.9491,-0.9484,-0.9285,-0.8871,-0.9419,-0.9579,-0.9351,-0.9586,-0.9506,-0.9138,-0.8804,-0.8666,0.0,0.0,0.0,0.0,-0.6327,0.0,0.0,0.0,0.0,0.0,0.0,0.0,0.0,-0.5297,-0.5297,-0.5297,-0.5215,0.0,0.0,0.0,0.0,0.0,-0.5297,-0.5242,-0.5219,-0.5219,-0.466,-0.4079,-0.3941,-0.3342,-0.2796,-0.2739,-0.2607,-0.2489,-0.243,-0.2898,-0.3531,-0.4161,-0.4558,-0.4892,-0.502,-0.5962,-0.6659,-0.6648,-0.7638,-0.8107,-0.7576,-0.7209,-0.7042,-0.7181,-0.6145,-0.5777,-0.6374,-0.4513,-0.3374,-0.3224,-0.217,-0.1617,-0.1617,-0.1617,-0.1617,-0.1617,-0.1643,-0.1707,-0.1707,-0.168,-0.1691,-0.1691,-0.1696,-0.1698,-0.1698,-0.1703,-0.1757,-0.1864,-0.2344,-0.2287,-0.2068,-0.2968,-0.307,-0.2794,0.0,0.0,0.0,0.0,0.0,0.0,0.0,0.0,0.0,0.0,0.0,0.0,0.0,0.0,0.0,0.0,0.0,0.0,0.0,0.0,0.0,-0.9035,-0.9035,-0.9008,-0.8936,-0.8936,-0.9005,-0.9144,-0.9519,-0.9786,-0.995,-0.978,-0.9392,-0.8845,-0.8275,-0.8037,-0.801,0.0,0.0,0.0,-0.6431,0.0,0.0,0.0,0.0,0.0,0.0,0.0,0.0,-0.5297,-0.5297,-0.5242,-0.4912,0.0,0.0,0.0,0.0,0.0,-0.5297,-0.505,-0.4798,-0.4798,-0.4688,-0.4411,-0.3663,-0.3431,-0.327,-0.2863,-0.2845,-0.2812,-0.2541,-0.3243,-0.4005,-0.4388,-0.4727,-0.4928,-0.478,-0.4982,-0.5027,-0.4739,-0.5763,-0.6446,-0.6384,-0.6973,-0.7037,-0.6204,-0.7352,-0.7229,-0.5201,-0.4732,-0.4124,-0.3224,-0.217,-0.1617,-0.1617,-0.1617,-0.1617,-0.1617,-0.1622,-0.1624,-0.1624,-0.1628,-0.163,-0.1631,-0.1657,-0.1721,-0.1723,-0.1695,-0.1971,-0.2398,-0.2451,-0.2743,-0.3069,-0.3225,-0.3503,-0.3862,0.0,0.0,0.0,0.0,0.0,0.0,0.0,0.0,0.0,0.0,0.0,0.0,0.0,0.0,0.0,0.0,0.0,0.0,0.0,0.0,0.0,-0.8804,-0.8804,-0.8878,-0.9011,-0.9011,-0.9158,-0.9479,-0.9773,-0.9987,-1.0077,-0.982,-0.9372,-0.8778,-0.8176,-0.7898,-0.7845,-0.6993,-0.662,0.0,0.0,0.0,0.0,0.0,0.0,0.0,0.0,0.0,0.0,0.0,-0.5297,-0.5274,-0.5077,0.0,0.0,0.0,0.0,0.0,-0.505,-0.4829,-0.4632,-0.4384,-0.4191,-0.3934,-0.3535,-0.3374,-0.3215,-0.2999,-0.3111,-0.3177,-0.3012,-0.3387,-0.3734,-0.3796,-0.4972,-0.5612,-0.4797,-0.5396,-0.5844,-0.5689,-0.6113,-0.6532,-0.6842,-0.7007,-0.7087,-0.7178,-0.7366,-0.7299,-0.6974,-0.5577,-0.463,-0.4277,-0.2823,-0.1868,-0.1617,-0.1617,-0.1617,-0.1617,-0.1617,-0.1617,-0.1617,-0.1617,-0.1617,-0.1618,-0.1937,-0.2097,-0.2097,-0.2373,-0.264,-0.2899,-0.3207,-0.3293,-0.3268,-0.3574,-0.4011,-0.4483,0.0,0.0,0.0,0.0,0.0,0.0,0.0,0.0,0.0,0.0,0.0,0.0,0.0,0.0,0.0,0.0,0.0,0.0,0.0,0.0,-0.8804,-0.8804,-0.8804,-0.8918,-0.9204,-0.9211,-0.9391,-0.9786,-0.994,-0.989,-0.9692,-0.9499,-0.9041,-0.8374,-0.7771,-0.7498,-0.7444,-0.6426,-0.5996,0.0,0.0,0.0,0.0,0.0,0.0,0.0,0.0,0.0,0.0,0.0,0.0,0.0,0.0,0.0,0.0,-0.4577,-0.4829,-0.5215,-0.4802,-0.4691,-0.4577,-0.4104,-0.3758,-0.3475,-0.3411,-0.3259,-0.316,-0.3181,-0.3313,-0.3461,-0.3461,-0.3661,-0.3784,-0.3516,-0.5116,-0.598,-0.4899,-0.5631,-0.6282,-0.6182,-0.6366,-0.6575,-0.6669,-0.6779,-0.6932,-0.7283,-0.6788,-0.6883,-0.7826,-0.5932,-0.4883,-0.5081,-0.3476,-0.2372,-0.197,-0.1869,-0.1717,-0.1617,-0.1617,-0.1617,-0.1617,-0.1717,-0.1768,-0.1818,-0.2372,-0.2573,-0.2623,-0.3029,-0.3281,-0.343,-0.3833,-0.3831,-0.3632,-0.4033,-0.4433,-0.4784,0.0,0.0,0.0,0.0,0.0,0.0,0.0,0.0,0.0,0.0,0.0,0.0,0.0,0.0,0.0,0.0,0.0,0.0,0.0,0.0,-0.8804,-0.8804,-0.8804,-0.8918,-0.9204,-0.9211,-0.9491,-1.0087,-0.9833,-0.9307,-0.8524,-0.8505,-0.8043,-0.7192,-0.6588,-0.6312,-0.629,-0.565,-0.5352,-0.5352,0.0,0.0,0.0,0.0,0.0,0.0,0.0,0.0,0.0,0.0,0.0,0.0,0.0,0.0,-0.505,-0.3858,-0.4356,-0.5215,-0.4802,-0.4691,-0.4577,-0.4104,-0.3758,-0.3406,-0.3108,-0.3218,-0.3404,-0.3452,-0.3542,-0.357,-0.357,-0.429,-0.4768,-0.4392,-0.5095,-0.5477,-0.4899,-0.488,-0.4784,-0.4282,-0.5295,-0.5601,-0.4392,-0.5997,-0.635,-0.4442,-0.5837,-0.6282,-0.5133,-0.4885,-0.4784,-0.4834,-0.3732,-0.313,-0.3079,-0.2574,-0.207,-0.1617,-0.1617,-0.1617,-0.1617,-0.212,-0.2321,-0.2371,-0.2927,-0.313,-0.313,-0.318,-0.3481,-0.3932,-0.3982,-0.4282,-0.4684,-0.4734,-0.4784,-0.4784,0.0,0.0,0.0,0.0,0.0,0.0,0.0,0.0,0.0,0.0,0.0,0.0,0.0,0.0,0.0,0.0,0.0,0.0,0.0,-0.8804,-0.8804,-0.8804,-0.8804,-0.8777,-0.8692,-0.9038,-0.9234,-0.9294,-0.887,-0.8363,-0.7852,-0.7852,-0.7583,-0.7085,-0.648,-0.6209,-0.6154,-0.5567,-0.5297,-0.5297,-0.5297,-0.5297,0.0,0.0,0.0,0.0,0.0,0.0,0.0,0.0,-0.5132,-0.4857,-0.455,-0.466,-0.4774,-0.3996,-0.4494,-0.5215,-0.4802,-0.4494,-0.4237,-0.415,-0.3684,-0.3215,-0.3095,-0.3291,-0.3552,-0.3682,-0.3779,-0.3841,-0.3841,-0.414,-0.4293,-0.3977,-0.4512,-0.4822,-0.436,-0.4583,-0.4734,-0.4533,-0.4935,-0.5035,-0.4533,-0.5236,-0.5586,-0.5288,-0.5436,-0.5784,-0.6287,-0.528,-0.4829,-0.5029,-0.4134,-0.3489,-0.318,-0.2977,-0.2775,-0.2575,-0.2271,-0.2271,-0.2625,-0.2826,-0.2876,-0.2927,-0.3481,-0.3682,-0.3732,-0.4033,-0.4334,-0.4483,-0.4483,-0.4634,-0.4784,-0.4784,-0.4784,-0.4784,0.0,0.0,0.0,0.0,0.0,0.0,0.0,0.0,0.0,0.0,0.0,0.0,0.0,0.0,0.0,0.0,0.0,0.0,-0.8533,-0.8699,-0.8646,-0.8268,-0.8427,-0.835,-0.8009,-0.8352,-0.8552,-0.8545,-0.806,-0.7582,-0.7093,-0.7093,-0.6905,-0.6517,-0.6105,-0.5914,-0.5887,-0.5485,-0.5297,-0.5297,-0.5297,-0.5297,0.0,0.0,0.0,0.0,0.0,0.0,0.0,0.0,-0.5022,-0.4691,-0.4691,-0.4605,-0.4411,-0.4107,-0.4411,-0.4825,-0.455,-0.4356,-0.4194,-0.4013,-0.375,-0.3466,-0.3266,-0.3475,-0.3754,-0.3901,-0.4032,-0.4067,-0.4083,-0.4102,-0.4067,-0.3933,-0.432,-0.4522,-0.4264,-0.4583,-0.4784,-0.4784,-0.4784,-0.4784,-0.4784,-0.4784,-0.5035,-0.5589,-0.5109,-0.5241,-0.6333,-0.5298,-0.4789,-0.4993,-0.4473,-0.3997,-0.3701,-0.3522,-0.3531,-0.3682,-0.3177,-0.3026,-0.323,-0.3381,-0.3432,-0.3481,-0.4033,-0.4234,-0.4282,-0.4634,-0.4784,-0.4784,-0.4784,-0.4784,-0.4784,-0.4784,-0.4784,-0.4784,0.0,0.0,0.0,0.0,0.0,0.0,0.0,0.0,0.0,0.0,0.0,0.0,0.0,0.0,0.0,0.0,0.0,0.0,-0.7925,-0.8448,-0.8268,-0.7139,-0.761,-0.7637,-0.7112,-0.7085,-0.7366,-0.7986,-0.7628,-0.7027,-0.6182,-0.6182,-0.5859,-0.5297,-0.5297,-0.5297,-0.5297,-0.5297,-0.5297,-0.5297,-0.5297,-0.5297,-0.5297,0.0,0.0,0.0,0.0,0.0,0.0,0.0,-0.5022,-0.4688,-0.4688,-0.4384,-0.3993,-0.3993,-0.3996,-0.3996,-0.3996,-0.4328,-0.4507,-0.3706,-0.3941,-0.4243,-0.3656,-0.371,-0.3977,-0.4246,-0.4302,-0.4275,-0.4235,-0.4244,-0.4361,-0.4592,-0.4651,-0.4738,-0.4772,-0.4782,-0.4782,-0.4782,-0.4782,-0.4782,-0.4782,-0.4782,-0.4782,-0.4782,-0.4755,-0.4708,-0.4708,-0.462,-0.4619,-0.4621,-0.4659,-0.4706,-0.4708,-0.4246,-0.4282,-0.4784,-0.4284,-0.3732,-0.323,-0.3783,-0.4033,-0.4033,-0.4583,-0.4784,-0.4784,-0.4784,-0.4784,-0.4784,-0.4784,-0.4784,-0.4784,-0.4784,-0.4784,-0.4784,0.0,0.0,0.0,0.0,0.0,0.0,0.0,0.0,0.0,0.0,0.0,0.0,0.0,0.0,0.0,0.0,0.0,0.0,-0.7898,-0.7723,-0.7461,-0.7112,-0.7241,-0.7074,-0.648,-0.6055,-0.6142,-0.6728,-0.6202,-0.5816,-0.5567,-0.5567,-0.5458,-0.5297,-0.5297,-0.5297,-0.5297,-0.5297,-0.5297,-0.5297,-0.5297,-0.5297,-0.5297,0.0,0.0,0.0,0.0,0.0,0.0,0.0,0.0,0.0,-0.4218,-0.4104,-0.3941,-0.3663,-0.4024,-0.4494,-0.4494,-0.4179,-0.3902,-0.4078,-0.3954,-0.3788,-0.3839,-0.3897,-0.4089,-0.4422,-0.444,-0.4408,-0.4447,-0.4422,-0.4455,-0.4638,-0.4692,-0.4738,-0.4772,-0.4783,-0.4747,-0.4747,-0.4689,-0.4651,-0.4651,-0.4651,-0.4651,-0.4651,-0.4626,-0.4614,-0.4614,-0.4526,-0.4506,-0.4619,-0.4536,-0.4577,-0.4708,-0.4538,-0.4577,-0.4784,-0.4634,-0.4483,-0.4334,-0.4483,-0.4583,-0.4583,-0.4734,-0.4784,-0.4784,-0.4784,-0.4784,-0.4784,-0.4784,-0.4784,-0.4784,-0.4784,-0.4784,-0.4784,0.0,0.0,0.0,0.0,0.0,0.0,0.0,0.0,0.0,0.0,-0.8804,-0.8804,0.0,0.0,0.0,0.0,0.0,0.0,0.0,-0.716,-0.6896,-0.6408,-0.662,-0.6458,-0.5864,-0.5485,-0.5485,-0.5832,-0.5485,-0.5297,-0.5297,-0.5297,-0.5297,-0.5297,-0.5297,-0.5297,-0.5297,-0.5297,-0.5297,-0.5297,-0.5297,-0.5297,-0.5297,0.0,0.0,0.0,0.0,0.0,0.0,0.0,0.0,0.0,-0.4162,-0.3913,-0.3497,-0.3608,-0.3885,-0.4218,-0.4384,-0.4264,-0.4109,-0.4144,-0.4112,-0.4105,-0.413,-0.4206,-0.4355,-0.4536,-0.4557,-0.4551,-0.4569,-0.4557,-0.4579,-0.4692,-0.4708,-0.4726,-0.4777,-0.471,-0.4655,-0.4655,-0.4606,-0.4621,-0.4621,-0.4621,-0.4621,-0.4621,-0.4538,-0.4518,-0.4518,-0.443,-0.4406,-0.4461,-0.4444,-0.4441,-0.46,-0.4636,-0.4679,-0.473,-0.4767,-0.4783,-0.4785,-0.4768,-0.4784,-0.4784,-0.4784,-0.4784,-0.4784,-0.4784,-0.4784,-0.4784,-0.4784,-0.4784,-0.4784,-0.4784,-0.4784,-0.4784,0.0,0.0,0.0,0.0,0.0,0.0,0.0,0.0,0.0,0.0,-0.8752,-0.8725,0.0,0.0,0.0,0.0,0.0,0.0,0.0,0.0,-0.6436,-0.5352,-0.5832,-0.5859,-0.5301,-0.5297,-0.5297,-0.5297,-0.5297,-0.5297,-0.5297,-0.5297,-0.5297,-0.5297,-0.5297,-0.5297,-0.5297,-0.5297,-0.5297,-0.5297,-0.5297,-0.5297,-0.5297,-0.5274,0.0,0.0,0.0,0.0,0.0,0.0,0.0,0.0,-0.4356,-0.3747,-0.2914,-0.3716,-0.3719,-0.3552,-0.3941,-0.4497,-0.4772,-0.413,-0.4499,-0.4895,-0.4478,-0.4571,-0.4677,-0.461,-0.4657,-0.4683,-0.46,-0.4647,-0.4696,-0.4696,-0.4696,-0.4696,-0.4696,-0.4618,-0.4559,-0.4559,-0.46,-0.4594,-0.4594,-0.4588,-0.4583,-0.4583,-0.4451,-0.4352,-0.4352,-0.4328,-0.4287,-0.4287,-0.4375,-0.438,-0.4388,-0.4518,-0.461,-0.4621,-0.4657,-0.4696,-0.47,-0.4742,-0.4784,-0.4784,-0.4784,-0.4784,-0.4784,-0.4784,-0.4784,-0.4784,-0.4784,-0.4784,-0.4784,-0.4784,-0.4784,-0.4784,0.0,0.0,0.0,0.0,0.0,0.0,0.0,0.0,0.0,0.0,0.0,0.0,0.0,0.0,0.0,0.0,0.0,0.0,0.0,0.0,-0.5567,-0.5301,-0.5434,-0.5434,-0.5297,-0.5297,-0.5297,-0.5297,-0.5297,-0.5297,-0.5297,-0.5297,-0.5297,-0.5297,-0.5297,-0.5297,-0.5297,-0.5297,-0.5297,-0.5297,-0.5297,-0.5297,-0.5274,-0.4939,-0.4774,0.0,0.0,0.0,0.0,0.0,0.0,0.0,-0.3719,-0.3469,-0.3274,-0.3469,-0.3691,-0.3968,-0.4439,-0.4545,-0.4623,-0.5032,-0.5101,-0.4939,-0.4507,-0.4522,-0.4634,-0.4753,-0.4741,-0.4702,-0.4683,-0.4636,-0.4602,-0.4602,-0.4602,-0.4602,-0.4602,-0.4522,-0.4465,-0.4465,-0.4402,-0.4357,-0.4357,-0.4297,-0.4303,-0.4303,-0.4173,-0.4079,-0.4079,-0.4171,-0.4243,-0.4243,-0.4283,-0.4363,-0.4388,-0.4408,-0.45,-0.4621,-0.4591,-0.4602,-0.4608,-0.4763,-0.4784,-0.4784,-0.4784,-0.4784,-0.4784,-0.4784,-0.4784,-0.4784,-0.4784,-0.4784,-0.4784,-0.4784,-0.4784,-0.4784,0.0,0.0,0.0,0.0,0.0,0.0,0.0,0.0,0.0,0.0,0.0,0.0,0.0,0.0,0.0,0.0,0.0,0.0,0.0,0.0,-0.5297,-0.5297,-0.5297,-0.5297,-0.5297,-0.5297,-0.5297,-0.5297,-0.5297,-0.5297,-0.5297,-0.5297,-0.5297,-0.5297,-0.5297,-0.5297,-0.5297,-0.5297,-0.5297,-0.5297,-0.5297,-0.5297,-0.5246,-0.4853,-0.455,-0.4384,-0.4605,0.0,0.0,0.0,0.0,0.0,0.0,0.0,-0.3413,-0.3413,-0.3691,-0.4107,-0.4577,-0.4915,-0.5154,-0.5305,-0.5198,-0.5006,-0.4912,-0.4671,-0.4639,-0.5114,-0.4913,-0.4645,-0.4645,-0.4606,-0.4621,-0.4621,-0.45,-0.4442,-0.4442,-0.4326,-0.42,-0.42,-0.4158,-0.4173,-0.4173,-0.4132,-0.4108,-0.4108,-0.4021,-0.3994,-0.3994,-0.4081,-0.4108,-0.4108,-0.4148,-0.4152,-0.42,-0.42,-0.4289,-0.4427,-0.4422,-0.4487,-0.4625,-0.4712,-0.4775,-0.4777,-0.4766,-0.4784,-0.4784,-0.4784,-0.4784,-0.4784,-0.4784,-0.4784,-0.4784,-0.4784,-0.4784,-0.4784,0.0,0.0,0.0,0.0,0.0,0.0,0.0,0.0,0.0,0.0,0.0,0.0,0.0,0.0,0.0,0.0,0.0,0.0,0.0,0.0,0.0,-0.5297,-0.5297,-0.5297,-0.5297,-0.5297,-0.5297,-0.5297,-0.5297,-0.5297,-0.5297,-0.5297,-0.5297,-0.5297,-0.5297,-0.5297,-0.5297,-0.5297,-0.5297,-0.5297,-0.5297,-0.5246,-0.516,-0.4743,-0.4301,-0.3941,-0.4328,-0.4024,-0.3497,-0.4245,0.0,0.0,0.0,0.0,-0.3302,-0.3385,-0.3691,-0.4107,-0.4577,-0.5318,-0.5841,-0.5386,-0.519,-0.5108,-0.5236,-0.4792,-0.4524,-0.5198,-0.4933,-0.4545,-0.4528,-0.4561,-0.4544,-0.4481,-0.4353,-0.4253,-0.4253,-0.4085,-0.3994,-0.3994,-0.3994,-0.3994,-0.3994,-0.398,-0.397,-0.397,-0.3956,-0.3948,-0.3948,-0.3962,-0.397,-0.397,-0.3986,-0.3994,-0.3994,-0.3994,-0.4073,-0.4151,-0.4236,-0.4365,-0.4528,-0.462,-0.4679,-0.4712,-0.4781,-0.477,-0.4784,-0.4784,-0.4784,-0.4784,-0.4784,-0.4784,-0.4784,-0.4784,-0.4784,-0.4784,0.0,0.0,0.0,0.0,0.0,0.0,0.0,0.0,0.0,0.0,-0.6696,-0.6317,0.0,0.0,0.0,0.0,0.0,0.0,-0.5297,0.0,0.0,-0.5297,-0.5297,-0.5297,-0.5297,-0.5297,-0.5297,-0.5297,-0.5297,-0.5297,-0.5297,-0.5297,-0.5297,-0.5297,-0.5297,-0.5297,-0.5297,-0.5297,-0.5297,-0.5297,-0.5297,-0.5105,-0.4715,-0.4273,-0.383,-0.3497,-0.3552,-0.3497,-0.3413,-0.3524,-0.3524,0.0,0.0,0.0,-0.2886,-0.3274,-0.3691,-0.4107,-0.4577,-0.5428,-0.6053,-0.5645,-0.5488,-0.5323,-0.4905,-0.4397,-0.4093,-0.4189,-0.4336,-0.4428,-0.4351,-0.4275,-0.42,-0.412,-0.4045,-0.4029,-0.4029,-0.4008,-0.3994,-0.3994,-0.3994,-0.3994,-0.3994,-0.3965,-0.3918,-0.3918,-0.3844,-0.3839,-0.3839,-0.3875,-0.3918,-0.3918,-0.3954,-0.3994,-0.3994,-0.3994,-0.4,-0.4012,-0.4146,-0.424,-0.4338,-0.443,-0.4559,-0.471,-0.472,-0.4767,-0.4784,-0.4784,-0.4784,-0.4784,-0.4784,-0.4784,-0.4784,-0.4784,-0.4784,-0.4784,0.0,0.0,0.0,0.0,0.0,0.0,0.0,0.0,0.0,0.0,0.0,-0.57,0.0,0.0,0.0,-0.5297,-0.5297,-0.5297,-0.5297,-0.5297,-0.5297,-0.5297,-0.5297,-0.5297,-0.5297,-0.5297,-0.5297,-0.5297,-0.5297,-0.5207,-0.501,-0.501,-0.501,-0.501,-0.501,-0.501,-0.5035,-0.5227,-0.5297,-0.5297,-0.5297,-0.505,-0.4664,-0.4187,-0.3747,-0.3441,-0.3663,-0.3744,-0.3744,-0.3744,-0.3913,-0.3968,-0.2998,0.0,0.0,0.0,-0.3524,-0.3844,-0.465,-0.5088,-0.5244,-0.5075,-0.4937,-0.4806,-0.4671,-0.4206,-0.3899,-0.435,-0.4261,-0.4079,-0.414,-0.4122,-0.4083,-0.4,-0.3952,-0.3959,-0.3959,-0.3831,-0.3766,-0.3766,-0.3726,-0.3736,-0.3736,-0.3699,-0.3675,-0.3675,-0.3638,-0.3616,-0.3616,-0.3699,-0.3746,-0.3746,-0.3836,-0.3883,-0.3883,-0.3883,-0.391,-0.3961,-0.4104,-0.4237,-0.4232,-0.4318,-0.4459,-0.4634,-0.4687,-0.4757,-0.4784,-0.4784,-0.4784,-0.4784,-0.4784,-0.4784,-0.4784,-0.4784,-0.4784,-0.4784,0.0,0.0,0.0,0.0,0.0,0.0,0.0,0.0,0.0,0.0,0.0,0.0,0.0,0.0,0.0,0.0,-0.5297,-0.5297,-0.5297,-0.5297,-0.5297,-0.5297,-0.5297,-0.5297,-0.5297,-0.5297,-0.5242,-0.516,-0.516,-0.4971,-0.4594,-0.4523,-0.4497,-0.4497,-0.4764,-0.486,-0.4815,-0.5217,-0.5337,-0.5297,-0.5187,-0.4884,-0.4467,-0.4024,-0.358,-0.3274,-0.3552,-0.3663,-0.3663,-0.3663,-0.3913,-0.4024,-0.3023,-0.2942,0.0,0.0,0.0,-0.3599,-0.4514,-0.465,-0.4545,-0.4683,-0.446,-0.4264,-0.4528,-0.4054,-0.3725,-0.4322,-0.4058,-0.3738,-0.3875,-0.3877,-0.3883,-0.3863,-0.3842,-0.3797,-0.3797,-0.3679,-0.3558,-0.3558,-0.3538,-0.3499,-0.3499,-0.3499,-0.3499,-0.3499,-0.3499,-0.3499,-0.3499,-0.356,-0.3558,-0.3558,-0.3661,-0.3734,-0.3734,-0.3756,-0.3785,-0.3901,-0.4061,-0.4151,-0.422,-0.4261,-0.4385,-0.4542,-0.4634,-0.4734,-0.4784,-0.4784,-0.4784,-0.4784,-0.4784,-0.4784,-0.4784,-0.4784,-0.4784,-0.4784,0.0,0.0,0.0,0.0,0.0,0.0,0.0,0.0,0.0,0.0,0.0,0.0,-0.5297,-0.5297,-0.5297,-0.5297,-0.5297,-0.5297,-0.5297,-0.5297,-0.5297,-0.5297,-0.5297,0.0,-0.5297,-0.5297,-0.5105,-0.4743,-0.4743,-0.4498,-0.4036,-0.3784,-0.3676,-0.3707,-0.4652,-0.4991,-0.4822,-0.5366,-0.5474,-0.5274,-0.4884,-0.4439,-0.3993,-0.358,-0.3137,-0.2747,-0.2747,-0.2775,-0.2775,-0.2775,-0.2775,-0.2802,-0.2719,-0.2719,-0.2747,0.0,0.0,0.0,-0.3922,-0.4185,-0.4432,-0.4879,-0.4442,-0.4038,-0.4493,-0.3989,-0.3414,-0.3453,-0.3488,-0.3518,-0.3526,-0.3593,-0.3582,-0.354,-0.3524,-0.3522,-0.3522,-0.3514,-0.3505,-0.3505,-0.3503,-0.3499,-0.3499,-0.3499,-0.3499,-0.3499,-0.3499,-0.3499,-0.3499,-0.3503,-0.3505,-0.3505,-0.3511,-0.3514,-0.3514,-0.3593,-0.3722,-0.3901,-0.3956,-0.4089,-0.422,-0.4261,-0.4351,-0.4402,-0.454,-0.4675,-0.4784,-0.4784,-0.4784,-0.4784,-0.4784,-0.4784,-0.4784,-0.4784,-0.4784,-0.4784,0.0,0.0,0.0,0.0,0.0,0.0,0.0,0.0,0.0,0.0,0.0,0.0,0.0,-0.5297,-0.5297,-0.5297,-0.5297,-0.5297,-0.5297,-0.5297,-0.5297,-0.5297,-0.505,-0.4912,-0.4912,-0.4632,-0.4384,-0.4245,-0.4245,-0.4067,-0.3671,-0.3618,-0.3478,-0.3324,-0.433,-0.4658,-0.4515,-0.5279,-0.5482,-0.5274,-0.4857,-0.4411,-0.3968,-0.3552,-0.3107,-0.2747,-0.3051,-0.3137,-0.3137,-0.3137,-0.3137,-0.3107,-0.2802,-0.2691,-0.2691,-0.2691,-0.283,-0.3051,-0.3497,-0.3442,-0.3385,-0.3866,-0.3794,-0.3615,-0.3464,-0.3482,-0.3453,-0.3198,-0.316,-0.3183,-0.3183,-0.3367,-0.3536,-0.3505,-0.3499,-0.3499,-0.3499,-0.345,-0.3391,-0.3332,-0.3273,-0.3213,-0.3189,-0.3203,-0.3238,-0.3238,-0.3291,-0.3289,-0.3289,-0.3381,-0.3449,-0.3449,-0.3469,-0.3499,-0.3499,-0.3583,-0.3621,-0.3726,-0.3895,-0.401,-0.4089,-0.4234,-0.4349,-0.439,-0.4469,-0.4587,-0.4757,-0.4762,-0.4784,-0.4784,-0.4784,-0.4784,-0.4784,-0.4784,-0.4784,-0.4784,0.0,0.0,0.0,0.0,0.0,0.0,0.0,0.0,0.0,0.0,0.0,0.0,0.0,0.0,-0.5297,-0.5297,-0.5297,-0.5297,-0.5297,-0.516,-0.5105,-0.5105,-0.4688,-0.4467,-0.4467,-0.4162,-0.3938,-0.3799,-0.3799,-0.3611,-0.3267,-0.3366,-0.3281,-0.3123,-0.3985,-0.4264,-0.4138,-0.5247,-0.5367,-0.4825,-0.4577,-0.419,-0.3747,-0.333,-0.2968,-0.2747,-0.3051,-0.3163,-0.3163,-0.3163,-0.3163,-0.3107,-0.2802,-0.2691,-0.2691,-0.2691,-0.2691,-0.2775,-0.3081,-0.2942,-0.2802,-0.3274,-0.33,-0.3184,-0.304,-0.3171,-0.3241,-0.3002,-0.2964,-0.3015,-0.3015,-0.3185,-0.3316,-0.3316,-0.3316,-0.3316,-0.3316,-0.3298,-0.3236,-0.3142,-0.3083,-0.3053,-0.2991,-0.304,-0.3076,-0.3076,-0.3101,-0.3136,-0.3136,-0.3255,-0.3319,-0.3316,-0.3377,-0.3424,-0.3454,-0.354,-0.356,-0.3592,-0.3833,-0.3964,-0.3998,-0.4189,-0.4306,-0.4346,-0.4376,-0.4491,-0.4712,-0.4769,-0.476,-0.4784,-0.4784,-0.4784,-0.4784,-0.4784,-0.4784,-0.4784,0.0,0.0,0.0,0.0,0.0,0.0,0.0,0.0,-0.5297,-0.5297,0.0,0.0,0.0,0.0,0.0,-0.5313,-0.5309,-0.5309,-0.5309,-0.4939,-0.4719,-0.4691,-0.4245,-0.3996,-0.3971,-0.3971,-0.378,-0.3396,-0.3396,-0.3197,-0.2802,-0.2948,-0.3036,-0.3123,-0.3665,-0.3793,-0.3684,-0.5207,-0.5148,-0.3993,-0.3993,-0.3747,-0.3357,-0.2884,-0.2691,-0.2691,-0.2691,-0.2691,-0.2691,-0.2691,-0.2691,-0.2691,-0.2691,-0.2691,-0.2691,-0.2691,-0.2691,-0.2691,0.0,0.0,0.0,-0.3274,-0.3051,-0.283,-0.3274,-0.3101,-0.2823,-0.2794,-0.2889,-0.2977,-0.2977,-0.2977,-0.2977,-0.2977,-0.2981,-0.3015,-0.3015,-0.3015,-0.3013,-0.2981,-0.2981,-0.2979,-0.2977,-0.2979,-0.2981,-0.2981,-0.2983,-0.3015,-0.3015,-0.3074,-0.3132,-0.3186,-0.3192,-0.3271,-0.3393,-0.3452,-0.354,-0.3586,-0.3812,-0.3948,-0.3996,-0.413,-0.422,-0.4304,-0.4346,-0.4487,-0.4702,-0.4706,-0.4757,-0.478,-0.4782,-0.4784,-0.4784,-0.4784,-0.4784,-0.4784,0.0,0.0,0.0,0.0,0.0,0.0,-0.5325,-0.5297,-0.5297,0.0,0.0,0.0,-0.5498,-0.5661,-0.5742,-0.5742,-0.5587,-0.551,-0.551,-0.5282,-0.4994,-0.4719,-0.4245,-0.3873,-0.365,-0.3307,-0.311,-0.312,-0.312,-0.3043,-0.2952,-0.3043,-0.3098,-0.3123,-0.3665,-0.3636,-0.3223,-0.4284,-0.4464,-0.3965,-0.3691,-0.3497,-0.3357,-0.2884,-0.2691,-0.2691,-0.2691,-0.2691,-0.2691,-0.2691,-0.2691,-0.2691,-0.2691,-0.2691,-0.2691,-0.2691,-0.2691,-0.2691,-0.2691,0.0,0.0,0.0,0.0,0.0,-0.2942,-0.3074,-0.3152,-0.2784,-0.2748,-0.2793,-0.2793,-0.2793,-0.2793,-0.2793,-0.29,-0.3015,-0.3015,-0.3015,-0.2962,-0.2868,-0.2862,-0.2836,-0.2799,-0.2823,-0.2862,-0.2862,-0.295,-0.3015,-0.3015,-0.3074,-0.3101,-0.3128,-0.3158,-0.3206,-0.3264,-0.3422,-0.3511,-0.3538,-0.3783,-0.3948,-0.3996,-0.413,-0.422,-0.43,-0.4324,-0.4402,-0.4475,-0.4655,-0.4722,-0.4749,-0.476,-0.4784,-0.4784,-0.4784,-0.4784,-0.4784,0.0,0.0,0.0,0.0,0.0,-0.5297,-0.5297,-0.5297,-0.5325,0.0,0.0,0.0,-0.5705,-0.5823,-0.5888,-0.5888,-0.5791,-0.5726,-0.5726,-0.543,-0.5142,-0.4912,-0.4275,-0.3818,-0.3624,-0.315,-0.2935,-0.3015,-0.3015,-0.3005,-0.3043,-0.3096,-0.3109,-0.3144,-0.3416,-0.3315,-0.3038,-0.346,-0.3555,-0.3469,-0.3413,-0.3274,-0.3081,-0.2802,-0.2691,-0.2691,-0.2691,-0.2691,-0.2691,-0.2691,-0.2691,-0.2691,-0.2691,-0.2691,-0.2691,-0.2691,-0.2691,-0.2691,0.0,-0.2691,-0.2691,-0.2691,0.0,0.0,-0.2775,-0.2914,-0.3023,-0.2747,-0.2691,-0.2691,-0.2691,-0.2691,-0.2691,-0.2691,-0.2805,-0.2873,-0.2873,-0.2873,-0.2855,-0.2777,-0.277,-0.275,-0.2697,-0.274,-0.277,-0.277,-0.2845,-0.289,-0.2929,-0.3016,-0.3082,-0.3089,-0.3179,-0.3192,-0.3192,-0.3371,-0.3462,-0.3501,-0.3695,-0.3852,-0.3983,-0.4073,-0.4163,-0.4249,-0.4283,-0.433,-0.4389,-0.4534,-0.4618,-0.4661,-0.4747,-0.4781,-0.4785,-0.4772,-0.4784,-0.4784,0.0,0.0,-0.6023,-0.5489,-0.5352,-0.5297,-0.5297,-0.5317,-0.5409,0.0,-0.5644,-0.5734,-0.59,-0.5937,-0.5949,-0.5949,-0.5929,-0.5947,-0.5947,-0.5533,-0.5245,-0.5214,-0.433,-0.3847,-0.3799,-0.3276,-0.3005,-0.3016,-0.3016,-0.3057,-0.3105,-0.3105,-0.3148,-0.3184,-0.3067,-0.3015,-0.2972,-0.2795,-0.2691,-0.2747,-0.3165,-0.3081,-0.2691,-0.2691,-0.2691,-0.2691,-0.2691,-0.2691,-0.2691,-0.2691,-0.2691,-0.2691,-0.2691,-0.2691,-0.2691,-0.2691,-0.2691,-0.2691,-0.2691,0.0,0.0,-0.2691,-0.2691,0.0,-0.2691,-0.2691,-0.2691,-0.2691,-0.2691,-0.2691,-0.2691,-0.2691,-0.2691,-0.2691,-0.2691,-0.2691,-0.2691,-0.2691,-0.2691,-0.2691,-0.2691,-0.2691,-0.2691,-0.2691,-0.2691,-0.2691,-0.2691,-0.273,-0.2792,-0.2937,-0.3026,-0.3087,-0.3179,-0.3192,-0.3192,-0.3318,-0.3445,-0.3501,-0.3585,-0.3722,-0.3903,-0.3942,-0.4075,-0.422,-0.4253,-0.4291,-0.4306,-0.4342,-0.4475,-0.4565,-0.4659,-0.47,-0.4718,-0.4742,-0.4776,-0.4784,0.0,-0.6539,-0.6154,-0.6046,-0.5618,-0.5297,-0.5297,-0.5442,-0.5543,-0.5608,-0.589,-0.6086,-0.6122,-0.6225,-0.6314,-0.6314,-0.6212,-0.6126,-0.6126,-0.5904,-0.5582,-0.5214,-0.4604,-0.4162,-0.3887,-0.3348,-0.3099,-0.3173,-0.3173,-0.3183,-0.3168,-0.3168,-0.3176,-0.3184,-0.3067,-0.3015,-0.2972,-0.2795,-0.2691,-0.2719,-0.2802,-0.2775,-0.2691,-0.2691,-0.2691,-0.2691,-0.2691,-0.2691,-0.2691,-0.2691,-0.2691,-0.2691,-0.2691,-0.2691,-0.2691,-0.2691,-0.2691,-0.2691,-0.2691,-0.2691,-0.2691,-0.2691,-0.2691,0.0,-0.2691,-0.2691,-0.2691,-0.2691,-0.2691,-0.2691,-0.2691,-0.2691,-0.2691,-0.2691,-0.2691,-0.2691,-0.2691,-0.2691,-0.2691,-0.2691,-0.2691,-0.2691,-0.2691,-0.2691,-0.2691,-0.2691,-0.2691,-0.273,-0.2792,-0.2937,-0.3026,-0.3087,-0.3179,-0.3192,-0.3192,-0.3318,-0.3445,-0.3501,-0.3585,-0.3722,-0.3899,-0.3918,-0.4016,-0.4216,-0.4235,-0.4236,-0.43,-0.4318,-0.4379,-0.4471,-0.4563,-0.4645,-0.471,-0.4728,-0.4775,-0.4784,-0.6273,-0.5973,-0.5755,-0.5755,-0.5588,-0.5454,-0.5454,-0.5632,-0.5778,-0.5894,-0.6147,-0.6314,-0.6314,-0.6363,-0.6387,-0.6387,-0.6335,-0.6314,-0.6314,-0.6201,-0.5927,-0.5417,-0.4871,-0.4394,-0.3974,-0.3418,-0.3181,-0.3192,-0.3192,-0.3192,-0.3192,-0.3192,-0.3192,-0.3186,-0.3083,-0.3053,-0.3045,-0.2908,-0.2851,-0.2842,-0.2728,-0.2691,-0.2691,-0.2691,-0.2691,-0.2691,-0.2691,-0.2691,-0.2691,-0.2691,-0.2691,-0.2691,-0.2691,-0.2691,-0.2691,-0.2691,-0.2691,-0.2691,-0.2691,-0.2691,-0.2691,-0.2691,-0.2691,0.0,0.0,-0.2691,-0.2691,-0.2691,-0.2691,-0.2691,-0.2691,-0.2691,-0.2691,-0.2691,-0.2691,-0.2691,-0.2691,-0.2691,-0.2691,-0.2691,-0.2691,-0.2691,-0.2691,-0.2691,-0.2691,-0.2691,-0.2691,-0.273,-0.2792,-0.2937,-0.3026,-0.3087,-0.3179,-0.3192,-0.3192,-0.3273,-0.3365,-0.3499,-0.3542,-0.3658,-0.3834,-0.3879,-0.3975,-0.4108,-0.4153,-0.4222,-0.43,-0.43,-0.4326,-0.4377,-0.4467,-0.4532,-0.4577,-0.4624,-0.4667,-0.471,-0.5407,-0.5297,-0.5297,-0.5297,-0.547,-0.5612,-0.5612,-0.5795,-0.6029,-0.6208,-0.6327,-0.635,-0.6251,-0.6251,-0.6218,-0.6115,-0.6083,-0.6148,-0.6251,-0.6251,-0.6083,-0.5782,-0.515,-0.4586,-0.4159,-0.3527,-0.3192,-0.3192,-0.3192,-0.3192,-0.3192,-0.3192,-0.3192,-0.3188,-0.3132,-0.3091,-0.3085,-0.3024,-0.3015,-0.2972,-0.2828,-0.277,-0.2768,-0.2723,-0.2717,-0.2715,-0.2697,-0.2691,-0.2691,-0.2691,-0.2691,-0.2691,-0.2691,-0.2691,-0.2691,-0.2691,-0.2691,-0.2691,-0.2691,-0.2691,-0.2691,-0.2691,-0.2691,-0.2691,0.0,0.0,0.0,-0.2691,-0.2691,-0.2691,-0.2691,-0.2691,-0.2691,-0.2691,-0.2691,-0.2691,-0.2691,-0.2691,-0.2691,-0.2691,-0.2691,-0.2691,-0.2691,-0.2691,-0.2691,-0.2691,-0.2691,-0.2738,-0.2846,-0.2948,-0.3036,-0.3113,-0.3187,-0.3192,-0.3192,-0.3192,-0.3309,-0.3475,-0.3491,-0.3583,-0.3779,-0.3832,-0.3924,-0.3972,-0.4106,-0.4195,-0.4275,-0.4293,-0.43,-0.4306,-0.4379,-0.4374,-0.4398,-0.4567,-0.4651,-0.4681,-0.5301,-0.5297,-0.5297,-0.5297,-0.547,-0.5612,-0.5612,-0.5931,-0.6212,-0.6363,-0.6404,-0.6218,-0.5749,-0.5683,-0.5514,-0.5014,-0.4981,-0.518,-0.565,-0.5683,-0.5885,-0.6284,-0.5348,-0.4782,-0.4716,-0.3723,-0.3192,-0.3192,-0.3192,-0.3192,-0.3192,-0.3192,-0.3192,-0.3188,-0.3132,-0.3091,-0.3085,-0.3024,-0.3015,-0.3013,-0.2962,-0.2954,-0.2946,-0.284,-0.2782,-0.2772,-0.2719,-0.2691,-0.2691,-0.2691,-0.2691,-0.2691,-0.2691,-0.2691,-0.2691,-0.2691,-0.2691,-0.2691,-0.2691,-0.2691,-0.2691,-0.2691,-0.2691,-0.2691,-0.2691,0.0,-0.2691,-0.2691,0.0,-0.2691,-0.2691,0.0,0.0,-0.2691,-0.2691,-0.2691,-0.2691,-0.2691,-0.2691,-0.2691,-0.2691,-0.2691,-0.2691,-0.2691,-0.2691,-0.2691,-0.2691,-0.2793,-0.2962,-0.2979,-0.3063,-0.3172,-0.3188,-0.3192,-0.3192,-0.3192,-0.3279,-0.3416,-0.346,-0.355,-0.3644,-0.3736,-0.3868,-0.392,-0.397,-0.4104,-0.4237,-0.4269,-0.43,-0.43,-0.431,-0.4363,-0.4436,-0.4682,-0.4829,-0.4912,-0.5297,-0.5297,-0.5329,-0.5458,-0.5653,-0.5807,-0.5935,-0.6171,-0.6331,-0.6408,-0.6387,-0.6317,-0.6083,-0.605,-0.5848,-0.5315,-0.5249,-0.5348,-0.558,-0.5617,-0.5547,-0.5481,-0.5348,-0.4815,-0.3889,-0.3725,-0.3527,-0.3192,-0.3192,-0.3192,-0.3192,-0.3192,-0.3192,-0.319,-0.3187,-0.3169,-0.3166,-0.3128,-0.3111,-0.3111,-0.3111,-0.3111,-0.3097,-0.2954,-0.2901,-0.2925,-0.2886,-0.2873,-0.2873,-0.2873,-0.2873,-0.2873,-0.2873,-0.2809,-0.2768,-0.2768,-0.2734,-0.2691,-0.2691,-0.2691,-0.2691,-0.2691,-0.2691,-0.2691,-0.2691,-0.2691,-0.2691,-0.2691,0.0,0.0,0.0,0.0,0.0,0.0,-0.2691,-0.2691,-0.2691,-0.2691,-0.2691,-0.2691,-0.2691,-0.2691,-0.2691,-0.2691,-0.2691,-0.2691,-0.2691,-0.2797,-0.2974,-0.3015,-0.3069,-0.3186,-0.3192,-0.3192,-0.3192,-0.3192,-0.3299,-0.3444,-0.3483,-0.3573,-0.3707,-0.3783,-0.3853,-0.3906,-0.3954,-0.4087,-0.4222,-0.4444,-0.4525,-0.4525,-0.4656,-0.4636,-0.4585,-0.4723,-0.4836,-0.4975,-0.5361,-0.5369,-0.5434,-0.5559,-0.5803,-0.6049,-0.6224,-0.6331,-0.6387,-0.6387,-0.6387,-0.637,-0.6285,-0.608,-0.5767,-0.5272,-0.5073,-0.5017,-0.5153,-0.5282,-0.5216,-0.4815,-0.5315,-0.4921,-0.346,-0.3794,-0.3727,-0.3192,-0.3192,-0.3192,-0.3192,-0.3192,-0.3192,-0.3192,-0.3192,-0.3192,-0.3192,-0.3192,-0.3192,-0.3192,-0.3192,-0.3192,-0.3176,-0.3084,-0.3007,-0.3015,-0.3015,-0.3015,-0.3015,-0.3015,-0.3015,-0.3015,-0.3015,-0.2941,-0.2862,-0.2862,-0.2815,-0.2793,-0.2793,-0.2793,-0.2793,-0.2793,-0.2746,-0.2728,-0.2728,-0.2709,-0.2691,-0.2691,-0.2691,0.0,0.0,0.0,-0.2691,-0.2691,0.0,-0.2691,-0.2691,-0.2691,-0.2691,-0.2691,-0.2691,-0.2681,-0.2684,-0.2682,-0.2669,-0.2617,-0.264,-0.276,-0.2939,-0.2972,-0.3069,-0.3186,-0.3192,-0.3192,-0.3192,-0.3192,-0.3307,-0.3462,-0.3489,-0.3579,-0.3765,-0.3791,-0.3839,-0.3867,-0.3959,-0.4093,-0.4269,-0.4535,-0.4679,-0.4792,-0.4921,-0.4968,-0.4882,-0.4882,-0.4971,-0.5116,-0.5543,-0.5604,-0.5604,-0.5612,-0.5931,-0.6229,-0.6384,-0.6383,-0.6387,-0.6387,-0.6387,-0.6285,-0.5937,-0.5268,-0.4699,-0.4381,-0.368,-0.3493,-0.4028,-0.4553,-0.4815,-0.4815,-0.5315,-0.5087,-0.3995,-0.3995,-0.3727,-0.3192,-0.3192,-0.3192,-0.3192,-0.3192,-0.3192,-0.3192,-0.3192,-0.3192,-0.3192,-0.3192,-0.3192,-0.3192,-0.3192,-0.3192,-0.3182,-0.3122,-0.3061,-0.3015,-0.3015,-0.3015,-0.3015,-0.3015,-0.3015,-0.3015,-0.3015,-0.2983,-0.2981,-0.2981,-0.2979,-0.2977,-0.2977,-0.2977,-0.2977,-0.2977,-0.2883,-0.2794,-0.2794,-0.2754,-0.2691,-0.2691,-0.2691,-0.2691,-0.2691,-0.2691,0.0,0.0,-0.2691,0.0,0.0,-0.2691,-0.2691,-0.2691,-0.2691,-0.2684,-0.262,-0.2611,-0.2548,-0.2408,-0.2533,-0.2665,-0.2792,-0.2939,-0.3069,-0.3186,-0.3192,-0.3192,-0.3192,-0.3192,-0.3275,-0.3404,-0.3458,-0.3546,-0.3596,-0.3724,-0.3804,-0.3812,-0.3865,-0.4076,-0.4417,-0.4475,-0.4701,-0.501,-0.501,-0.5146,-0.5371,-0.5371,-0.5371,-0.5431,-0.5758,-0.5918,-0.5996,-0.5996,-0.6094,-0.6237,-0.6392,-0.6387,-0.6465,-0.6587,-0.6256,-0.6009,-0.5962,-0.5399,-0.4821,-0.4331,-0.403,-0.3934,-0.4108,-0.4204,-0.4256,-0.4256,-0.4785,-0.4553,-0.3493,-0.3828,-0.3727,-0.3192,-0.3192,-0.3192,-0.3192,-0.3192,-0.3192,-0.3192,-0.3192,-0.3192,-0.3192,-0.3192,-0.3192,-0.3192,-0.3192,-0.3192,-0.319,-0.3158,-0.3162,-0.3134,-0.3134,-0.3134,-0.3134,-0.3134,-0.3134,-0.3134,-0.3134,-0.3093,-0.3076,-0.3076,-0.3032,-0.3015,-0.3015,-0.3015,-0.3015,-0.3015,-0.2964,-0.2941,-0.2941,-0.2917,-0.2878,-0.2793,-0.2752,-0.2762,-0.2703,0.0,0.0,0.0,0.0,0.0,0.0,-0.2691,-0.2691,-0.2691,-0.2691,-0.2684,-0.2615,-0.2607,-0.2543,-0.24,-0.2529,-0.2661,-0.2788,-0.2937,-0.3069,-0.3186,-0.3192,-0.3192,-0.3192,-0.3287,-0.3362,-0.3454,-0.3542,-0.363,-0.3756,-0.3906,-0.3999,-0.4006,-0.4219,-0.4399,-0.4624,-0.4856,-0.5092,-0.528,-0.5416,-0.5508,-0.5597,-0.5463,-0.5463,-0.5626,-0.5975,-0.6098,-0.6207,-0.6207,-0.6233,-0.6314,-0.64,-0.6269,-0.6217,-0.6363,-0.592,-0.5649,-0.5795,-0.5252,-0.4727,-0.4474,-0.4128,-0.4048,-0.4257,-0.415,-0.4087,-0.412,-0.4542,-0.4287,-0.3226,-0.3727,-0.3727,-0.3192,-0.3192,-0.3192,-0.3192,-0.3192,-0.3192,-0.3192,-0.3192,-0.3192,-0.3192,-0.3192,-0.3192,-0.3192,-0.3192,-0.3192,-0.3192,-0.3192,-0.3192,-0.3192,-0.3192,-0.3192,-0.3192,-0.3192,-0.3192,-0.3192,-0.3192,-0.3185,-0.3138,-0.3138,-0.3097,-0.3082,-0.3082,-0.3082,-0.3082,-0.3082,-0.3057,-0.3034,-0.3034,-0.3007,-0.2968,-0.2883,-0.2818,-0.278,-0.275,-0.2713,0.0,0.0,0.0,0.0,0.0,-0.2691,-0.2691,-0.2691,-0.2691,-0.2642,-0.2543,-0.2531,-0.2494,-0.2374,-0.2454,-0.2599,-0.2786,-0.2937,-0.3069,-0.3186,-0.3192,-0.3192,-0.3192,-0.3318,-0.3445,-0.3501,-0.3585,-0.3713,-0.3921,-0.404,-0.4157,-0.4238,-0.4459,-0.4644,-0.4875,-0.5112,-0.5313,-0.5508,-0.5644,-0.5688,-0.5688,-0.5552,-0.5623,-0.5822,-0.6159,-0.6219,-0.6223,-0.6236,-0.631,-0.6387,-0.6428,-0.6064,-0.5793,-0.5807,-0.5449,-0.5252,-0.5461,-0.4795,-0.4437,-0.4659,-0.3949,-0.3762,-0.4331,-0.4227,-0.4196,-0.4258,-0.4552,-0.4253,-0.3226,-0.3694,-0.3694,-0.3192,-0.3192,-0.3192,-0.3192,-0.3192,-0.3192,-0.3192,-0.3192,-0.3194,-0.3198,-0.3198,-0.3198,-0.3198,-0.3194,-0.3192,-0.3192,-0.3192,-0.3192,-0.3192,-0.3192,-0.3192,-0.3192,-0.3192,-0.3192,-0.3192,-0.3192,-0.3192,-0.3192,-0.3192,-0.3192,-0.3192,-0.3192,-0.3192,-0.3192,-0.3192,-0.3162,-0.3097,-0.3097,-0.3061,-0.2997,-0.2991,-0.2897,-0.2808,-0.28,-0.2756,0.0,0.0,0.0,0.0,-0.2691,-0.2691,-0.2691,-0.2691,-0.2691,-0.2619,-0.2442,-0.2398,-0.2387,-0.2319,-0.2372,-0.2515,-0.2784,-0.2937,-0.3069,-0.3186,-0.3192,-0.3194,-0.3198,-0.3324,-0.3451,-0.3507,-0.3593,-0.3796,-0.4118,-0.4118,-0.4233,-0.4428,-0.4576,-0.4805,-0.5124,-0.5195,-0.54,-0.5688,-0.5688,-0.5691,-0.5696,-0.5696,-0.5814,-0.5928,-0.6314,-0.6351,-0.6388,-0.6551,-0.6473,-0.6461,-0.6591,-0.6169,-0.5902,-0.6135,-0.5269,-0.4716,-0.4952,-0.4395,-0.4037,-0.4103,-0.3878,-0.3743,-0.3819,-0.3663,-0.3607,-0.3639,-0.3612,-0.3491,-0.3192,-0.3326,-0.3326,-0.3192,-0.3192,-0.3192,-0.3192,-0.3192,-0.3192,-0.3192,-0.3192,-0.3264,-0.3364,-0.3364,-0.3364,-0.3356,-0.3254,-0.3192,-0.3192,-0.3192,-0.3192,-0.3192,-0.3192,-0.3192,-0.3192,-0.3192,-0.3192,-0.3192,-0.3192,-0.3192,-0.3192,-0.3192,-0.3192,-0.3192,-0.3192,-0.3192,-0.3192,-0.3192,-0.3176,-0.3158,-0.3158,-0.3173,-0.3138,-0.3068,-0.3038,-0.2983,-0.2822,-0.2778,-0.2768,0.0,0.0,0.0,-0.2691,-0.2691,-0.2691,-0.2691,-0.2691,-0.2673,-0.2556,-0.2545,-0.2506,-0.2389,-0.2492,-0.2609,-0.2786,-0.2937,-0.3069,-0.3186,-0.3192,-0.3258,-0.3362,-0.342,-0.3582,-0.3784,-0.3917,-0.4092,-0.4348,-0.4467,-0.4584,-0.4628,-0.4935,-0.5132,-0.5335,-0.5414,-0.5534,-0.5688,-0.5688,-0.5739,-0.5858,-0.5858,-0.5934,-0.6056,-0.6396,-0.6477,-0.6587,-0.68,-0.651,-0.6272,-0.6363,-0.6192,-0.5978,-0.5929,-0.5146,-0.4661,-0.4872,-0.4324,-0.3959,-0.3959,-0.3875,-0.3903,-0.4074,-0.3702,-0.3623,-0.3912,-0.3534,-0.3346,-0.3346,-0.3346,-0.3326,-0.3287,-0.3287,-0.3267,-0.3192,-0.3192,-0.3192,-0.3192,-0.3192,-0.3277,-0.3401,-0.3443,-0.3459,-0.3451,-0.3324,-0.3287,0.0,-0.3208,-0.3192,-0.3192,-0.3192,-0.3192,-0.3192,-0.3192,-0.3192,-0.3192,-0.3192,-0.3192,-0.3192,-0.3192,-0.3192,-0.3192,-0.3192,-0.3192,-0.3192,-0.3192,-0.3192,-0.3192,-0.3192,-0.3192,-0.3178,-0.316,-0.3117,-0.306,-0.296,-0.2849,-0.2768,-0.2705,0.0,0.0,-0.2697,-0.2725,-0.2736,-0.2697,-0.2691,-0.2698,-0.2647,-0.2605,-0.256,-0.2483,-0.2589,-0.2721,-0.2872,-0.2997,-0.3079,-0.3188,-0.3267,-0.3311,-0.3399,-0.3491,-0.3653,-0.3894,-0.4031,-0.4233,-0.4543,-0.4659,-0.474,-0.4828,-0.5151,-0.5347,-0.5424,-0.5516,-0.5626,-0.5694,-0.5742,-0.588,-0.5988,-0.6043,-0.6108,-0.6176,-0.6485,-0.6607,-0.6804,-0.6992,-0.6573,-0.6161,-0.611,-0.615,-0.5962,-0.5403,-0.5,-0.4804,-0.4851,-0.4367,-0.3994,-0.3994,-0.3963,-0.4114,-0.4553,-0.3982,-0.3852,-0.4455,-0.384,-0.3499,-0.3499,-0.3499,-0.346,-0.3416,-0.3406,-0.3356,-0.321,-0.321,-0.321,-0.3212,-0.3223,-0.3313,-0.3439,-0.3483,-0.3518,-0.3507,-0.3453,-0.3416,-0.3408,-0.3293,-0.3229,-0.3229,-0.3229,-0.3212,-0.3192,-0.3192,-0.3192,-0.3192,-0.3192,-0.3192,-0.3192,-0.3192,-0.3192,-0.3192,-0.3192,-0.3192,-0.3192,-0.3192,-0.3192,-0.3192,-0.3192,-0.3192,-0.3192,-0.3192,-0.3164,-0.3105,-0.3093,-0.2956,-0.2817,-0.2738,-0.2791,-0.2815,-0.2736,-0.2793,-0.2815,-0.2736,-0.2715,0.0,-0.2709,-0.2653,-0.2605,-0.2616,-0.2692,-0.2814,-0.2993,-0.308,-0.3132,-0.319,-0.3316,-0.3404,-0.3416,-0.3581,-0.3745,-0.3951,-0.4115,-0.4392,-0.474,-0.474,-0.482,-0.5029,-0.5265,-0.541,-0.5429,-0.5632,-0.5688,-0.5699,-0.5858,-0.5977,-0.6102,-0.6273,-0.6328,-0.629,-0.6865,-0.6918,-0.7,-0.7147,-0.7218,-0.7095,-0.672,-0.6051,-0.5395,-0.4973,-0.4796,-0.4566,-0.4224,-0.4078,-0.3994,-0.3994,-0.398,-0.3981,-0.3971,-0.3715,-0.3663,-0.3776,-0.3581,-0.3499,-0.3499,-0.3499,-0.3493,-0.3477,-0.3437,-0.3389,-0.3375,-0.3375,-0.3375,-0.3377,-0.3418,-0.3499,-0.3581,-0.356,-0.3566,-0.356,-0.3509,-0.3477,-0.3475,-0.3458,-0.3452,-0.3452,-0.3452,-0.3354,-0.3192,-0.3192,-0.3192,-0.3192,-0.3192,-0.3192,-0.3192,-0.3192,-0.3192,-0.3192,-0.3192,-0.3192,-0.3192,-0.3192,-0.3192,-0.3192,-0.3192,-0.3192,-0.3192,-0.3192,-0.318,-0.3179,-0.3103,-0.3034,-0.2956,-0.2941,-0.2952,-0.2956,-0.2939,-0.2952,-0.2956,-0.2939,-0.2846,-0.2774,-0.2774,-0.2719,-0.2699,-0.2774,-0.2766,-0.2881,-0.3056,-0.3083,-0.3132,-0.319,-0.3316,-0.3437,-0.3477,-0.3725,-0.4007,-0.4317,-0.4494,-0.4701,-0.4937,-0.4937,-0.4976,-0.5029,-0.5265,-0.541,-0.5429,-0.5632,-0.5688,-0.5699,-0.5858,-0.5977,-0.6102,-0.6273,-0.6328,-0.6407,-0.7058,-0.7094,-0.7179,-0.7456,-0.7293,-0.7113,-0.7035,-0.6596,-0.6066,-0.5505,-0.5105,-0.4772,-0.4596,-0.4231,-0.3994,-0.3994,-0.3952,-0.3908,-0.381,-0.3722,-0.3697,-0.3697,-0.3658,-0.3674,-0.3674,-0.3674,-0.3614,-0.3565,-0.3522,-0.3477,-0.347,-0.347,-0.347,-0.3438,-0.3526,-0.3587,-0.3592,-0.3677,-0.3697,-0.3689,-0.3601,-0.3565,-0.356,-0.3518,-0.3499,-0.3499,-0.3499,-0.3413,-0.3297,-0.3297,-0.3267,-0.3192,-0.3192,-0.3192,-0.3192,-0.3192,-0.3192,-0.3192,-0.3192,-0.3192,-0.3192,-0.3192,-0.3192,-0.3192,-0.3192,-0.3192,-0.3192,-0.3192,-0.3192,-0.3166,-0.3107,-0.3086,-0.304,-0.2991,-0.3024,-0.304,-0.2991,-0.3026,-0.3038,-0.2989,-0.301,-0.2983,-0.2923,-0.2943,-0.2916,-0.2798,-0.2881,-0.3001,-0.3087,-0.3136,-0.3181,-0.3192,-0.3463,-0.3631,-0.364,-0.4006,-0.4298,-0.4543,-0.4659,-0.4818,-0.5018,-0.5018,-0.5018,-0.5029,-0.5265,-0.541,-0.5429,-0.5632,-0.5723,-0.5833,-0.5953,-0.6072,-0.6195,-0.6312,-0.6391,-0.6387,-0.748,-0.7433,-0.7484,-0.7928,-0.7515,-0.7174,-0.7395,-0.7309,-0.686,-0.5954,-0.5463,-0.5107,-0.4898,-0.4329,-0.3986,-0.3966,-0.3942,-0.3861,-0.3808,-0.3802,-0.3802,-0.3802,-0.3802,-0.3802,-0.3802,-0.3802,-0.3767,-0.3654,-0.3598,-0.3556,-0.3528,-0.3528,-0.3536,-0.3558,-0.3626,-0.3654,-0.3661,-0.3771,-0.3802,-0.3795,-0.3683,-0.3654,-0.3648,-0.3581,-0.3556,-0.3556,-0.3556,-0.3497,-0.3453,-0.3434,-0.3318,-0.3192,-0.3192,-0.3192,-0.3192,-0.3192,-0.3192,-0.3192,-0.3192,-0.3192,-0.3192,-0.3192,-0.3192,-0.3192,-0.3192,-0.3192,-0.3192,-0.3192,-0.3192,-0.3172,-0.3132,-0.312,-0.3095,-0.3055,-0.3073,-0.3095,-0.3053,-0.3073,-0.3093,-0.3051,-0.3119,-0.314,-0.3078,-0.314,-0.311,-0.2949,-0.3043,-0.3131,-0.3184,-0.3187,-0.3226,-0.3261,-0.3613,-0.3783,-0.3783,-0.4242,-0.4543,-0.4701,-0.474,-0.4859,-0.5018,-0.5018,-0.5029,-0.5064,-0.5279,-0.544,-0.5461,-0.5654,-0.5801,-0.5915,-0.6037,-0.6159,-0.6331,-0.6393,-0.6387,-0.6437,-0.8472,-0.8228,-0.8073,-0.8524,-0.8384,-0.8167,-0.8199,-0.7801,-0.6957,-0.5456,-0.5645,-0.5455,-0.4256,-0.404,-0.396,-0.392,-0.3906,-0.3861,-0.3808,-0.3802,-0.3802,-0.3802,-0.3802,-0.3802,-0.3802,-0.3802,-0.3798,-0.3789,-0.3667,-0.3584,-0.3576,-0.3576,-0.3658,-0.3777,-0.3785,-0.3789,-0.3789,-0.38,-0.3802,-0.3802,-0.3793,-0.3789,-0.3789,-0.3779,-0.3777,-0.3777,-0.3777,-0.3679,-0.3589,-0.3514,-0.3371,-0.3192,-0.3192,-0.3192,-0.3192,-0.3192,-0.3192,-0.3192,-0.3192,-0.3192,-0.3192,-0.3192,-0.3192,-0.3192,-0.3192,-0.3192,-0.3192,-0.3192,-0.3192,-0.319,-0.3182,-0.318,-0.3178,-0.317,-0.3176,-0.3178,-0.317,-0.3176,-0.3178,-0.317,-0.3128,-0.3175,-0.3336,-0.3206,-0.317,-0.3323,-0.3179,-0.3193,-0.3447,-0.3291,-0.3295,-0.3464,-0.3684,-0.3783,-0.3783,-0.4396,-0.4698,-0.4701,-0.4898,-0.4979,-0.5018,-0.5018,-0.5072,-0.5178,-0.5353,-0.5496,-0.5656,-0.568,-0.5801,-0.5915,-0.6037,-0.6159,-0.6331,-0.6393,-0.6387,-0.6584,-0.8595,-0.8304,-0.8172,-0.8785,-0.8577,-0.8538,-0.9207,-0.89,-0.8301,-0.7527,-0.6474,-0.568,-0.535,-0.4695,-0.4205,-0.4072,-0.393,-0.3841,-0.3804,-0.3802,-0.3802,-0.3802,-0.3802,-0.3802,-0.3802,-0.3802,-0.3802,-0.3802,-0.3765,-0.3707,-0.3707,-0.3707,-0.3767,-0.3802,-0.3802,-0.3802,-0.3802,-0.3802,-0.3802,-0.3802,-0.3802,-0.3802,-0.3802,-0.3802,-0.3802,-0.3802,-0.3802,-0.3703,-0.3582,-0.3587,-0.3456,-0.3299,-0.321,-0.3192,-0.3192,-0.3192,-0.3192,-0.3192,-0.3192,-0.3192,-0.3192,-0.3192,-0.3192,-0.3192,-0.3192,-0.3192,-0.3192,-0.3192,-0.3192,-0.3192,-0.3192,-0.3192,-0.3192,-0.3192,-0.3192,-0.3192,-0.3192,-0.3192,-0.3192,-0.3192,-0.3392,-0.3502,-0.3471,-0.3502,-0.3565,-0.3631,-0.3469,-0.3321,-0.3326,-0.346,-0.352,-0.3445,-0.3925,-0.414,-0.4096,-0.4624,-0.4898,-0.4898,-0.4976,-0.5018,-0.5021,-0.5089,-0.5224,-0.5365,-0.5455,-0.5532,-0.5688,-0.5688,-0.5844,-0.6015,-0.6067,-0.6585,-0.7307,-0.736,-0.7481,-0.7783,-0.9403,-0.9101,-0.8952,-0.9504,-0.9221,-0.9161,-0.9893,-0.9738,-0.9471,-0.9414,-0.783,-0.6574,-0.6224,-0.5412,-0.4724,-0.4312,-0.4038,-0.3882,-0.3882,-0.3841,-0.3802,-0.3802,-0.3802,-0.3802,-0.3802,-0.3802,-0.3802,-0.3802,-0.3802,-0.3802,-0.3802,-0.3802,-0.3802,-0.3802,-0.3802,-0.3802,-0.3802,-0.3802,-0.3802,-0.3802,-0.3802,-0.3802,-0.3802,-0.3802,-0.3802,-0.3802,-0.3802,-0.3722,-0.3663,-0.3598,-0.3528,-0.3422,-0.3295,-0.3248,-0.3192,-0.3192,-0.3192,-0.3192,-0.3192,-0.3192,-0.3192,-0.3192,-0.3192,-0.3192,-0.3192,-0.3192,-0.3192,-0.3192,-0.3192,-0.3192,-0.3192,-0.3192,-0.3192,-0.3192,-0.3192,-0.3192,-0.3192,-0.3261,-0.3261,-0.3192,-0.3493,-0.3694,-0.3596,-0.3661,-0.3758,-0.3859,-0.3727,-0.3596,-0.3426,-0.3627,-0.3673,-0.3639,-0.4125,-0.4379,-0.4385,-0.4801,-0.5018,-0.5018,-0.505,-0.5067,-0.5072,-0.5224,-0.5346,-0.5508,-0.5545,-0.561,-0.5688,-0.5688,-0.5874,-0.6086,-0.6086,-0.69,-0.8021,-0.8071,-0.8421,-0.9069,-1.1298,-1.0976,-1.0729,-1.0925,-1.0612,-1.0222,-1.0023,-0.9994,-1.012,-1.0549,-0.9758,-0.8394,-0.6341,-0.6105,-0.563,-0.4482,-0.4194,-0.4079,-0.4079,-0.3921,-0.3802,-0.3802,-0.3802,-0.3802,-0.3802,-0.3802,-0.3802,-0.3802,-0.3802,-0.3802,-0.3802,-0.3802,-0.3802,-0.3802,-0.3802,-0.3802,-0.3802,-0.3802,-0.3802,-0.3802,-0.3802,-0.3802,-0.3802,-0.3802,-0.3802,-0.3802,-0.3802,-0.3802,-0.3785,-0.3656,-0.3569,-0.3483,-0.3426,-0.3299,-0.3192,-0.3192,-0.3192,-0.3192,-0.3192,-0.3192,-0.3192,-0.3192,-0.3192,-0.3192,-0.3192,-0.3192,-0.3192,-0.3192,-0.3192,-0.3192,-0.3192,-0.3192,-0.3192,-0.3192,-0.3192,-0.3192,-0.3192,-0.3362,-0.3431,-0.3226,-0.3395,-0.3596,-0.3792,-0.3629,-0.3629,-0.3961,-0.3995,-0.3995,-0.3995,-0.3696,-0.3712,-0.4161,-0.4339,-0.4449,-0.4603,-0.4876,-0.5018,-0.5018,-0.5132,-0.5184,-0.5192,-0.5394,-0.5505,-0.5513,-0.5634,-0.5688,-0.5688,-0.5688,-0.5874,-0.6086,-0.6086,-0.69,-0.8021,-0.8315,-0.9057,-1.0194,-1.1313,-1.1042,-1.0743,-1.098,-1.0617,-1.045,-1.0817,-1.0598,-1.0554,-1.1041,-1.0819,-0.9824,-0.7747,-0.6843,-0.5912,-0.4716,-0.4426,-0.4231,-0.4118,-0.4153,-0.4073,-0.3802,-0.3921,-0.3921,-0.3802,-0.3802,-0.3802,-0.3802,-0.3802,-0.3802,-0.3802,-0.3802,-0.3802,-0.3802,-0.3802,-0.3802,-0.3802,-0.3802,-0.3802,-0.3802,-0.3802,-0.3802,-0.3802,-0.3802,-0.3802,-0.3802,-0.3802,-0.3802,-0.3789,-0.3656,-0.3571,-0.3485,-0.3426,-0.3301,-0.3192,-0.3192,-0.3192,-0.3192,-0.3192,-0.3192,-0.3192,-0.3192,-0.3192,-0.3192,-0.3192,-0.3192,-0.3192,-0.3192,-0.3192,-0.3192,-0.3192,-0.3192,-0.3192,-0.3192,-0.3192,-0.3261,-0.3395,-0.3464,-0.3529,-0.3594,-0.3761,-0.3861,-0.3928,-0.3861,-0.393,-0.4197,-0.3995,-0.3859,-0.3859,-0.4065,-0.4159,-0.4132,-0.4494,-0.468,-0.4683,-0.488,-0.5056,-0.5132,-0.517,-0.5273,-0.5394,-0.5472,-0.5551,-0.5634,-0.5672,-0.5688,-0.5694,-0.5817,-0.5942,-0.6094,-0.6179,-0.7514,-0.9353,-0.9452,-1.0386,-1.1809,-1.1848,-1.1594,-1.1374,-1.1418,-1.11,-1.0929,-1.1261,-1.1041,-1.0949,-1.1262,-1.1305,-1.0517,-0.8411,-0.7544,-0.6522,-0.4953,-0.4621,-0.4465,-0.435,-0.4425,-0.4365,-0.413,-0.4211,-0.4211,-0.4091,-0.3977,-0.3921,-0.3921,-0.3841,-0.3802,-0.3802,-0.3802,-0.3802,-0.3802,-0.3802,-0.3802,-0.3802,-0.3802,-0.3802,-0.3802,-0.3802,-0.3802,-0.3802,-0.3802,-0.3802,-0.3802,-0.3802,-0.3802,-0.3793,-0.3697,-0.362,-0.3532,-0.3444,-0.3352,-0.3271,-0.3204,-0.3192,-0.3192,-0.3192,-0.3192,-0.3192,-0.3192,-0.3192,-0.3192,-0.3192,-0.3192,-0.3192,-0.3192,-0.3192,-0.3192,-0.3192,-0.3192,-0.3192,-0.3192,-0.3192,-0.3261,-0.3362,-0.3529,-0.3596,-0.3591,-0.3794,-0.3928,-0.3928,-0.3928,-0.4046,-0.436,-0.4191,-0.4073,-0.415,-0.4282,-0.4371,-0.435,-0.4646,-0.4817,-0.4818,-0.4937,-0.5072,-0.5186,-0.5279,-0.5386,-0.5575,-0.5575,-0.5618,-0.5688,-0.5688,-0.5712,-0.5803,-0.5874,-0.6002,-0.621,-0.681,-0.8234,-1.0047,-1.0632,-1.176,-1.3087,-1.2813,-1.2587,-1.2355,-1.2137,-1.1879,-1.1625,-1.1354,-1.1305,-1.1305,-1.1305,-1.1305,-1.0522,-0.8433,-0.8226,-0.7359,-0.5216,-0.4836,-0.4711,-0.4711,-0.4696,-0.4637,-0.4596,-0.4637,-0.4637,-0.4596,-0.4297,-0.4125,-0.4118,-0.3921,-0.3802,-0.3802,-0.3802,-0.3802,-0.3802,-0.3802,-0.3802,-0.3802,-0.3802,-0.3802,-0.3802,-0.3802,-0.3802,-0.3802,-0.3802,-0.3802,-0.3802,-0.3802,-0.3802,-0.3802,-0.3795,-0.3697,-0.3574,-0.3526,-0.3442,-0.3389,-0.3254,-0.3192,-0.3192,-0.3192,-0.3192,-0.3192,-0.3192,-0.3198,-0.3202,-0.3202,-0.3202,-0.3202,-0.3202,-0.3196,-0.3192,-0.3192,-0.3192,-0.3192,-0.3192,-0.3192,-0.3192,-0.3226,-0.356,-0.3661,-0.3301,-0.3603,-0.384,-0.3847,-0.3847,-0.4058,-0.4474,-0.4517,-0.4572,-0.4695,-0.442,-0.4426,-0.479,-0.4804,-0.4868,-0.5026,-0.5029,-0.5091,-0.5214,-0.5408,-0.558,-0.5688,-0.5688,-0.5694,-0.5699,-0.5699,-0.5809,-0.5915,-0.5926,-0.6109,-0.6463,-0.7711,-0.8964,-1.0243,-1.175,-1.2985,-1.3979,-1.2813,-1.256,-1.2337,-1.2118,-1.1914,-1.1653,-1.1326,-1.1305,-1.1305,-1.1305,-1.1305,-1.054,-0.8573,-0.8337,-0.7537,-0.5503,-0.516,-0.5026,-0.4871,-0.5056,-0.5038,-0.4707,-0.4867,-0.487,-0.4665,-0.4561,-0.4428,-0.4345,-0.3958,-0.3882,-0.404,-0.3882,-0.3802,-0.3802,-0.3802,-0.3802,-0.3802,-0.3802,-0.3802,-0.3802,-0.3802,-0.3802,-0.3802,-0.3802,-0.3802,-0.3802,-0.3802,-0.3802,-0.3791,-0.3681,-0.3644,-0.3574,-0.3526,-0.3485,-0.3436,-0.3241,-0.3192,-0.3192,-0.3192,-0.3192,-0.3192,-0.3192,-0.3279,-0.3366,-0.3366,-0.3366,-0.3366,-0.3366,-0.3275,-0.3192,-0.3192,-0.3192,-0.3192,-0.3192,-0.3192,-0.3261,-0.3395,-0.3498,-0.3623,-0.3733,-0.3951,-0.4122,-0.4174,-0.4356,-0.4545,-0.4643,-0.4646,-0.4698,-0.4784,-0.4691,-0.4702,-0.4795,-0.4887,-0.5029,-0.5146,-0.5146,-0.5254,-0.5424,-0.5575,-0.5661,-0.5688,-0.5688,-0.5737,-0.5863,-0.5863,-0.5931,-0.6048,-0.6143,-0.6359,-0.6709,-0.7874,-0.9265,-1.073,-1.1901,-1.3125,-1.4202,-1.2759,-1.2427,-1.2099,-1.2091,-1.182,-1.1501,-1.1343,-1.1305,-1.1305,-1.1305,-1.1305,-1.056,-0.859,-0.8403,-0.757,-0.5588,-0.535,-0.523,-0.5151,-0.5343,-0.5326,-0.5072,-0.5196,-0.5196,-0.5072,-0.4916,-0.4725,-0.4495,-0.426,-0.4161,-0.4079,-0.3999,-0.3882,-0.3802,-0.3802,-0.3802,-0.3802,-0.3802,-0.3802,-0.3802,-0.3802,-0.3802,-0.3802,-0.3802,-0.3802,-0.3802,-0.3802,-0.3802,-0.3795,-0.3705,-0.3689,-0.3673,-0.3585,-0.3558,-0.353,-0.3391,-0.3322,-0.3289,-0.3289,-0.3258,-0.3204,-0.3279,-0.3358,-0.3461,-0.3461,-0.3461,-0.3461,-0.3461,-0.3352,-0.3289,-0.3289,-0.3254,-0.3192,-0.3192,-0.3192,-0.3228,-0.3362,-0.3535,-0.3717,-0.3804,-0.4099,-0.4296,-0.4359,-0.447,-0.4603,-0.473,-0.4735,-0.479,-0.4874,-0.4966,-0.4972,-0.4882,-0.5031,-0.5124,-0.5186,-0.5298,-0.5375,-0.5508,-0.5683,-0.5812,-0.5812,-0.5869,-0.5928,-0.5986,-0.5986,-0.6056,-0.6173,-0.6289,-0.6496,-0.6941,-0.8625,-0.9936,-1.0974,-1.2635,-1.3661,-1.4298,-1.2657,-1.2265,-1.189,-1.1941,-1.1612,-1.1305,-1.1305,-1.1305,-1.1305,-1.1305,-1.1132,-1.036,-0.8589,-0.827,-0.7445,-0.56,-0.5465,-0.5417,-0.5398,-0.5467,-0.5534,-0.5534,-0.5534,-0.5534,-0.5534,-0.5244,-0.4919,-0.4608,-0.4527,-0.4355,-0.4101,-0.4101,-0.3975,-0.3802,-0.3802,-0.3802,-0.3802,-0.3802,-0.3802,-0.3802,-0.3802,-0.3802,-0.3802,-0.3802,-0.3802,-0.3802,-0.3802,-0.3802,-0.3802,-0.3802,-0.3802,-0.3789,-0.3671,-0.3646,-0.3632,-0.356,-0.3475,-0.3437,-0.3422,-0.3328,-0.3287,-0.3399,-0.3452,-0.352,-0.352,-0.352,-0.352,-0.352,-0.3448,-0.3416,-0.3401,-0.3301,-0.3208,-0.3194,-0.3226,-0.3261,-0.3261,-0.3612,-0.3853,-0.3762,-0.4173,-0.4429,-0.4444,-0.4483,-0.4599,-0.4817,-0.4825,-0.4876,-0.5037,-0.5135,-0.5151,-0.5072,-0.5165,-0.5222,-0.5241,-0.5424,-0.5534,-0.5537,-0.5798,-0.5904,-0.5907,-0.6029,-0.6094,-0.6113,-0.6161,-0.6229,-0.6342,-0.6393,-0.6695,-0.7335,-0.9592,-1.0721,-1.1365,-1.3511,-1.4298,-1.4298,-1.229,-1.211,-1.1936,-1.1505,-1.1359,-1.1305,-1.1305,-1.1305,-1.1305,-1.1305,-1.0429,-0.9453,-0.8591,-0.776,-0.6879,-0.5766,-0.5634,-0.5588,-0.5486,-0.5594,-0.5661,-0.5661,-0.5661,-0.5661,-0.5661,-0.5195,-0.4869,-0.4677,-0.4305,-0.4134,-0.4163,-0.4,-0.3878,-0.3802,-0.3802,-0.3802,-0.3802,-0.3802,-0.3802,-0.3802,-0.3802,-0.3802,-0.3802,-0.3802,-0.3802,-0.3802,-0.3802,-0.3802,-0.3802,-0.3802,-0.3802,-0.38,-0.3785,-0.3781,-0.3777,-0.3765,-0.3656,-0.3569,-0.3497,-0.3469,-0.346,-0.3475,-0.3542,-0.3568,-0.3568,-0.3568,-0.3568,-0.3568,-0.3538,-0.3454,-0.3414,-0.3387,-0.3318,-0.3206,-0.3328,-0.3464,-0.3464,-0.3714,-0.3949,-0.4042,-0.4362,-0.4578,-0.4637,-0.4804,-0.4928,-0.4949,-0.4949,-0.5037,-0.5154,-0.5175,-0.5224,-0.5353,-0.5372,-0.539,-0.5451,-0.5591,-0.5661,-0.5661,-0.5839,-0.5904,-0.5907,-0.6029,-0.6143,-0.6289,-0.6529,-0.6496,-0.641,-0.686,-0.7611,-0.8662,-1.0137,-1.1414,-1.2581,-1.3806,-1.4298,-1.4298,-1.2446,-1.2051,-1.1592,-1.1354,-1.1305,-1.1305,-1.1305,-1.1305,-1.1305,-1.1305,-0.9946,-0.8851,-0.8544,-0.7665,-0.67,-0.5777,-0.5688,-0.5664,-0.561,-0.5659,-0.5688,-0.5688,-0.5688,-0.5688,-0.5688,-0.537,-0.5109,-0.4954,-0.4617,-0.4356,-0.4259,-0.4175,-0.4003,-0.3836,-0.3836,-0.3849,-0.3802,-0.3802,-0.3802,-0.3802,-0.3802,-0.3802,-0.3802,-0.3802,-0.3802,-0.3802,-0.3802,-0.3802,-0.3802,-0.3802,-0.3802,-0.3802,-0.3802,-0.3802,-0.3802,-0.3802,-0.3697,-0.357,-0.3524,-0.3534,-0.3569,-0.3569,-0.3634,-0.3699,-0.3699,-0.3699,-0.3699,-0.3699,-0.363,-0.3554,-0.3514,-0.3467,-0.3424,-0.3381,-0.3445,-0.3515,-0.3515,-0.3737,-0.396,-0.4193,-0.448,-0.4719,-0.4854,-0.4937,-0.5042,-0.5102,-0.5108,-0.5159,-0.532,-0.5347,-0.5407,-0.5466,-0.5466,-0.5483,-0.5605,-0.5721,-0.5825,-0.5825,-0.601,-0.61,-0.6105,-0.6222,-0.6355,-0.6561,-0.6706,-0.6787,-0.6836,-0.7086,-0.7928,-0.916,-1.0337,-1.156,-1.2829,-1.3902,-1.4298,-1.4298,-1.2426,-1.1849,-1.1305,-1.1305,-1.1305,-1.1305,-1.1305,-1.1305,-1.1305,-1.1305,-0.968,-0.85,-0.85,-0.7448,-0.6482,-0.5777,-0.5688,-0.5688,-0.5688,-0.5688,-0.5688,-0.5688,-0.5688,-0.5688,-0.5644,-0.5416,-0.524,-0.5068,-0.4809,-0.454,-0.4273,-0.4273,-0.4141,-0.393,-0.393,-0.3881,-0.3835,-0.3835,-0.3822,-0.3802,-0.3802,-0.3802,-0.3802,-0.3802,-0.3802,-0.3802,-0.3802,-0.3802,-0.3802,-0.3802,-0.3802,-0.3802,-0.3802,-0.3802,-0.3802,-0.3802,-0.3714,-0.3644,-0.3579,-0.3607,-0.3658,-0.3658,-0.3712,-0.3802,-0.3802,-0.3802,-0.3802,-0.3802,-0.3707,-0.365,-0.3592,-0.3573,-0.3524,-0.3503,-0.3536,-0.3572,-0.3572,-0.3832,-0.4119,-0.431,-0.4617,-0.4896,-0.5017,-0.5083,-0.5135,-0.5222,-0.5227,-0.5281,-0.5407,-0.5456,-0.5532,-0.5586,-0.5564,-0.5607,-0.5726,-0.5858,-0.5918,-0.5947,-0.6165,-0.6317,-0.6417,-0.6484,-0.6639,-0.6892,-0.6945,-0.7042,-0.7188,-0.7338,-0.8081,-0.9312,-1.044,-1.1609,-1.2829,-1.3902,-1.4298,-1.4298,-1.1584,-1.1359,-1.1305,-1.1305,-1.1305,-1.1305,-1.1305,-1.1305,-1.1305,-1.1305,-0.968,-0.85,-0.85,-0.6877,-0.5777,-0.5688,-0.5688,-0.5688,-0.5688,-0.5688,-0.5688,-0.5688,-0.5688,-0.5599,-0.5416,-0.5146,-0.4919,-0.4739,-0.4467,-0.4291,-0.4206,-0.4206,-0.4114,-0.3984,-0.3984,-0.3975,-0.3889,-0.3889,-0.384,-0.3802,-0.3802,-0.3802,-0.3802,-0.3802,-0.3802,-0.3802,-0.3802,-0.3802,-0.3802,-0.3802,-0.3802,-0.3802,-0.3802,-0.3802,-0.3802,-0.3802,-0.3798,-0.3791,-0.3783,-0.3787,-0.3791,-0.3791,-0.3798,-0.3802,-0.3802,-0.3802,-0.3802,-0.3802,-0.3798,-0.3767,-0.3642,-0.3582,-0.3554,-0.3514,-0.3642,-0.3783,-0.3783,-0.4163,-0.4455,-0.4493,-0.4875,-0.5173,-0.5173,-0.5317,-0.5388,-0.5396,-0.5396,-0.5409,-0.5489,-0.5502,-0.5607,-0.5871,-0.5729,-0.5729,-0.5888,-0.5899,-0.5961,-0.6075,-0.6254,-0.6414,-0.6657,-0.6735,-0.6942,-0.7188,-0.7444,-0.7391,-0.7238,-0.7739,-0.8432,-0.9316,-1.0636,-1.1804,-1.2829,-1.3902,-1.4298,-1.4298,-1.138,-1.1305,-1.1305,-1.1305,-1.1305,-1.1305,-1.1305,-1.1305,-1.1305,-1.1305,-1.0689,-0.9637,-0.8105,-0.7139,-0.6349,-0.5733,-0.5688,-0.5688,-0.5688,-0.5688,-0.5688,-0.5688,-0.5688,-0.5644,-0.5597,-0.5191,-0.4966,-0.4879,-0.4478,-0.4281,-0.4251,-0.4251,-0.4204,-0.4122,-0.4122,-0.4069,-0.3944,-0.3944,-0.393,-0.3848,-0.3848,-0.3853,-0.3802,-0.3802,-0.3802,-0.3802,-0.3802,-0.3802,-0.3802,-0.3802,-0.3802,-0.3802,-0.3802,-0.3802,-0.3802,-0.3802,-0.3802,-0.3802,-0.3802,-0.3802,-0.3802,-0.3802,-0.3802,-0.3802,-0.3802,-0.3802,-0.3802,-0.3802,-0.3802,-0.3791,-0.3718,-0.3712,-0.3701,-0.3707,-0.3853,-0.4004,-0.4004,-0.4322,-0.4621,-0.4742,-0.4995,-0.5174,-0.5301,-0.5383,-0.5401,-0.5477,-0.5483,-0.5491,-0.5613,-0.5686,-0.5809,-0.5899,-0.5934,-0.5972,-0.6015,-0.6092,-0.6154,-0.6248,-0.6467,-0.6674,-0.6773,-0.6968,-0.7191,-0.7444,-0.7547,-0.7643,-0.7786,-0.8627,-0.9558,-1.0534,-1.1707,-1.278,-1.3757,-1.4148,-1.4298,-1.4298,-1.1542,-1.1569,-1.1569,-1.1569,-1.1407,-1.1305,-1.1305,-1.1305,-1.1305,-1.1305,-1.1305,-1.0646,-0.8938,-0.7492,-0.6393,-0.5777,-0.5688,-0.5688,-0.5688,-0.5688,-0.5688,-0.5688,-0.5688,-0.5688,-0.5688,-0.5327,-0.5099,-0.501,-0.4612,-0.4389,-0.43,-0.43,-0.4269,-0.4212,-0.4212,-0.4163,-0.4079,-0.4079,-0.4026,-0.3942,-0.3942,-0.3887,-0.3845,-0.3845,-0.3828,-0.3802,-0.3802,-0.3802,-0.3802,-0.3802,-0.3802,-0.3802,-0.3802,-0.3802,-0.3802,-0.3802,-0.3802,-0.3802,-0.3802,-0.3802,-0.3802,-0.3802,-0.3802,-0.3802,-0.3802,-0.3802,-0.3802,-0.3802,-0.3802,-0.3802,-0.3802,-0.3802,-0.3802,-0.3882,-0.4062,-0.4202,-0.4242,-0.4527,-0.4798,-0.4964,-0.5103,-0.5297,-0.5426,-0.5461,-0.5518,-0.5559,-0.5564,-0.5615,-0.5734,-0.5896,-0.5977,-0.6015,-0.61,-0.6159,-0.6195,-0.6244,-0.6336,-0.6473,-0.6705,-0.6895,-0.7045,-0.7241,-0.749,-0.7746,-0.7746,-0.7842,-0.8088,-0.9167,-1.0047,-1.0828,-1.2193,-1.3167,-1.3854,-1.4196,-1.4298,-1.4298,-1.2002,-1.2094,-1.21,-1.21,-1.1671,-1.1316,-1.1305,-1.1305,-1.1305,-1.1305,-1.1305,-1.1305,-1.1262,-0.7929,-0.5733,-0.5688,-0.5688,-0.5688,-0.5688,-0.5688,-0.5688,-0.5688,-0.5688,-0.5688,-0.5688,-0.5508,-0.528,-0.501,-0.4792,-0.4569,-0.43,-0.43,-0.43,-0.43,-0.43,-0.4253,-0.4216,-0.4216,-0.4122,-0.3994,-0.3994,-0.3942,-0.3901,-0.3899,-0.3842,-0.3804,-0.3802,-0.3802,-0.3802,-0.3802,-0.3802,-0.3802,-0.3802,-0.3802,-0.3802,-0.3802,-0.3802,-0.3802,-0.3804,-0.3804,-0.3804,-0.3802,-0.3802,-0.3802,-0.3802,-0.3802,-0.3802,-0.3802,-0.3802,-0.3802,-0.3804,-0.3804,-0.3882,-0.4081,-0.4199,-0.438,-0.4584,-0.4879,-0.5116,-0.5116,-0.5347,-0.5508,-0.5508,-0.5618,-0.5691,-0.5691,-0.5691,-0.5739,-0.5899,-0.6021,-0.6143,-0.6314,-0.632,-0.6323,-0.6384,-0.6325,-0.6475,-0.6795,-0.6795,-0.7095,-0.7596,-0.7596,-0.7743,-0.7988,-0.7988,-0.7988,-0.8088,-0.9167,-0.9608,-0.985,-1.1901,-1.2732,-1.2823,-1.3908,-1.4298,-1.4298,-1.2067,-1.2364,-1.2597,-1.2597,-1.2483,-1.2118,-1.1407,-1.1305,-1.1305,-1.1305,-1.1305,-1.0294,-0.7665,-0.7533,-0.7139,-0.5822,-0.5688,-0.5688,-0.5688,-0.5688,-0.5688,-0.5688,-0.5688,-0.5688,-0.5688,-0.5508,-0.5371,-0.528,-0.4882,-0.4661,-0.4569,-0.4389,-0.43,-0.43,-0.43,-0.4285,-0.4261,-0.4261,-0.4212,-0.4132,-0.4132,-0.4077,-0.3948,-0.3924,-0.3883,-0.385,-0.3826,-0.3802,-0.3802,-0.3802,-0.3802,-0.3802,-0.3802,-0.3802,-0.3802,-0.3802,-0.3802,-0.3816,-0.3842,-0.3859,-0.3844,-0.3818,-0.3802,-0.3802,-0.3802,-0.3802,-0.3802,-0.3802,-0.3802,-0.3822,-0.3846,-0.4017,-0.4196,-0.4308,-0.4632,-0.4896,-0.494,-0.5207,-0.5366,-0.5366,-0.5515,-0.5634,-0.5634,-0.5784,-0.5852,-0.5852,-0.5931,-0.5996,-0.6029,-0.6149,-0.6279,-0.6317,-0.6344,-0.6401,-0.6387,-0.6401,-0.6504,-0.6795,-0.6992,-0.7241,-0.7596,-0.7793,-0.7942,-0.7988,-0.7988,-0.8432,-0.9217,-1.0293,-1.1121,-1.1901,-1.327,-1.3806,-1.3854,-1.4196,-1.4298,-1.4298,-1.2218,-1.2425,-1.2657,-1.2797,-1.2813,-1.2618,-1.1995,-1.1547,-1.1305,-1.1305,-1.1305,-0.9859,-0.613,-0.67,-0.6922,-0.5777,-0.5688,-0.5688,-0.5688,-0.5688,-0.5688,-0.5688,-0.5688,-0.5688,-0.5688,-0.5597,-0.5463,-0.5416,-0.5104,-0.4882,-0.4705,-0.4525,-0.4389,-0.43,-0.43,-0.43,-0.43,-0.43,-0.4269,-0.4222,-0.4222,-0.4169,-0.4085,-0.4028,-0.3985,-0.3946,-0.3891,-0.3848,-0.3855,-0.3855,-0.3833,-0.3802,-0.3802,-0.3802,-0.3802,-0.3802,-0.3828,-0.383,-0.3885,-0.3926,-0.394,-0.3885,-0.3871,-0.3871,-0.3871,-0.3871,-0.3911,-0.4029,-0.4029,-0.4087,-0.4188,-0.436,-0.4502,-0.4645,-0.4942,-0.5183,-0.5268,-0.5456,-0.5597,-0.564,-0.571,-0.582,-0.5869,-0.5934,-0.5975,-0.5975,-0.6089,-0.6157,-0.6157,-0.6271,-0.6333,-0.6333,-0.6504,-0.6539,-0.6539,-0.6686,-0.6789,-0.6942,-0.7241,-0.7494,-0.7743,-0.7942,-0.7988,-0.7988,-0.7988,-0.8382,-0.9069,-1.0583,-1.156,-1.2242,-1.3709,-1.4298,-1.4298,-1.4298,-1.4298,-1.4298,-1.2398,-1.2447,-1.2511,-1.2775,-1.2813,-1.2813,-1.2813,-1.2032,-1.1402,-1.1321,-1.1305,-0.9859,-0.613,-0.5688,-0.5688,-0.5688,-0.5688,-0.5688,-0.5688,-0.5688,-0.5688,-0.5688,-0.5688,-0.5688,-0.5688,-0.5688,-0.5599,-0.5416,-0.5416,-0.5193,-0.475,-0.4705,-0.4569,-0.4342,-0.43,-0.43,-0.4344,-0.43,-0.43,-0.43,-0.43,-0.4253,-0.4227,-0.422,-0.4122,-0.4004,-0.3996,-0.3942,-0.3912,-0.3912,-0.3857,-0.3826,-0.3816,-0.3814,-0.3814,-0.3814,-0.3834,-0.3903,-0.392,-0.3985,-0.405,-0.4057,-0.4059,-0.4055,-0.3996,-0.4036,-0.4118,-0.4365,-0.4406,-0.4497,-0.4685,-0.473,-0.4858,-0.5118,-0.5205,-0.5315,-0.548,-0.5626,-0.5742,-0.589,-0.5912,-0.5964,-0.6075,-0.6094,-0.6108,-0.6116,-0.6222,-0.6333,-0.6333,-0.638,-0.6387,-0.6437,-0.6692,-0.6795,-0.6842,-0.7089,-0.7238,-0.7238,-0.7494,-0.7743,-0.7988,-0.7988,-0.7988,-0.7988,-0.8088,-0.8187,-0.8432,-1.0489,-1.1365,-1.1658,-1.3565,-1.4298,-1.4298,-1.4298,-1.4298,-1.4298,-1.2641,-1.2689,-1.2748,-1.2802,-1.2813,-1.2813,-1.2813,-1.2592,-1.2188,-1.1407,-1.1305,-0.9859,-0.613,-0.5688,-0.5688,-0.5688,-0.5688,-0.5688,-0.5688,-0.5688,-0.5688,-0.5688,-0.5688,-0.5688,-0.5688,-0.5688,-0.5688,-0.5644,-0.5463,-0.5327,-0.5238,-0.4884,-0.4748,-0.4832,-0.4476,-0.4433,-0.4614,-0.4389,-0.43,-0.43,-0.43,-0.4287,-0.4265,-0.4241,-0.4204,-0.4134,-0.4021,-0.3982,-0.3964,-0.3964,-0.3952,-0.3965,-0.3891,-0.3871,-0.3871,-0.3871,-0.3883,-0.393,-0.4075,-0.4254,-0.4413,-0.4535,-0.4682,-0.464,-0.4109,-0.416,-0.4323,-0.4406,-0.4534,-0.4709,-0.4959,-0.5122,-0.5284,-0.5462,-0.5631,-0.5705,-0.5661,-0.5793,-0.5874,-0.5899,-0.5988,-0.6056,-0.6083,-0.6173,-0.6265,-0.6352,-0.6385,-0.6399,-0.6399,-0.6373,-0.6487,-0.6692,-0.6792,-0.6892,-0.7089,-0.7394,-0.7494,-0.7494,-0.7596,-0.7743,-0.7988,-0.7988,-0.7988,-0.8038,-0.8874,-0.9756,-1.0587,-1.1853,-1.2877,-1.3661,-1.41,-1.4298,-1.4298,-1.4298,-1.4298,-1.4298,-1.2786,-1.2813,-1.2813,-1.2813,-1.2813,-1.2813,-1.2813,-1.2813,-1.2635,-1.2086,-1.1584,-1.0559,-0.8588,-0.6789,-0.5688,-0.5688,-0.5688,-0.5688,-0.5688,-0.5688,-0.5688,-0.5688,-0.5688,-0.5688,-0.5688,-0.5688,-0.5688,-0.5688,-0.5599,-0.5508,-0.5416,-0.5151,-0.5013,-0.501,-0.4743,-0.4656,-0.4705,-0.4656,-0.4567,-0.448,-0.448,-0.448,-0.4474,-0.4295,-0.4232,-0.4226,-0.4179,-0.4136,-0.4095,-0.4008,-0.3994,-0.3986,-0.3979,-0.3965,-0.3965,-0.3965,-0.3995,-0.405,-0.4189,-0.4376,-0.4594,-0.4692,-0.4835,-0.4893,-0.4571,-0.459,-0.4717,-0.4849,-0.5022,-0.5181,-0.5428,-0.563,-0.5736,-0.5843,-0.5944,-0.5969,-0.5909,-0.5953,-0.601,-0.607,-0.6132,-0.6195,-0.6249,-0.6309,-0.6374,-0.6381,-0.6387,-0.6387,-0.6387,-0.6387,-0.6539,-0.6795,-0.6942,-0.7141,-0.7391,-0.7643,-0.7793,-0.7793,-0.7793,-0.7842,-0.7988,-0.7988,-0.7988,-0.8038,-0.8577,-0.946,-1.0538,-1.156,-1.2587,-1.3613,-1.41,-1.4298,-1.4298,-1.4298,-1.4298,-1.4298,-1.2813,-1.2813,-1.2813,-1.2813,-1.2813,-1.2813,-1.2813,-1.2813,-1.2813,-1.2813,-1.2081,-1.1263,-1.0444,-0.7577,-0.5688,-0.5688,-0.5688,-0.5688,-0.5688,-0.5688,-0.5688,-0.5688,-0.5688,-0.5688,-0.5688,-0.5688,-0.5688,-0.5688,-0.5688,-0.5599,-0.5463,-0.5416,-0.5282,-0.5099,-0.5055,-0.4924,-0.4839,-0.4966,-0.4924,-0.4748,-0.4748,-0.475,-0.4661,-0.4433,-0.4344,-0.43,-0.43,-0.4255,-0.4183,-0.4106,-0.4039,-0.4035,-0.4023,-0.4017,-0.4017,-0.4017,-0.4156,-0.4262,-0.4278,-0.4557,-0.4839,-0.4839,-0.4968,-0.5099,-0.5099,-0.5099,-0.5144,-0.5371,-0.5554,-0.5731,-0.5885,-0.6034,-0.6116,-0.6116,-0.6116,-0.6111,-0.6089,-0.6105,-0.6154,-0.6306,-0.6333,-0.6333,-0.6379,-0.6387,-0.6387,-0.6387,-0.6387,-0.6437,-0.6487,-0.6487,-0.6589,-0.6945,-0.7141,-0.7391,-0.7646,-0.7892,-0.7988,-0.7988,-0.8187,-0.8187,-0.7988,-0.8187,-0.8283,-0.8283,-0.8627,-0.9312,-1.0194,-1.1268,-1.2242,-1.3071,-1.3956,-1.4298,-1.4298,-1.4298,-1.4346,-1.4394,-1.2813,-1.2813,-1.2813,-1.2813,-1.2813,-1.2813,-1.2813,-1.2813,-1.2813,-1.2813,-1.2699,-1.1027,-0.6885,-0.5997,-0.5688,-0.5688,-0.5688,-0.5688,-0.5688,-0.5688,-0.5688,-0.5688,-0.5688,-0.5688,-0.5688,-0.5688,-0.5688,-0.5688,-0.5688,-0.5688,-0.5644,-0.5463,-0.5463,-0.5597,-0.5191,-0.5102,-0.5282,-0.5099,-0.4966,-0.4966,-0.4966,-0.4835,-0.4705,-0.4661,-0.4525,-0.43,-0.43,-0.4291,-0.4279,-0.4267,-0.4263,-0.4251,-0.4177,-0.4155,-0.4155,-0.4155,-0.429,-0.4489,-0.4617,-0.4961,-0.5327,-0.5327,-0.5463,-0.5599,-0.5599,-0.5463,-0.5371,-0.5371,-0.5642,-0.5891,-0.6043,-0.6162,-0.6292,-0.6292,-0.6292,-0.6254,-0.6102,-0.6179,-0.6298,-0.6317,-0.6352,-0.6371,-0.6384,-0.6387,-0.6387,-0.6387,-0.6387,-0.6487,-0.6742,-0.6742,-0.6992,-0.7497,-0.7543,-0.7693,-0.7939,-0.7988,-0.7988,-0.7988,-0.892,-0.8874,-0.8038,-0.897,-0.9361,-0.946,-1.1263,-1.2145,-1.2339,-1.3414,-1.3956,-1.41,-1.4244,-1.4298,-1.4298,-1.4298,-1.4442,-1.464,-1.2813,-1.2813,-1.2813,-1.2813,-1.2813,-1.2813,-1.2813,-1.2813,-1.2813,-1.2813,-1.2813,-1.2016,-0.9878,-0.7294,-0.5688,-0.5688,-0.5688,-0.5688,-0.5688,-0.5688,-0.5688,-0.5688,-0.5688,-0.5688,-0.5688,-0.5688,-0.5688,-0.5688,-0.5688,-0.5688,-0.5688,-0.5599,-0.5599,-0.5688,-0.5463,-0.5371,-0.5416,-0.5371,-0.5327,-0.5191,-0.5055,-0.5057,-0.5062,-0.4795,-0.4614,-0.4525,-0.4344,-0.43,-0.43,-0.43,-0.43,-0.4293,-0.4255,-0.4377,-0.4465,-0.4288,-0.4504,-0.4777,-0.4692,-0.506,-0.5416,-0.5416,-0.5552,-0.5704,-0.5814,-0.5737,-0.5671,-0.5565,-0.5786,-0.6021,-0.6075,-0.6238,-0.6363,-0.6363,-0.6363,-0.6344,-0.629,-0.6328,-0.6363,-0.6363,-0.6404,-0.6387,-0.6387,-0.6387,-0.6387,-0.6387,-0.6387,-0.6539,-0.6795,-0.6795,-0.7045,-0.7596,-0.7596,-0.7746,-0.7988,-0.7988,-0.8283,-0.8924,-0.9361,-0.9361,-0.8924,-0.9998,-1.0489,-1.0534,-1.1463,-1.2193,-1.2732,-1.3216,-1.3757,-1.4298,-1.4298,-1.4394,-1.4538,-1.4538,-1.4688,-1.4933]},{"header":{"parameterUnit":"m.s-1","parameterCategory":1,"la1":30.6,"la2":28.766,"lo1":-90.7593,"lo2":-88.6598,"dy":0.0162,"dx":0.0183,"nx":116,"ny":114,"refTime":"2023-10-10T18:00:00:Z","depth":0,"parameterNumber":3,"parameterNumberName":"V-component_of_WINDS"},"data":[0.0,0.0,0.0,0.0,0.0,0.0,0.0,0.0,0.0,0.0,0.0,0.0,0.0,0.0,0.0,0.0,0.0,0.0,0.0,0.0,0.0,0.0,0.0,0.0,0.0,0.0,0.0,0.0,0.0,0.0,0.0,0.0,0.0,0.0,0.0,0.0,0.0,0.0,0.0,0.0,0.0,0.0,0.0,0.0,0.0,0.0,0.0,0.0,0.0,0.0,0.0,0.0,0.0,0.0,0.0,0.0,0.0,0.0,0.0,0.0,0.0,0.0,0.0,0.0,0.0,0.0,0.0,0.0,0.0,0.0,0.0,0.0,0.0,0.0,0.0,0.0,0.0,0.0,0.0,0.0,0.0,0.0,0.0,0.0,0.0,0.0,0.0,0.0,0.0,0.0,0.0,0.0,0.0,0.0,0.0,0.0,0.0,0.0,0.0,0.0,0.0,0.0,0.0,0.0,0.0,0.0,0.0,0.0,0.0,0.0,0.0,0.0,0.0,0.0,0.0,0.0,0.0,0.0,0.0,0.0,0.0,0.0,0.0,0.0,0.0,0.0,0.0,0.0,0.0,0.0,0.0,0.0,0.0,0.0,0.0,0.0,0.0,0.0,0.0,0.0,0.0,0.0,0.0,0.0,0.0,0.0,0.0,0.0,0.0,0.0,0.0,0.0,0.0,0.0,0.0,0.0,0.0,0.0,0.0,0.0,0.0,0.0,0.0,0.0,0.0,0.0,0.0,0.0,0.0,0.0,0.0,0.0,0.0,0.0,0.0,0.0,0.0,0.0,0.0,0.0,0.0,0.0,0.0,0.0,0.0,0.0,0.0,0.0,0.0,0.0,0.0,0.0,0.0,0.0,0.0,0.0,0.0,0.0,0.0,0.0,0.0,0.0,0.0,0.0,0.0,0.0,0.0,0.0,0.0,0.0,0.0,0.0,0.0,0.0,0.0,0.0,0.0,0.0,0.0,0.0,0.0,0.0,0.0,0.0,0.0,0.0,0.0,0.0,0.0,0.0,0.0,0.0,0.0,0.0,0.0,0.0,0.0,0.0,0.0,0.0,0.0,0.0,0.0,0.0,0.0,0.0,0.0,0.0,0.0,0.0,0.0,0.0,0.0,0.0,0.0,0.0,0.0,0.0,0.0,0.0,0.0,0.0,0.0,0.0,0.0,0.0,0.0,0.0,0.0,0.0,0.0,0.0,0.0,0.0,0.0,0.0,0.0,0.0,0.0,0.0,0.0,0.0,0.0,0.0,0.0,0.0,0.0,0.0,0.0,0.0,0.0,0.0,0.0,0.0,0.0,0.0,0.0,0.0,0.0,0.0,0.0,0.0,0.0,0.0,0.0,0.0,0.0,0.0,0.0,0.0,0.0,0.0,0.0,0.0,0.0,0.0,0.0,0.0,0.0,0.0,0.0,0.0,0.0,0.0,0.0,0.0,0.0,0.0,0.0,0.0,0.0,0.0,0.0,0.0,0.0,0.0,0.0,0.0,0.0,0.0,0.0,0.0,0.0,0.0,0.0,0.0,0.0,0.0,0.0,0.0,0.0,0.0,0.0,0.0,0.0,0.0,0.0,0.0,0.0,0.0,0.0,0.0,0.0,0.0,0.0,0.0,0.0,0.0,0.0,0.0,0.0,0.0,0.0,0.0,0.0,0.0,0.0,0.0,0.0,0.0,0.0,0.0,0.0,0.0,0.0,0.0,0.0,0.0,0.0,0.0,0.0,0.0,0.0,0.0,0.0,0.0,0.0,0.0,0.0,0.0,0.0,0.0,0.0,0.0,0.0,0.0,0.0,0.0,0.0,0.0,0.0,0.0,0.0,0.0,0.0,0.0,0.0,0.0,0.0,0.0,0.0,0.0,0.0,0.0,0.0,0.0,0.0,0.0,0.0,0.0,0.0,0.0,0.0,0.0,0.0,0.0,0.0,0.0,0.0,0.0,0.0,0.0,0.0,0.0,0.0,0.0,0.0,0.0,0.0,0.0,0.0,0.0,0.0,0.0,0.0,0.0,0.0,0.0,0.0,0.0,0.0,0.0,0.0,0.0,0.0,0.0,0.0,0.0,0.0,0.0,0.0,0.0,0.0,0.0,0.0,0.0,0.0,0.0,0.0,0.0,0.0,0.0,0.0,0.0,0.0,0.0,0.0,0.0,0.0,0.0,0.0,0.0,0.0,0.0,0.0,0.0,0.0,0.0,0.0,0.0,0.0,0.0,0.0,0.0,0.0,0.0,0.0,0.0,0.0,0.0,0.0,0.0,0.0,0.0,0.0,0.0,0.0,0.0,0.0,0.0,0.0,0.0,0.0,0.0,0.0,0.0,0.0,0.0,0.0,0.0,0.0,0.0,0.0,0.0,0.0,0.0,0.0,0.0,0.0,0.0,0.0,0.0,0.0,0.0,0.0,0.0,0.0,0.0,0.0,0.0,0.0,0.0,0.0,0.0,0.0,0.0,0.0,0.0,0.0,0.0,0.0,0.0,0.0,0.0,0.0,0.0,0.0,0.0,0.0,0.0,0.0,0.0,0.0,0.0,0.0,0.0,0.0,0.0,0.0,0.0,0.0,0.0,0.0,0.0,0.0,0.0,0.0,0.0,0.0,0.0,0.0,0.0,0.0,0.0,0.0,0.0,0.0,0.0,0.0,0.0,0.0,0.0,0.0,0.0,0.0,0.0,0.0,0.0,0.0,0.0,0.0,0.0,0.0,0.0,0.0,0.0,0.0,0.0,0.0,0.0,0.0,0.0,0.0,0.0,0.0,0.0,0.0,0.0,0.0,0.0,0.0,0.0,0.0,0.0,0.0,0.0,0.0,0.0,0.0,0.0,0.0,0.0,0.0,0.0,0.0,0.0,0.0,0.0,0.0,0.0,0.0,0.0,0.0,0.0,0.0,0.0,0.0,0.0,0.0,0.0,0.0,0.0,0.0,0.0,0.0,0.0,0.0,0.0,0.0,0.0,0.0,0.0,0.0,0.0,0.0,0.0,0.0,0.0,0.0,0.0,0.0,0.0,0.0,0.0,0.0,0.0,0.0,0.0,0.0,0.0,0.0,0.0,0.0,0.0,0.0,0.0,0.0,0.0,0.0,0.0,0.0,0.0,0.0,0.0,0.0,0.0,0.0,0.0,0.0,0.0,0.0,0.0,0.0,0.0,0.0,0.0,0.0,0.0,0.0,0.0,0.0,0.0,0.0,0.0,0.0,0.0,0.0,0.0,0.0,0.0,0.0,0.0,0.0,0.0,0.0,0.0,0.0,0.0,0.0,0.0,0.0,0.0,0.0,0.0,0.0,0.0,0.0,0.0,0.0,0.0,0.0,0.0,0.0,0.0,0.0,0.0,0.0,0.0,0.0,0.0,0.0,0.0,0.0,0.0,0.0,0.0,0.0,0.0,0.0,0.0,0.0,0.0,0.0,0.0,0.0,0.0,0.0,0.0,0.0,0.0,0.0,0.0,0.0,0.0,0.0,0.0,0.0,0.0,0.0,0.0,0.0,0.0,0.0,0.0,0.0,0.0,0.0,0.0,0.0,0.0,0.0,0.0,0.0,0.0,0.0,0.0,0.0,0.0,0.0,0.0,0.0,0.0,0.0,0.0,0.0,0.0,0.0,0.0,0.0,0.0,0.0,0.0,0.0,0.0,0.0,0.0,0.0,0.0,0.0,0.0,0.0,0.0,0.0,0.0,0.0,0.0,0.0,0.0,0.0,0.0,0.0,0.0,0.0,0.0,0.0,0.0,0.0,0.0,0.0,0.0,0.0,0.0,0.0,0.0,0.0,0.0,0.0,0.0,0.0,0.0,0.0,0.0,0.0,0.0,0.0,0.0,0.0,0.0,0.0,0.0,0.0,0.0,0.0,0.0,0.0,0.0,0.0,0.0,0.0,0.0,0.0,0.0,0.0,0.0,0.0,0.0,0.0,0.0,0.0,0.0,0.0,0.0,0.0,0.0,0.0,0.0,0.0,0.0,0.0,0.0,0.0,0.0,0.0,0.0,0.0,0.0,0.0,0.0,0.0,0.0,0.0,0.0,0.0,0.0,0.0,0.0,0.0,0.0,0.0,0.0,0.0,0.0,0.0,0.0,0.0,0.0,0.0,0.0,0.0,0.0,0.0,0.0,0.0,0.0,0.0,0.0,0.0,0.0,0.0,0.0,0.0,0.0,0.0,0.0,0.0,0.0,0.0,0.0,0.0,0.0,0.0,0.0,0.0,0.0,0.0,0.0,0.0,0.0,0.0,0.0,0.0,0.0,0.0,0.0,0.0,0.0,0.0,0.0,0.0,0.0,0.0,0.0,0.0,0.0,0.0,0.0,0.0,0.0,0.0,0.0,0.0,0.0,0.0,0.0,0.0,0.0,0.0,0.0,0.0,0.0,0.0,0.0,0.0,0.0,0.0,0.0,0.0,0.0,0.0,0.0,0.0,0.0,0.0,0.0,0.0,0.0,0.0,0.0,0.0,0.0,0.0,0.0,0.0,0.0,0.0,0.0,0.0,0.0,0.0,0.0,0.0,0.0,0.0,0.0,0.0,0.0,0.0,0.0,0.0,0.0,0.0,0.0,0.0,0.0,0.0,0.0,0.0,0.0,0.0,0.0,0.0,0.0,0.0,0.0,0.0,0.0,0.0,0.0,0.0,0.0,0.0,0.0,0.0,0.0,0.0,0.0,0.0,0.0,0.0,0.0,0.0,0.0,0.0,0.0,0.0,0.0,0.0,0.0,0.0,0.0,0.0,0.0,0.0,0.0,0.0,0.0,0.0,0.0,0.0,0.0,0.0,0.0,0.0,0.0,0.0,0.0,0.0,0.0,0.0,0.0,0.0,0.0,0.0,0.0,0.0,0.0,0.0,0.0,0.0,0.0,0.0,0.0,0.0,0.0,0.0,0.0,0.0,0.0,0.0,0.0,0.0,0.0,0.0,0.0,0.0,0.0,0.0,0.0,0.0,0.0,0.0,0.0,0.0,0.0,0.0,0.0,0.0,0.0,0.0,0.0,0.0,0.0,0.0,0.0,0.0,0.0,0.0,0.0,0.0,0.0,0.0,0.0,0.0,0.0,0.0,0.0,0.0,0.0,0.0,0.0,0.0,0.0,0.0,0.0,0.0,0.0,0.0,0.0,0.0,0.0,0.0,0.0,0.0,0.0,0.0,0.0,0.0,0.0,0.0,0.0,0.0,0.0,0.0,0.0,0.0,0.0,0.0,0.0,0.0,0.0,0.0,0.0,0.0,0.0,0.0,0.0,0.0,0.0,0.0,0.0,0.0,0.0,0.0,0.0,0.0,0.0,0.0,0.0,0.0,0.0,0.0,0.0,0.0,0.0,0.0,0.0,0.0,0.0,0.0,0.0,0.0,0.0,0.0,0.0,0.0,0.0,0.0,0.0,0.0,0.0,0.0,0.0,0.0,0.0,0.0,0.0,0.0,0.0,0.0,0.0,0.0,0.0,0.0,0.0,0.0,0.0,0.0,0.0,0.0,0.0,0.0,0.0,0.0,0.0,0.0,0.0,0.0,0.0,0.0,0.0,0.0,0.0,0.0,0.0,0.0,0.0,0.0,0.0,0.0,0.0,0.0,0.0,0.0,0.0,0.0,0.0,0.0,0.0,0.0,0.0,0.0,0.0,0.0,0.0,0.0,0.0,0.0,0.0,0.0,0.0,0.0,0.0,0.0,0.0,0.0,0.0,0.0,0.0,0.0,0.0,0.0,0.0,0.0,0.0,0.0,0.0,0.0,0.0,0.0,0.0,0.0,0.0,0.0,0.0,0.0,0.0,0.0,0.0,0.0,0.0,0.0,0.0,0.0,0.0,0.0,0.0,0.0,0.0,0.0,0.0,0.0,0.0,0.0,0.0,0.0,0.0,0.0,0.0,0.0,0.0,0.0,0.0,0.0,0.0,0.0,0.0,0.0,0.0,0.0,0.0,0.0,0.0,0.0,0.0,0.0,0.0,0.0,0.0,0.0,0.0,0.0,0.0,0.0,0.0,0.0,0.0,0.0,0.0,0.0,0.0,0.0,0.0,0.0,0.0,0.0,0.0,0.0,0.0,0.0,0.0,0.0,0.0,0.0,0.0,0.0,0.0,0.0,0.0,0.0,0.0,2.6962,2.6042,0.0,0.0,0.0,0.0,0.0,0.0,0.0,0.0,0.0,0.0,0.0,0.0,0.0,0.0,0.0,0.0,0.0,0.0,0.0,0.0,0.0,0.0,0.0,0.0,0.0,0.0,0.0,0.0,0.0,0.0,0.0,0.0,0.0,0.0,0.0,0.0,0.0,2.5308,2.5712,2.6346,2.714,2.7558,2.6865,2.5308,0.0,0.0,0.0,0.0,0.0,0.0,0.0,0.0,0.0,0.0,0.0,0.0,0.0,0.0,0.0,0.0,0.0,0.0,0.0,0.0,0.0,0.0,0.0,0.0,0.0,0.0,0.0,0.0,0.0,0.0,0.0,0.0,0.0,0.0,0.0,0.0,0.0,0.0,0.0,0.0,0.0,0.0,0.0,0.0,0.0,0.0,0.0,0.0,0.0,0.0,0.0,0.0,0.0,0.0,0.0,0.0,0.0,0.0,0.0,0.0,0.0,0.0,0.0,0.0,0.0,0.0,0.0,0.0,0.0,0.0,2.9489,2.7631,0.0,0.0,0.0,0.0,0.0,0.0,0.0,0.0,0.0,0.0,0.0,0.0,0.0,0.0,0.0,0.0,0.0,0.0,0.0,0.0,0.0,0.0,0.0,2.4199,2.4255,2.4403,2.4577,2.4762,2.4945,0.0,0.0,0.0,0.0,0.0,2.509,2.5217,2.5346,2.5538,2.6692,2.8044,2.9569,3.0429,2.9327,2.6615,2.6154,0.0,0.0,0.0,0.0,0.0,0.0,0.0,0.0,0.0,0.0,0.0,0.0,0.0,0.0,0.0,0.0,0.0,0.0,0.0,0.0,0.0,0.0,0.0,0.0,0.0,0.0,0.0,0.0,0.0,0.0,0.0,0.0,0.0,0.0,0.0,0.0,0.0,0.0,0.0,0.0,0.0,0.0,0.0,0.0,0.0,0.0,0.0,0.0,0.0,0.0,0.0,0.0,0.0,0.0,0.0,0.0,0.0,0.0,0.0,0.0,0.0,0.0,0.0,3.6781,3.71,3.7641,3.6951,3.6974,3.7331,3.3131,3.0493,2.9136,2.8858,0.0,0.0,0.0,0.0,0.0,0.0,0.0,0.0,0.0,0.0,0.0,0.0,0.0,0.0,0.0,0.0,0.0,0.0,0.0,2.419,2.419,2.4209,2.4495,2.527,2.5346,2.5661,2.6372,0.0,0.0,0.0,0.0,2.4975,2.5109,2.5126,2.5546,2.6428,2.875,3.0404,3.1371,3.2199,3.2333,3.1795,2.9583,2.8646,2.8606,0.0,0.0,0.0,0.0,0.0,0.0,0.0,0.0,0.0,0.0,0.0,0.0,0.0,0.0,0.0,0.0,0.0,0.0,0.0,0.0,0.0,0.0,0.0,0.0,0.0,0.0,0.0,0.0,0.0,0.0,0.0,0.0,0.0,0.0,0.0,0.0,0.0,0.0,0.0,0.0,0.0,3.1292,3.1341,0.0,0.0,0.0,0.0,0.0,0.0,0.0,0.0,0.0,0.0,0.0,0.0,0.0,3.6536,3.8759,3.9146,4.0165,4.1847,4.1847,4.1732,4.155,4.1274,4.1065,4.0866,3.9542,0.0,3.3287,3.1886,0.0,0.0,0.0,0.0,0.0,0.0,0.0,0.0,0.0,0.0,0.0,0.0,0.0,0.0,0.0,0.0,0.0,0.0,0.0,0.0,0.0,2.488,2.5386,2.6673,2.6413,2.6527,2.7385,2.6368,0.0,0.0,2.5128,2.4847,2.4975,2.5551,2.7029,2.9467,3.2019,3.3942,3.5276,3.6565,3.7168,3.711,3.5533,3.3269,3.0521,2.9293,0.0,0.0,0.0,0.0,0.0,0.0,0.0,0.0,0.0,0.0,0.0,0.0,0.0,0.0,0.0,0.0,0.0,0.0,0.0,0.0,0.0,0.0,0.0,0.0,0.0,0.0,0.0,0.0,0.0,0.0,0.0,0.0,0.0,0.0,0.0,0.0,0.0,0.0,0.0,3.1476,3.1892,3.2319,3.2408,3.2274,0.0,0.0,0.0,0.0,0.0,0.0,0.0,0.0,0.0,3.8412,3.9717,4.0929,4.205,4.3422,4.4551,4.5395,4.6151,4.6266,4.5829,4.5402,4.4972,4.4535,4.3576,4.1832,3.9435,3.598,3.4079,3.3262,0.0,0.0,0.0,0.0,3.2853,3.315,0.0,0.0,0.0,0.0,0.0,0.0,0.0,0.0,0.0,0.0,0.0,0.0,2.5613,2.6072,2.688,2.8316,2.8135,2.8123,2.8576,2.7367,2.6423,2.5996,2.5515,2.5222,2.5161,2.697,2.9447,3.2602,3.534,3.7456,3.9008,4.0469,4.117,4.115,4.0535,3.7683,3.3242,3.1927,3.0477,2.8965,0.0,0.0,0.0,0.0,0.0,0.0,0.0,0.0,0.0,0.0,0.0,0.0,0.0,0.0,0.0,0.0,0.0,0.0,0.0,0.0,0.0,0.0,0.0,0.0,0.0,0.0,0.0,0.0,0.0,0.0,0.0,0.0,0.0,0.0,0.0,0.0,0.0,3.276,3.3338,3.4135,3.4263,3.4257,0.0,0.0,0.0,0.0,0.0,0.0,3.8911,4.0758,4.2069,4.2652,4.4365,4.5481,4.5901,4.7609,4.861,4.8898,4.9895,5.0134,4.9638,4.8968,4.842,4.7914,4.6682,4.5791,4.4804,3.9946,3.748,3.6681,3.5776,3.5442,3.5442,3.5442,3.5442,3.5442,0.0,0.0,0.0,0.0,0.0,0.0,0.0,0.0,0.0,0.0,0.0,2.565,2.6447,2.7904,2.9175,3.0083,3.0832,3.0978,3.0316,2.9558,2.8413,2.681,2.6776,2.6496,2.5863,2.9892,3.2999,3.5026,3.8276,4.0478,4.1635,4.2547,4.297,4.297,4.2931,4.1,3.761,3.5079,3.3128,3.1483,2.9029,0.0,0.0,0.0,0.0,0.0,0.0,0.0,0.0,0.0,0.0,0.0,0.0,0.0,0.0,0.0,0.0,0.0,0.0,0.0,0.0,0.0,0.0,0.0,0.0,0.0,0.0,0.0,0.0,0.0,0.0,0.0,0.0,0.0,0.0,0.0,0.0,0.0,0.0,3.7733,3.7796,0.0,0.0,0.0,0.0,3.9996,4.0227,4.1689,4.4979,4.5267,4.633,4.8493,4.8692,4.9515,5.1113,5.1235,5.1836,5.2902,5.2988,5.2861,5.2568,5.1711,5.1161,5.0803,4.9159,4.8407,4.7988,4.3282,4.0866,4.0081,3.9194,3.8841,3.8841,3.8841,3.8841,3.8841,0.0,0.0,0.0,0.0,0.0,0.0,0.0,0.0,2.3488,2.3927,2.5236,2.6625,2.7996,3.0032,3.1861,3.3209,3.3195,3.2779,3.201,3.0287,2.8804,2.7685,2.7118,2.7531,2.9017,3.2542,3.5682,3.8428,4.1356,4.3574,4.5096,4.5932,4.6317,4.6317,4.6317,4.5054,4.2695,3.9025,3.6234,3.4052,3.1546,2.9758,0.0,0.0,0.0,0.0,0.0,0.0,0.0,0.0,0.0,0.0,0.0,0.0,0.0,0.0,0.0,0.0,0.0,0.0,0.0,0.0,0.0,0.0,0.0,0.0,0.0,0.0,0.0,0.0,0.0,0.0,0.0,0.0,0.0,0.0,0.0,0.0,0.0,4.1099,4.1338,0.0,4.2786,4.2104,4.2431,4.447,4.5105,4.6163,4.7952,4.9067,5.0028,5.0841,5.1397,5.1984,5.2598,5.3155,5.364,5.4049,5.4396,5.4323,5.3854,5.2584,5.1782,5.1275,4.9954,4.9078,4.8471,4.679,4.4903,4.2889,4.1504,4.0858,4.0698,4.0698,4.0698,4.0713,0.0,0.0,0.0,0.0,0.0,0.0,0.0,2.3105,2.3324,2.4125,2.5717,2.7652,2.9965,3.2381,3.4394,3.5762,3.5478,3.4518,3.2902,3.1108,2.9508,2.813,2.8083,2.9436,3.2326,3.5523,3.8498,4.1214,4.3876,4.5856,4.7184,4.8009,4.8298,4.8105,4.8413,4.7759,4.624,4.3159,3.9935,3.6694,3.4482,3.2451,3.0603,0.0,0.0,0.0,0.0,0.0,0.0,0.0,0.0,0.0,0.0,0.0,0.0,0.0,0.0,0.0,0.0,0.0,0.0,0.0,0.0,0.0,0.0,0.0,0.0,0.0,0.0,0.0,0.0,0.0,0.0,0.0,0.0,0.0,0.0,4.0295,4.2606,4.5403,4.5491,4.5968,4.7612,4.67,4.6855,4.8875,4.925,5.001,5.1452,5.2318,5.2914,5.3204,5.3791,5.409,5.41,5.4678,5.4966,5.4986,5.5335,5.5327,5.4918,5.3353,5.244,5.2034,5.0684,4.9811,4.9312,4.9022,4.7774,4.5874,4.4065,4.3248,4.3049,4.2754,4.2623,4.2584,0.0,0.0,0.0,0.0,0.0,0.0,2.2446,2.2694,2.328,2.4372,2.6177,2.87,3.2227,3.4853,3.6699,3.754,3.7577,3.6205,3.3007,3.2082,3.0598,2.8217,2.9821,3.2288,3.5547,3.8813,4.1423,4.3321,4.5787,4.727,4.7815,4.8682,4.8796,4.8288,4.9135,4.9019,4.8182,4.7385,4.4223,3.9558,3.7763,3.5626,3.3309,0.0,0.0,0.0,0.0,0.0,0.0,0.0,0.0,0.0,0.0,0.0,0.0,0.0,0.0,0.0,0.0,0.0,0.0,0.0,0.0,0.0,0.0,0.0,0.0,0.0,0.0,0.0,0.0,0.0,0.0,0.0,0.0,0.0,4.2163,4.438,4.7256,5.0668,5.0252,5.0353,5.2049,5.0644,5.0664,5.3164,5.2549,5.3145,5.5618,5.4983,5.4927,5.5778,5.5797,5.5836,5.5895,5.5895,5.5895,5.5895,5.5895,5.5895,5.5837,5.4091,5.331,5.3204,5.1461,5.0729,5.0735,4.9891,4.9394,4.8957,4.6942,4.6101,4.5931,4.506,4.4635,4.4515,0.0,0.0,0.0,0.0,0.0,0.0,2.2699,2.2884,2.3441,2.4581,2.7246,2.9945,3.2337,3.5862,3.7896,3.7559,3.7032,3.5588,3.2907,3.1486,3.075,3.0691,3.3045,3.5544,3.8074,4.1091,4.3721,4.5881,4.798,4.9375,5.0106,5.0947,5.1358,5.1454,5.1683,5.1439,5.0846,5.0615,4.9047,4.6356,4.22,3.9425,3.7549,0.0,0.0,0.0,0.0,0.0,0.0,0.0,0.0,0.0,0.0,0.0,0.0,0.0,0.0,0.0,0.0,0.0,0.0,0.0,0.0,0.0,0.0,0.0,0.0,0.0,0.0,0.0,0.0,0.0,0.0,0.0,4.3672,4.5828,4.5718,4.8442,5.1462,5.4261,5.4322,5.4805,5.6474,5.5593,5.5455,5.6806,5.6151,5.5968,5.668,5.5951,5.5615,5.5856,5.5875,5.5885,5.5895,5.5895,5.5895,5.5895,5.5895,5.5895,5.5837,5.4091,5.331,5.3213,5.1517,5.0784,5.0782,5.0533,5.0428,5.0217,4.82,4.7198,4.677,4.5937,4.5217,4.4632,0.0,0.0,0.0,0.0,0.0,0.0,2.2579,2.2681,2.3344,2.4938,2.7407,3.0008,3.2607,3.5772,3.7598,3.7311,3.6384,3.4926,3.2794,3.1561,3.1767,3.3722,3.5975,3.8443,4.1089,4.3849,4.6071,4.7751,4.9571,5.0763,5.1334,5.2198,5.255,5.2538,5.3391,5.3413,5.2785,5.2931,5.2443,5.128,4.7576,4.4501,4.1875,3.9347,3.7614,3.6387,3.5259,3.4294,3.3496,3.3008,0.0,0.0,0.0,0.0,0.0,0.0,0.0,0.0,0.0,0.0,0.0,0.0,0.0,0.0,0.0,0.0,0.0,0.0,0.0,0.0,0.0,0.0,0.0,0.0,4.7618,5.04,5.1356,5.2824,5.4746,5.733,5.7245,5.7526,5.8858,5.815,5.7955,5.8815,5.8121,5.7648,5.7648,5.6888,5.63,5.5953,5.5933,5.5943,5.5942,5.5942,5.5942,5.5942,5.5942,5.5942,5.5903,5.4541,5.373,5.3305,5.1936,5.1145,5.0833,5.0836,5.0872,5.0753,0.0,0.0,0.0,0.0,4.5738,4.4976,0.0,0.0,0.0,0.0,0.0,0.0,2.231,2.2324,2.3103,2.5189,2.6974,2.9283,3.2553,3.4746,3.6102,3.6442,3.5323,3.3995,3.2577,3.2078,3.3377,3.6809,3.8679,4.113,4.4342,4.6754,4.837,4.9187,5.0766,5.1652,5.1907,5.2765,5.2965,5.2654,5.4504,5.4988,5.4441,5.4725,5.4836,5.4645,5.2991,4.987,4.5956,4.362,4.2169,4.1192,3.9637,3.8559,3.7812,3.7538,0.0,0.0,0.0,0.0,0.0,0.0,0.0,0.0,0.0,0.0,0.0,0.0,0.0,0.0,0.0,0.0,0.0,0.0,0.0,0.0,0.0,0.0,0.0,0.0,5.167,5.5162,5.7572,5.7159,5.7475,5.9781,5.9292,5.9099,5.9872,5.9186,5.9001,5.9803,5.905,5.8557,5.8547,5.7699,0.0,0.0,0.0,5.6007,5.6003,5.6012,5.6012,5.6012,5.6012,5.6012,5.5973,5.5064,5.4233,5.344,5.2412,5.1562,5.0898,5.0905,5.0905,5.0821,5.0038,4.9547,4.9074,4.7444,4.6234,4.54,0.0,0.0,0.0,0.0,0.0,0.0,2.2338,2.2487,2.3111,2.4468,2.6421,2.8401,3.0261,3.2569,3.3728,3.3183,3.2506,3.1997,3.1722,3.2808,3.4961,3.8334,4.1363,4.4225,4.6857,4.8707,5.006,5.0915,5.1899,5.2401,5.2456,5.3274,5.409,5.4871,5.5275,5.6027,5.6994,5.7047,5.6853,5.6426,5.5376,5.2473,4.8673,4.7574,4.5814,4.3772,4.2868,4.2025,4.103,3.8962,3.7962,3.707,3.4101,3.2383,0.0,0.0,0.0,0.0,0.0,0.0,0.0,0.0,0.0,0.0,0.0,0.0,0.0,0.0,0.0,0.0,0.0,0.0,0.0,5.2187,5.5121,5.7616,5.9502,6.0105,6.0519,6.099,6.0728,6.0597,6.0828,6.0654,6.0574,6.0731,5.9988,5.9524,5.9524,5.8104,5.7204,5.7058,5.6362,5.5995,5.6012,5.6012,5.6012,5.6012,5.6012,0.0,5.5954,5.4445,5.3652,5.3401,5.1818,5.1045,5.0898,5.089,5.089,5.0871,5.06,4.964,4.8361,4.7866,4.6704,4.54,0.0,0.0,0.0,0.0,0.0,0.0,2.2324,2.2405,2.2903,2.4051,2.5474,2.6817,2.7958,2.9713,3.0592,3.0041,3.0359,3.0971,3.1832,3.4325,3.7421,4.1203,4.4182,4.6897,4.9361,5.0675,5.1565,5.1992,5.3218,5.3813,5.3831,5.4667,5.534,5.594,5.6497,5.7154,5.7858,5.8225,5.822,5.7913,5.6794,5.4858,5.2377,5.0328,4.8805,4.7527,4.5938,4.4581,4.3292,4.162,4.0529,3.9409,3.6816,3.5137,3.3594,0.0,0.0,0.0,0.0,0.0,0.0,0.0,0.0,0.0,0.0,0.0,0.0,0.0,0.0,4.3887,4.6484,0.0,5.2441,5.5469,5.7692,5.9503,6.0811,6.1286,6.1467,6.1365,6.1228,6.1156,6.12,6.1108,6.1051,6.1061,6.0674,6.0075,5.9244,5.8421,5.7559,5.668,5.6235,5.5818,5.5393,5.5799,5.5799,5.5393,5.5818,5.5799,5.5374,5.4523,5.3672,5.2801,5.1931,5.1312,5.0898,5.0898,5.0898,5.089,5.0833,5.0036,4.8897,4.8339,4.733,4.6183,0.0,0.0,0.0,0.0,0.0,0.0,2.2296,2.2296,2.2651,2.3627,2.4396,2.515,2.5869,2.6963,2.7579,2.7444,2.8743,3.0407,3.2406,3.5838,3.9728,4.4014,4.6646,4.9066,5.1361,5.2474,5.3051,5.307,5.4537,5.5261,5.528,5.5967,5.6376,5.6582,5.7491,5.8015,5.8274,5.8889,5.9097,5.8893,5.7716,5.6626,5.5348,5.2146,5.0896,5.0538,4.805,4.6127,4.4596,4.3443,4.218,4.0794,3.9117,3.7499,3.5722,3.3183,3.1211,0.0,0.0,0.0,0.0,0.0,0.0,0.0,0.0,4.0937,4.2715,4.457,4.6348,4.834,5.0957,5.3398,5.5742,5.8027,5.9668,6.0898,6.1601,6.1515,6.133,6.1217,6.1265,6.1331,6.1331,6.1205,6.1134,6.1134,6.0962,6.0286,5.8913,5.8526,5.7695,5.6293,5.5935,5.547,5.4813,5.5277,5.52,5.4561,5.52,5.518,5.4542,5.4368,5.3536,5.219,5.2008,5.1544,5.0898,5.0898,5.0898,5.0898,5.0898,5.0492,4.9842,4.8972,4.8101,4.7231,0.0,0.0,0.0,0.0,0.0,0.0,0.0,0.0,2.2419,2.2795,2.3326,2.3858,2.4317,2.5119,2.5764,2.6081,2.7716,3.0049,3.3156,3.664,4.0705,4.546,4.8108,5.0321,5.2152,5.3804,5.4681,5.4741,5.5689,5.6153,5.6172,5.6246,5.6692,5.7379,5.7494,5.8124,5.9083,5.9524,5.9441,5.8951,5.8388,5.7165,5.5415,5.276,5.1328,5.0391,4.7904,4.5989,4.4266,4.1913,4.1077,4.071,3.9036,3.7852,3.6566,3.4003,3.207,3.0723,3.0644,3.2891,3.5723,3.7559,3.9394,4.1172,0.0,4.4473,4.6445,4.8965,5.0801,5.2773,5.539,5.7383,5.8945,5.9961,6.0937,6.1582,6.1699,6.1035,6.0527,6.0506,6.1026,6.1393,6.1393,6.1324,6.1281,6.1281,6.05,5.9938,5.9764,5.8294,5.7357,5.7164,5.5722,5.489,5.4793,5.4116,5.373,5.3652,5.373,5.373,5.3614,5.284,5.2384,5.2171,5.1389,5.0995,5.0898,5.0898,5.0898,5.0898,5.0898,5.084,5.0666,4.9861,4.901,4.8121,0.0,0.0,0.0,0.0,0.0,0.0,0.0,0.0,2.2335,2.245,2.266,2.2878,2.3083,2.348,2.3975,2.4611,2.655,2.9084,3.23,3.6389,4.0855,4.5681,4.8328,5.0926,5.3509,5.4367,5.5061,5.5645,5.6479,5.6928,5.7008,5.749,5.7881,5.8215,5.8215,5.8466,5.8926,5.9307,5.9046,5.8378,5.8083,5.6656,5.4457,5.2094,4.9442,4.6775,4.5266,4.3699,0.0,3.9383,3.8935,3.9217,3.8051,3.7461,3.6893,3.5321,3.3669,3.2578,3.3594,3.6016,3.8809,4.1016,4.3262,4.5508,4.7676,4.9531,5.1387,5.3496,5.4883,5.6367,5.8437,5.9414,6.0176,6.1015,6.1465,6.1523,6.1015,6.0625,6.0039,5.9062,5.919,5.9532,5.9967,5.9942,5.9894,5.9894,5.9476,5.8979,5.8463,5.7727,5.6854,5.5877,5.5161,5.4339,5.3344,5.3449,5.3255,5.2801,5.3275,5.3227,5.2724,5.2364,5.1912,5.1428,5.1053,5.0898,5.0898,5.0898,5.0898,5.0898,5.0898,5.0608,5.0171,4.9823,4.9475,4.8952,0.0,0.0,0.0,0.0,0.0,0.0,0.0,0.0,0.0,0.0,2.2296,2.2324,2.2391,2.2501,2.2815,2.3416,2.5588,2.8196,3.1163,3.5675,4.0392,4.5224,4.7587,5.0381,5.376,5.4013,5.4651,5.571,5.6564,5.6994,5.7075,5.7728,5.8027,5.7988,5.8009,5.8048,5.805,5.8409,5.807,5.7296,5.6785,5.5115,5.2683,5.0157,4.6579,4.2843,4.226,4.0706,3.8543,3.6248,3.5941,3.6414,3.584,3.5853,3.5942,3.5348,3.4825,3.4821,3.6601,3.914,4.1875,4.4199,4.6914,4.9629,5.1953,5.3828,5.5508,5.7012,5.7637,5.8262,5.9492,5.9707,6.0,6.0879,6.1191,6.1113,6.0488,6.0,5.918,5.7715,5.7129,5.703,5.756,5.8191,5.8574,5.8574,5.8465,5.8123,5.7488,5.7159,5.6451,5.5244,5.4967,5.4243,5.3061,5.3165,5.2932,5.2361,5.2672,5.2504,5.1903,5.1858,5.1505,5.0898,5.0898,5.0898,5.0898,5.0898,5.0898,5.0898,5.0898,5.0415,4.9707,4.9707,4.9552,4.9126,0.0,0.0,0.0,0.0,0.0,0.0,0.0,0.0,0.0,0.0,0.0,2.2324,2.2391,2.246,2.2542,2.2626,2.5014,2.7578,3.0081,3.4526,3.9214,4.405,4.5695,4.8279,5.2085,5.2498,5.3368,5.4739,5.5673,5.6062,5.5939,5.6238,5.6317,5.6179,5.6317,5.6376,5.6377,5.6743,5.6415,5.5567,5.4239,5.2359,4.9958,4.6626,4.2899,3.9457,3.9419,3.7247,3.4141,3.2432,3.1921,3.1999,3.2046,3.259,3.3235,3.3274,3.51,3.748,3.9291,4.2264,4.5272,4.7031,5.0039,5.3008,5.4785,5.6523,5.8047,5.8945,5.8476,5.793,5.7969,5.7988,5.8262,5.9121,5.9922,6.043,6.039,5.9004,5.7637,5.6758,5.5156,5.4121,5.414,5.6331,5.7734,5.7734,5.7673,5.7624,5.7604,5.6722,5.625,5.6241,5.5366,5.4894,5.4924,5.3323,5.2528,5.2489,5.1603,5.1152,5.1132,5.0993,5.0937,5.0898,5.0898,5.0898,5.0898,5.0898,5.0898,5.0898,5.0898,5.0415,4.9707,4.9707,4.9165,4.8314,0.0,0.0,0.0,0.0,0.0,0.0,0.0,0.0,0.0,0.0,0.0,0.0,0.0,0.0,0.0,0.0,2.4023,2.5995,2.8388,3.1678,3.5681,4.0473,4.2145,4.4782,4.8713,4.8887,4.988,5.1778,5.2139,5.2766,5.3637,5.3792,5.4109,5.4572,5.4611,5.4648,5.4648,5.4764,5.3701,5.1889,5.1127,4.8445,4.468,4.2648,3.9029,3.4911,0.0,3.2666,3.1422,2.9734,2.9589,3.0171,3.0738,3.1516,3.2706,3.5049,3.796,4.0857,4.2663,4.5683,4.8894,5.1262,5.3589,5.5737,5.7437,5.7867,5.7828,5.7536,5.6774,5.5817,5.4667,5.4921,5.541,5.5703,5.6953,5.7871,5.7871,5.789,5.7148,5.5117,5.4355,5.3555,5.2383,5.408,5.5483,5.6069,5.604,5.6263,5.6848,5.6487,5.6003,5.545,5.5132,5.473,5.4279,5.3084,5.2519,5.2562,5.1612,5.1176,5.1156,5.1118,5.1078,5.1037,5.1037,5.0976,5.0898,5.0898,5.0898,5.0898,5.0898,5.0078,4.8908,4.8908,4.8012,4.6835,0.0,0.0,0.0,0.0,0.0,0.0,0.0,0.0,0.0,0.0,0.0,0.0,0.0,0.0,0.0,0.0,0.0,2.4708,2.6551,2.8983,3.2195,3.6399,3.7771,4.0362,4.4519,4.4421,4.5401,4.7511,4.7634,4.8128,4.897,4.9252,4.9787,5.0528,5.0693,5.0915,5.1175,5.0878,4.967,4.7811,4.6654,4.3834,4.0155,3.8441,3.5168,0.0,2.9969,2.9115,2.8462,2.7698,2.781,2.8466,2.9583,3.1185,3.3393,3.7201,4.0524,4.3486,4.5905,4.9083,5.2212,5.4294,5.6122,5.7631,5.8485,5.8038,5.7004,5.55,5.4037,5.2475,5.0739,5.113,5.1912,5.2519,5.4589,5.6249,5.6562,5.7089,5.6699,5.4707,5.4199,5.3555,5.2441,5.334,5.4238,5.4785,5.5072,5.563,5.6489,5.6428,5.6131,5.5589,5.5549,5.5176,5.4401,5.3481,5.273,5.2136,5.1517,5.1229,5.1203,5.1203,5.117,5.1146,5.1146,5.1084,5.1005,5.099,5.0983,5.1004,5.0947,5.0143,4.8968,4.8651,4.7653,4.6496,0.0,0.0,0.0,0.0,0.0,0.0,0.0,0.0,0.0,0.0,0.0,0.0,0.0,0.0,0.0,0.0,0.0,0.0,2.4682,2.6504,2.8925,3.1999,3.2827,3.5243,3.9532,3.9181,3.9964,4.1975,4.2169,4.228,4.2275,4.2919,4.3603,4.4341,4.4772,4.5417,4.6067,4.5305,4.4432,4.3355,4.1014,3.868,3.6374,3.4101,3.139,2.8702,2.8069,2.6774,2.55,2.6327,2.6736,2.7217,2.8953,3.1839,3.5425,3.9702,4.2795,4.5576,4.9019,5.2426,5.5219,5.6184,5.768,5.8699,5.7872,5.6943,5.55,5.2805,5.0248,4.7963,4.6225,4.6655,4.7826,4.9505,5.2727,5.5346,5.6267,5.6521,5.6287,5.539,5.457,5.4043,5.4004,5.4004,5.4023,5.4062,5.4824,5.5683,5.6543,5.6549,5.6528,5.6601,5.6549,5.6118,5.5312,5.4394,5.3044,5.1318,5.1318,5.1277,5.1214,5.1214,5.1211,5.1207,5.1207,5.1207,5.1195,5.1122,5.115,5.1186,5.1056,5.0564,4.9807,4.8985,4.8091,4.7183,0.0,0.0,0.0,0.0,0.0,0.0,0.0,0.0,0.0,0.0,0.0,0.0,0.0,0.0,0.0,0.0,0.0,0.0,2.3777,2.4891,2.6417,2.8363,2.9211,3.0734,3.3053,3.2979,3.3632,3.5048,3.5152,3.6047,3.7699,3.797,3.8958,4.051,4.0633,4.0785,4.0977,4.0773,3.951,3.7573,3.6278,3.406,3.1373,3.0267,2.8681,2.7038,2.6968,2.6659,2.6288,2.6524,2.8698,3.1698,3.4026,3.7103,4.0458,4.3469,4.6617,4.9744,5.2632,5.5447,5.7645,5.7994,5.8505,5.8195,5.5473,5.323,5.066,4.6796,4.4435,4.2562,4.0887,4.1767,4.3311,4.5052,4.8763,5.1966,5.3471,5.5365,5.6282,5.5405,5.5093,5.4703,5.4061,5.4003,5.4276,5.4922,5.5176,5.5683,5.6543,5.6581,5.6581,5.6601,5.6581,5.6151,5.5312,5.3789,5.2461,5.1365,5.1365,5.1363,5.1359,5.1359,5.1328,5.1279,5.1279,5.1255,5.1203,5.118,5.1183,5.1191,5.1164,5.066,4.9948,4.9714,4.8704,4.7414,0.0,0.0,0.0,0.0,0.0,0.0,0.0,0.0,0.0,0.0,0.0,0.0,0.0,0.0,0.0,0.0,0.0,0.0,0.0,2.3499,2.432,2.5512,2.6054,2.7062,2.8644,2.8678,2.9191,3.022,3.0282,3.0958,3.2229,3.2484,3.3431,3.494,3.5081,3.5423,3.5823,3.5434,3.4507,0.0,0.0,3.0265,2.8316,2.7722,2.6764,2.5774,2.5967,2.6755,2.7986,2.9871,3.2564,3.5641,3.8584,4.1335,4.4047,4.698,4.9731,5.2367,5.4998,5.7284,5.8974,5.9133,5.8374,5.6698,5.3361,5.0104,4.666,4.2744,4.0299,3.8572,3.7639,3.885,4.0688,4.2799,4.7055,5.0708,5.245,5.4949,5.6414,5.5928,5.587,5.5676,5.519,5.5132,5.5347,5.5838,5.5527,5.5683,5.6543,5.6601,5.6601,5.6601,5.623,5.543,5.418,5.2812,5.1875,5.1406,5.1406,5.1406,5.1406,5.1406,5.1385,5.1338,5.1338,5.131,5.1295,5.1262,5.1267,5.1277,5.1262,5.1,5.0567,5.018,4.9204,4.8019,0.0,0.0,0.0,0.0,0.0,0.0,0.0,0.0,0.0,0.0,0.0,0.0,0.0,0.0,0.0,0.0,0.0,0.0,0.0,0.0,2.2777,2.3423,2.3567,2.427,2.5611,2.5646,2.5988,2.6678,2.6753,2.6849,2.7013,2.7384,2.8121,2.9181,2.9497,3.0165,3.1004,3.0235,2.9865,2.9625,2.8289,2.7236,2.6441,0.0,2.5459,2.4902,2.5299,2.7009,2.9761,3.4038,3.6757,3.895,4.2489,4.4836,4.6941,5.0231,5.2395,5.4241,5.6676,5.8473,5.9634,5.9466,5.7474,5.4641,5.1042,4.6969,4.2958,3.9405,3.6809,3.5172,3.529,3.6735,3.8786,4.1459,4.6122,5.0069,5.1914,5.453,5.6309,5.6414,5.6532,5.6591,5.6592,5.6592,5.6592,5.6593,5.5896,5.5801,5.6562,5.6601,5.6543,5.6426,5.5469,5.4238,5.2715,5.1836,5.1406,5.1406,5.1406,5.1406,5.1406,5.1406,5.1406,5.1406,5.1406,5.1406,5.1405,5.1344,5.1345,5.1387,5.1339,5.1357,5.1286,5.0426,4.9546,4.8684,0.0,0.0,0.0,0.0,0.0,0.0,0.0,0.0,0.0,0.0,2.2296,2.2296,0.0,0.0,0.0,0.0,0.0,0.0,0.0,0.0,0.0,2.2689,2.2716,2.2904,2.3285,2.3285,2.3353,2.3491,2.3519,2.3979,2.484,2.5088,2.5787,2.687,2.716,2.7427,2.7637,2.7489,2.7009,2.6334,2.6067,2.5457,2.4746,2.4829,0.0,0.0,2.5838,2.7447,2.9761,3.4038,3.7526,4.0785,4.4951,4.7894,5.0346,5.3049,5.503,5.6753,5.8569,5.98,6.0081,5.7998,5.5644,5.2395,4.6892,4.2461,3.8338,3.4196,3.1932,3.0919,3.1581,3.3123,3.5389,3.8728,4.2982,4.6729,4.9134,5.2353,5.4717,5.5441,5.6163,5.6595,5.6603,5.6603,5.6606,5.6592,5.6458,5.6441,5.658,5.6601,5.6269,5.5547,5.3984,5.3008,5.2695,5.1836,5.1406,5.1406,5.1406,5.1406,5.1405,5.1405,5.1404,5.1401,5.1401,5.14,5.1399,5.1399,5.1397,5.1395,5.1394,5.1391,5.1294,5.0427,4.955,4.8672,0.0,0.0,0.0,0.0,0.0,0.0,0.0,2.1228,2.187,2.2245,2.2296,2.2296,2.2296,2.2296,2.231,0.0,0.0,0.0,0.0,0.0,0.0,2.2555,2.2596,2.2632,2.2699,2.2699,2.2699,2.2699,0.0,2.2963,2.3467,2.3565,2.3978,2.4634,2.4874,2.5076,2.5248,2.5386,2.5205,2.4818,2.4819,2.4589,2.4266,2.4466,0.0,0.0,2.6096,2.7336,2.9014,3.2846,3.6103,3.9585,4.5624,4.899,5.1212,5.3741,5.5684,5.7272,5.8531,5.9492,5.9511,5.6953,5.3793,4.9877,4.4353,3.9572,3.5367,3.1978,3.0022,2.9181,3.0021,3.1531,3.3665,3.6709,4.0808,4.4478,4.7033,5.0818,5.3659,5.4517,5.5786,5.6608,5.6593,5.6595,5.6596,5.66,5.6175,5.5928,5.5913,5.5485,5.4842,5.3963,5.3142,5.2478,5.2029,5.1619,5.1404,5.1404,5.1404,5.1403,5.1402,5.1402,5.1401,5.1398,5.1398,5.1397,5.1394,5.1391,5.1407,5.1402,5.1396,5.1394,5.1299,5.0412,4.9557,4.8681,0.0,0.0,0.0,0.0,0.0,0.0,0.0,2.0822,2.1634,2.2212,2.2296,2.2296,2.2296,2.2296,2.2324,0.0,0.0,0.0,0.0,0.0,0.0,0.0,0.0,0.0,2.2699,0.0,0.0,2.2699,2.2699,0.0,0.0,0.0,0.0,0.0,2.345,2.3692,2.3896,2.4103,2.419,0.0,0.0,2.421,2.421,0.0,0.0,0.0,0.0,2.6804,2.8011,3.1065,3.3654,3.6788,4.3547,4.7605,5.0414,5.3145,5.5145,5.6733,5.7973,5.8761,5.8627,5.6069,5.226,4.774,4.247,3.7417,3.3111,3.0587,2.8805,2.7984,2.8863,3.0361,3.2243,3.465,3.8497,4.2055,4.4637,4.8791,5.1954,5.3032,5.5025,5.6313,5.6313,5.6489,5.6528,5.6333,5.5345,5.4828,5.5012,5.4192,5.3411,5.2726,5.2511,5.2082,5.1418,5.1398,5.1398,5.1398,5.1398,5.1397,5.1396,5.1396,5.1396,5.1395,5.1395,5.1391,5.1407,5.1407,5.1402,5.1394,5.1394,5.1394,5.1297,5.0416,4.9558,4.8685,0.0,0.0,0.0,0.0,0.0,0.0,0.0,2.1248,2.2212,2.2279,2.2296,2.2296,2.2296,2.2296,2.2296,0.0,0.0,0.0,0.0,0.0,0.0,0.0,0.0,0.0,0.0,0.0,0.0,2.2699,2.2699,0.0,0.0,0.0,0.0,0.0,0.0,2.4151,2.4161,2.418,0.0,0.0,0.0,0.0,0.0,0.0,0.0,0.0,0.0,2.5815,2.6987,2.8831,3.0655,3.2814,3.6558,4.2115,4.7894,5.1173,5.3376,5.5241,5.7646,5.8357,5.78,5.5241,5.1395,4.6682,4.0854,3.5631,3.1337,2.883,2.7004,2.6114,2.6995,2.8567,3.0283,3.1994,3.5196,3.8415,4.1087,4.5175,4.8527,5.0258,5.3385,5.5415,5.5415,5.6138,5.6274,5.5474,5.3875,5.3279,5.4074,5.3294,5.2785,5.2707,5.1926,5.1476,5.1398,5.1398,5.1398,5.1398,5.1398,5.1396,5.139,5.139,5.1407,5.1396,5.1396,5.1396,5.1396,5.1396,5.1394,5.1394,5.1394,5.1394,5.1297,5.0416,4.9558,4.8681,0.0,0.0,0.0,0.0,0.0,0.0,1.9934,2.0927,2.1803,2.2229,2.2296,2.2296,2.2296,2.1904,2.1817,2.2315,0.0,0.0,0.0,0.0,0.0,0.0,0.0,0.0,0.0,0.0,2.2777,2.2944,2.2944,0.0,0.0,0.0,0.0,0.0,0.0,2.3966,2.3976,2.4123,0.0,0.0,0.0,0.0,0.0,0.0,0.0,0.0,0.0,0.0,2.5946,2.7188,2.8376,2.9777,3.2154,3.5794,4.0265,4.5733,4.925,5.1921,5.4468,5.5522,5.5289,5.2827,4.8962,4.435,3.8962,3.4278,3.0507,2.8454,2.6743,2.5691,2.5994,2.7025,2.8348,3.0009,3.2732,3.5551,3.8173,4.2715,4.624,4.747,5.1098,5.3724,5.4336,5.5194,5.5363,5.4574,5.3385,5.2628,5.2441,5.2109,5.1914,5.1914,5.1581,5.1405,5.1405,5.1405,5.1405,5.1405,5.1405,5.1403,5.14,5.14,5.1398,5.1394,5.1394,5.1394,5.1394,5.1394,5.1394,5.1394,5.1394,5.1394,5.1297,5.0416,4.987,4.9382,0.0,0.0,0.0,0.0,0.0,1.908,1.9592,2.0348,2.1025,2.1552,2.1823,2.1874,2.1654,2.1363,2.1322,2.1668,2.1973,0.0,0.0,0.0,0.0,0.0,0.0,0.0,0.0,0.0,2.2881,2.2982,2.3109,2.3224,0.0,0.0,2.3522,2.3533,0.0,0.0,0.0,0.0,0.0,0.0,0.0,0.0,0.0,0.0,0.0,0.0,0.0,0.0,0.0,0.0,0.0,2.7314,2.8785,3.0624,3.3576,4.0406,4.4775,4.7952,5.0526,5.1819,5.1913,4.9711,4.6099,4.1829,3.7017,3.2946,2.9694,2.8001,2.6545,2.5587,2.5513,2.6371,2.7496,2.8623,3.1182,3.3759,3.5833,4.0387,4.3938,4.5089,4.8976,5.1954,5.2945,5.3864,5.4275,5.3967,5.2928,5.2058,5.1433,5.1394,5.1277,5.1023,5.1023,5.0887,5.0633,5.0887,5.1023,5.1023,5.1277,5.1394,5.1394,5.1394,5.1394,5.1394,5.1394,5.1394,5.1394,5.1394,5.1394,5.1394,5.1394,5.1394,5.1336,5.0709,5.0319,4.9928,0.0,0.0,0.0,0.0,0.0,0.0,1.891,1.9541,2.0018,2.0018,2.072,2.0906,2.0103,2.072,2.0873,2.0086,2.0802,0.0,0.0,0.0,0.0,0.0,0.0,0.0,0.0,0.0,2.297,2.2699,2.3165,2.3301,2.3102,2.358,2.3795,2.3806,0.0,0.0,0.0,0.0,0.0,0.0,0.0,0.0,0.0,0.0,0.0,0.0,0.0,0.0,0.0,0.0,0.0,0.0,0.0,2.7144,2.9196,3.5977,4.0351,4.353,4.6062,4.7405,4.7663,4.5966,4.2983,3.932,3.5079,3.158,2.8757,2.7145,2.6167,2.5587,2.5513,2.6913,2.8043,2.7927,3.0723,3.3235,3.4186,3.8026,4.1402,4.3204,4.7203,5.0184,5.1148,5.213,5.3013,5.374,5.232,5.1414,5.1394,5.1394,5.1004,5.0143,5.0104,4.9694,4.8837,4.9675,5.0104,5.0124,5.0984,5.1394,5.1394,5.1394,5.1394,5.1394,5.1394,5.1394,5.1394,5.1394,5.1394,5.1394,5.1394,5.1394,5.1394,5.1394,5.0848,5.0104,0.0,0.0,0.0,0.0,0.0,0.0,0.0,1.9096,1.9423,1.9934,2.0217,2.0285,2.0018,1.979,1.9532,1.9336,2.0535,0.0,0.0,0.0,0.0,0.0,0.0,0.0,0.0,0.0,2.2863,2.2965,2.3265,2.3455,2.358,2.3925,2.4074,2.4084,2.4161,2.419,0.0,0.0,0.0,0.0,0.0,0.0,2.4915,0.0,0.0,0.0,0.0,0.0,0.0,0.0,0.0,0.0,0.0,0.0,0.0,3.0139,3.4155,3.812,4.0091,4.1646,4.2489,4.1459,3.9046,3.6124,3.3141,3.0344,2.8073,2.702,2.616,2.5578,2.545,2.6374,2.7305,2.782,3.0256,3.239,3.3228,3.7081,4.0246,4.1416,4.6528,5.0475,5.1818,5.2415,5.2762,5.2906,5.1971,5.1141,5.0534,5.0514,5.0397,5.0104,5.0104,4.9675,4.8818,4.9072,4.952,5.0104,5.0377,5.0828,5.1394,5.1394,5.1394,5.1394,5.1394,5.1394,5.1394,5.1394,5.1394,5.1394,5.1394,5.1394,5.1394,5.1394,5.1238,5.0906,0.0,0.0,0.0,0.0,0.0,0.0,0.0,1.8488,1.8657,1.9118,1.9406,1.949,1.9191,1.9024,1.8958,1.8993,2.0152,0.0,0.0,0.0,0.0,0.0,0.0,0.0,0.0,2.2922,2.3042,2.3212,2.3856,2.4024,2.3806,2.4395,2.4493,2.419,2.419,2.419,0.0,0.0,0.0,0.0,0.0,0.0,2.5087,0.0,0.0,0.0,0.0,0.0,0.0,0.0,0.0,0.0,0.0,0.0,0.0,0.0,2.9225,3.2445,3.4757,3.6389,3.7243,3.6457,3.4825,3.2854,3.0731,2.885,2.7319,2.6507,2.5979,2.5598,2.5496,2.6431,2.738,2.787,3.0304,3.2448,3.3317,3.6874,4.03,4.2776,4.7076,5.0467,5.2072,5.2176,5.2217,5.2407,5.1489,5.0644,5.0059,4.9764,4.946,4.9167,4.9167,4.8738,4.7861,4.8174,4.8623,4.9167,4.9792,5.0377,5.0926,5.1258,5.1394,5.1394,5.1394,5.1394,0.0,5.1394,5.1394,5.1394,5.1394,5.1394,5.1394,5.1394,5.1394,5.1277,0.0,0.0,0.0,0.0,0.0,0.0,0.0,1.78,1.78,1.78,1.8403,1.8589,1.7952,1.8551,1.901,1.9079,0.0,0.0,0.0,0.0,0.0,0.0,0.0,0.0,2.3114,2.3312,2.3403,2.3403,2.4709,2.4868,2.3914,2.4925,2.5007,2.4281,2.4226,2.419,0.0,0.0,0.0,0.0,0.0,0.0,0.0,0.0,0.0,0.0,0.0,0.0,0.0,0.0,0.0,0.0,0.0,0.0,0.0,0.0,0.0,0.0,0.0,3.1649,3.2145,3.1343,3.0584,2.9627,2.808,2.7198,0.0,2.5754,2.5648,2.5676,2.5617,2.6973,2.8066,2.801,3.0742,3.321,3.4167,3.7348,4.1447,4.644,4.8505,5.0182,5.1846,5.1528,5.1453,5.2064,5.084,4.9979,4.9726,4.9062,4.8326,4.7528,4.7508,4.712,4.63,4.71,4.7547,4.7625,4.9187,4.9948,5.0026,5.0848,5.1219,5.1219,5.1277,5.1316,5.1316,5.1375,5.1394,5.1394,5.1394,5.1355,5.1316,5.1316,5.1275,5.11,0.0,0.0,0.0,0.0,0.0,0.0,0.0,0.0,0.0,0.0,1.7952,1.8217,1.8606,1.8851,1.9261,0.0,0.0,0.0,0.0,0.0,0.0,0.0,0.0,0.0,2.3329,2.3387,2.3403,2.3403,2.4537,2.4954,2.473,2.5181,2.5301,2.5081,2.4465,2.419,0.0,0.0,0.0,0.0,0.0,0.0,0.0,0.0,0.0,0.0,2.5208,2.5197,0.0,0.0,0.0,0.0,0.0,0.0,0.0,0.0,2.5325,2.565,2.6447,0.0,2.8822,2.8612,2.7944,2.7234,0.0,2.6279,2.5697,2.5618,2.5615,2.5622,2.5591,2.6926,2.8016,2.8002,3.0702,3.3173,3.4162,3.8443,4.2913,4.6843,4.8258,4.9521,5.1026,5.1184,5.0919,5.0271,5.0004,4.9327,4.8047,4.7811,4.7374,4.6632,4.6612,4.6515,4.63,4.6495,4.6944,4.7606,4.7996,4.8504,4.9111,4.9325,4.9403,4.9442,5.0124,5.0416,5.0455,5.1121,5.1394,5.1394,5.1394,5.0984,5.0416,5.0416,4.9979,4.9379,0.0,0.0,0.0,0.0,0.0,0.0,0.0,0.0,0.0,0.0,0.0,0.0,0.0,0.0,0.0,0.0,0.0,0.0,0.0,0.0,0.0,0.0,0.0,2.3448,2.3577,2.3577,2.3631,2.3774,2.5099,2.5553,2.5199,2.5717,2.576,2.5356,2.4566,2.419,0.0,0.0,0.0,0.0,2.476,0.0,0.0,0.0,0.0,0.0,2.5195,2.5203,0.0,2.5191,2.5191,2.5191,0.0,0.0,0.0,0.0,2.5191,2.5191,2.5191,2.5854,2.6561,2.6561,2.6238,2.5955,2.6039,2.5762,2.5501,2.5593,2.5928,2.6208,2.6208,2.7537,2.8753,2.9098,3.1623,3.455,3.7475,4.1269,4.4612,4.6946,4.8281,4.9336,5.0132,5.0364,5.0209,4.9602,4.8974,4.8202,4.727,4.6952,4.6625,4.6228,4.6271,4.63,4.63,4.63,4.6534,4.7002,4.7411,4.782,4.8252,4.8623,4.8798,4.8837,4.9306,4.9501,4.954,5.0008,5.0204,5.0204,5.0213,4.9922,4.9497,4.9477,4.9176,4.8742,0.0,0.0,0.0,0.0,0.0,0.0,0.0,0.0,0.0,0.0,0.0,0.0,0.0,0.0,0.0,0.0,0.0,0.0,0.0,0.0,0.0,0.0,0.0,2.3639,2.3865,2.3847,2.403,2.4373,2.5878,2.6319,2.5778,2.6337,2.6117,2.5191,2.4522,2.4219,0.0,0.0,0.0,0.0,2.4912,0.0,0.0,0.0,0.0,0.0,0.0,0.0,0.0,2.5191,2.5191,2.5191,2.5208,0.0,0.0,0.0,0.0,0.0,2.5191,2.5203,2.5228,2.5228,2.5297,2.5397,2.5419,2.5603,2.5786,2.5792,2.6473,2.7093,2.7098,2.8466,2.9831,3.0577,3.3224,3.6845,4.1632,4.417,4.5926,4.6934,4.8227,4.9101,4.9225,4.9339,4.9324,4.9146,4.7888,4.7049,4.6834,4.6343,4.6087,4.6098,4.6238,4.63,4.63,4.63,4.63,4.63,4.7042,4.7391,4.7411,4.8115,4.8427,4.8427,4.8564,4.8623,4.8623,4.8759,4.8796,4.8792,4.8791,4.8716,4.8589,4.8522,4.8457,4.8278,0.0,0.0,0.0,0.0,0.0,0.0,0.0,0.0,0.0,0.0,0.0,0.0,0.0,0.0,0.0,0.0,0.0,0.0,0.0,0.0,0.0,2.4084,2.4084,2.4094,2.4141,2.4141,2.4491,2.5209,2.6153,2.6888,2.7431,2.6869,2.5805,2.4383,2.4376,2.4373,2.4382,0.0,0.0,0.0,2.4865,0.0,0.0,0.0,0.0,0.0,0.0,0.0,0.0,2.5191,2.5191,2.5203,2.5269,0.0,0.0,0.0,0.0,0.0,2.5191,2.5242,2.5271,2.5271,2.5292,2.5341,2.546,2.6064,2.6636,2.6683,2.7352,2.7925,2.799,2.9313,3.0677,3.1473,3.5605,3.9774,4.2781,4.4153,4.5445,4.7067,4.7365,4.775,4.8488,4.8466,4.816,4.7526,4.7086,4.663,4.6094,4.5988,4.5987,4.6098,4.6238,4.63,4.63,4.63,4.63,4.63,4.6436,4.6495,4.6495,4.6632,4.6671,4.671,4.7451,4.7781,4.784,4.8525,4.8808,4.8808,4.8806,4.8301,4.7616,4.7606,4.7136,4.648,0.0,0.0,0.0,0.0,0.0,0.0,0.0,0.0,0.0,0.0,0.0,0.0,0.0,0.0,0.0,0.0,0.0,0.0,0.0,0.0,0.0,2.419,2.419,2.4392,2.4842,2.4842,2.5246,2.6043,2.6851,2.7438,2.778,2.6979,2.575,2.4199,2.4347,2.4398,2.4415,2.4693,2.4816,0.0,0.0,0.0,0.0,0.0,0.0,0.0,0.0,0.0,0.0,0.0,2.5191,2.5216,2.5236,0.0,0.0,0.0,0.0,0.0,2.5242,2.5285,2.5302,2.5346,2.5735,2.6131,2.6188,2.7233,2.8216,2.824,2.9288,3.0224,3.0241,3.1243,3.2776,3.501,3.841,4.1576,4.3801,4.4754,4.5544,4.6332,4.6829,4.7226,4.7557,4.7592,4.7422,4.6974,4.651,4.6086,4.5642,4.5834,4.5978,4.5993,4.6164,4.6251,4.63,4.63,4.63,4.63,4.63,4.63,4.63,4.63,4.63,4.6319,4.6698,4.6848,4.6867,4.7245,4.7407,4.7392,4.7352,4.7092,4.6741,4.6719,4.6429,4.6032,0.0,0.0,0.0,0.0,0.0,0.0,0.0,0.0,0.0,0.0,0.0,0.0,0.0,0.0,0.0,0.0,0.0,0.0,0.0,0.0,2.419,2.419,2.419,2.4585,2.5374,2.5393,2.5888,2.6888,2.731,2.7452,2.7274,2.6638,2.5619,2.4321,2.4459,2.4524,2.454,2.4847,2.4974,0.0,0.0,0.0,0.0,0.0,0.0,0.0,0.0,0.0,0.0,0.0,0.0,0.0,0.0,0.0,0.0,2.5312,2.5285,2.5208,2.529,2.5311,2.5312,2.5373,2.6118,2.6846,2.7051,2.8604,3.0069,3.0263,3.1525,3.259,3.259,3.3433,3.5266,3.8727,4.0931,4.2886,4.4732,4.5453,4.5782,4.5796,4.6401,4.6786,4.6714,4.6757,4.6735,4.6642,4.6104,4.5715,4.5543,4.5829,4.5972,4.5931,4.6099,4.6228,4.6286,4.6271,4.6277,4.63,4.63,4.63,4.63,4.6277,4.6275,4.6273,4.6228,4.6198,4.6195,4.6209,4.6192,4.6162,4.613,4.6111,4.6146,4.6093,4.6037,4.6002,0.0,0.0,0.0,0.0,0.0,0.0,0.0,0.0,0.0,0.0,0.0,0.0,0.0,0.0,0.0,0.0,0.0,0.0,0.0,0.0,2.419,2.419,2.419,2.4585,2.5374,2.5393,2.6164,2.7714,2.7016,2.6375,2.5755,2.5699,2.5316,2.4676,2.4804,2.4855,2.4881,2.5095,2.518,2.518,0.0,0.0,0.0,0.0,0.0,0.0,0.0,0.0,0.0,0.0,0.0,0.0,0.0,0.0,2.5242,2.5432,2.5351,2.5208,2.529,2.5311,2.5312,2.5373,2.6118,2.7013,2.7815,2.9984,3.2046,3.2846,3.3701,3.4326,3.4326,3.5582,3.7806,4.1349,4.2646,4.3819,4.5656,4.5952,4.6002,4.6051,4.6024,4.6028,4.6139,4.5938,4.591,4.6134,4.588,4.5782,4.5944,4.5991,4.6002,4.5997,4.6138,4.6203,4.6206,4.6217,4.6243,4.63,4.63,4.63,4.63,4.624,4.6211,4.6209,4.6196,4.6203,4.6203,4.6199,4.6158,4.6102,4.6098,4.6051,4.6012,4.6007,4.6002,4.6002,0.0,0.0,0.0,0.0,0.0,0.0,0.0,0.0,0.0,0.0,0.0,0.0,0.0,0.0,0.0,0.0,0.0,0.0,0.0,2.419,2.419,2.419,2.419,2.4615,2.5513,2.5434,2.5986,2.7185,2.6998,2.6525,2.5784,2.5784,2.5396,2.4707,2.4832,2.4902,2.4915,2.5113,2.5191,2.5191,2.5191,2.5191,0.0,0.0,0.0,0.0,0.0,0.0,0.0,0.0,2.5225,2.528,2.5317,2.5297,2.5296,2.541,2.5327,2.5208,2.529,2.5327,2.549,2.6019,2.7291,2.8491,2.8838,3.1312,3.3798,3.4668,3.5954,3.693,3.693,3.7428,3.8806,4.1784,4.2928,4.4033,4.5808,4.6022,4.6007,4.6027,4.5986,4.5975,4.6027,4.5953,4.5911,4.5966,4.5929,4.5867,4.5821,4.5456,4.5467,4.5917,4.5535,4.5609,4.6199,4.6193,4.6206,4.6237,4.6233,4.6233,4.6234,4.6203,4.62,4.6196,4.6158,4.6142,4.6138,4.6093,4.6066,4.6032,4.6032,4.6017,4.6002,4.6002,4.6002,4.6002,0.0,0.0,0.0,0.0,0.0,0.0,0.0,0.0,0.0,0.0,0.0,0.0,0.0,0.0,0.0,0.0,0.0,0.0,2.4266,2.4228,2.4247,2.4358,2.4303,2.4598,2.5306,2.5236,2.5746,2.6898,2.6782,2.6333,2.5578,2.5578,2.5326,2.4863,2.4947,2.4993,2.5,2.5131,2.5191,2.5191,2.5191,2.5191,0.0,0.0,0.0,0.0,0.0,0.0,0.0,0.0,2.5248,2.5311,2.5311,2.5307,2.5341,2.5393,2.5341,2.5266,2.5317,2.5351,2.5576,2.6455,2.8012,2.9563,3.0431,3.306,3.5721,3.712,3.8363,3.9105,3.8848,3.9023,3.995,4.2298,4.3379,4.4419,4.5857,4.6022,4.6002,4.6002,4.6002,4.6002,4.6002,4.6002,4.5975,4.5931,4.5731,4.5559,4.542,4.4766,4.4626,4.5135,4.4914,4.5116,4.5749,4.6037,4.6154,4.6142,4.616,4.617,4.6196,4.6185,4.6181,4.6158,4.6093,4.6075,4.6051,4.6017,4.6002,4.6002,4.6002,4.6002,4.6002,4.6002,4.6002,4.6002,0.0,0.0,0.0,0.0,0.0,0.0,0.0,0.0,0.0,0.0,0.0,0.0,0.0,0.0,0.0,0.0,0.0,0.0,2.4389,2.4275,2.4358,2.4692,2.451,2.4501,2.47,2.4707,2.548,2.7069,2.6278,2.5555,2.4908,2.4908,2.5006,2.5191,2.5191,2.5191,2.5191,2.5191,2.5191,2.5191,2.5191,2.5191,2.5191,0.0,0.0,0.0,0.0,0.0,0.0,0.0,2.5248,2.5292,2.5292,2.5346,2.5391,2.5391,2.541,2.541,2.541,2.5356,2.5563,2.6579,2.8045,2.9955,3.2726,3.5294,3.7838,4.0402,4.0927,4.0674,3.9873,4.0383,4.149,4.3233,4.4248,4.5084,4.5885,4.5982,4.5982,4.5982,4.5982,4.5982,4.5982,4.5982,4.5982,4.5982,4.5239,4.4792,4.4792,4.3957,4.3486,4.3505,4.4326,4.4773,4.4792,4.5662,4.6051,4.6002,4.6071,4.6138,4.6196,4.6134,4.6093,4.6093,4.6022,4.6002,4.6002,4.6002,4.6002,4.6002,4.6002,4.6002,4.6002,4.6002,4.6002,4.6002,0.0,0.0,0.0,0.0,0.0,0.0,0.0,0.0,0.0,0.0,0.0,0.0,0.0,0.0,0.0,0.0,0.0,0.0,2.4398,2.4495,2.4596,2.47,2.4642,2.467,2.4832,2.498,2.522,2.5555,2.5467,2.5317,2.5113,2.5113,2.5137,2.5191,2.5191,2.5191,2.5191,2.5191,2.5191,2.5191,2.5191,2.5191,2.5191,0.0,0.0,0.0,0.0,0.0,0.0,0.0,0.0,0.0,2.5374,2.5373,2.5419,2.546,2.5406,2.5327,2.5327,2.5836,2.6709,2.8124,3.029,3.2927,3.6144,3.7474,3.8907,4.2073,4.2248,4.1937,4.2306,4.2073,4.2384,4.4132,4.4637,4.5084,4.5885,4.5511,4.5161,4.5161,4.4617,4.4248,4.4248,4.4248,4.4248,4.4248,4.4015,4.3899,4.3899,4.3063,4.2869,4.3486,4.3161,4.3549,4.4792,4.5065,4.5454,4.6002,4.6017,4.6032,4.6066,4.6032,4.6022,4.6022,4.6007,4.6002,4.6002,4.6002,4.6002,4.6002,4.6002,4.6002,4.6002,4.6002,4.6002,4.6002,0.0,0.0,0.0,0.0,0.0,0.0,0.0,0.0,0.0,0.0,2.419,2.419,0.0,0.0,0.0,0.0,0.0,0.0,0.0,2.4665,2.4761,2.4891,2.4816,2.4858,2.5025,2.5131,2.5131,2.5013,2.5131,2.5191,2.5191,2.5191,2.5191,2.5191,2.5191,2.5191,2.5191,2.5191,2.5191,2.5191,2.5191,2.5191,2.5191,0.0,0.0,0.0,0.0,0.0,0.0,0.0,0.0,0.0,2.5384,2.5423,2.5484,2.5468,2.5427,2.5374,2.5346,2.6,2.7092,2.8805,3.1234,3.4365,3.8883,4.0446,4.1432,4.3161,4.3355,4.3297,4.3471,4.3355,4.3569,4.4637,4.4792,4.4967,4.5453,4.4812,4.4287,4.4287,4.3821,4.3505,4.3505,4.3505,4.3505,4.3505,4.318,4.2986,4.2986,4.2151,4.1917,4.2442,4.2287,4.2699,4.3763,4.4112,4.452,4.5006,4.5356,4.5511,4.553,4.5846,4.6002,4.6002,4.6002,4.6002,4.6002,4.6002,4.6002,4.6002,4.6002,4.6002,4.6002,4.6002,4.6002,4.6002,0.0,0.0,0.0,0.0,0.0,0.0,0.0,0.0,0.0,0.0,2.4209,2.4218,0.0,0.0,0.0,0.0,0.0,0.0,0.0,0.0,2.4884,2.518,2.5013,2.5006,2.521,2.5191,2.5191,2.5191,2.5191,2.5191,2.5191,2.5191,2.5191,2.5191,2.5191,2.5191,2.5191,2.5191,2.5191,2.5191,2.5191,2.5191,2.5191,2.5216,0.0,0.0,0.0,0.0,0.0,0.0,0.0,0.0,2.5351,2.5448,2.5577,2.5433,2.5452,2.5476,2.5419,2.6001,2.7063,2.8925,3.1516,3.511,4.0888,4.3491,4.4501,4.386,4.4307,4.4559,4.3763,4.421,4.4676,4.4676,4.4676,4.4676,4.4676,4.3938,4.3374,4.3374,4.3311,4.3253,4.3253,4.3194,4.3156,4.3156,4.2345,4.1845,4.1845,4.1179,4.0791,4.0791,4.1626,4.2116,4.2194,4.2986,4.3408,4.3505,4.4307,4.4676,4.4715,4.5594,4.6002,4.6002,4.6002,4.6002,4.6002,4.6002,4.6002,4.6002,4.6002,4.6002,4.6002,4.6002,4.6002,4.6002,0.0,0.0,0.0,0.0,0.0,0.0,0.0,0.0,0.0,0.0,0.0,0.0,0.0,0.0,0.0,0.0,0.0,0.0,0.0,0.0,2.5113,2.521,2.5162,2.5162,2.5191,2.5191,2.5191,2.5191,2.5191,2.5191,2.5191,2.5191,2.5191,2.5191,2.5191,2.5191,2.5191,2.5191,2.5191,2.5191,2.5191,2.5191,2.5216,2.5264,2.5296,0.0,0.0,0.0,0.0,0.0,0.0,0.0,2.5452,2.5488,2.5513,2.5488,2.5456,2.5415,2.5337,2.6448,2.8,2.9674,3.4133,3.8828,4.1573,4.3025,4.4093,4.522,4.5103,4.4734,4.4559,4.4112,4.3782,4.3782,4.3782,4.3782,4.3782,4.3025,4.2481,4.2481,4.1879,4.1451,4.1451,4.0888,4.0514,4.0514,3.9703,3.9222,3.9222,3.9684,3.9951,3.9951,4.0752,4.151,4.2194,4.2388,4.2811,4.3505,4.3685,4.3782,4.384,4.5317,4.6002,4.6002,4.6002,4.6002,4.6002,4.6002,4.6002,4.6002,4.6002,4.6002,4.6002,4.6002,4.6002,4.6002,0.0,0.0,0.0,0.0,0.0,0.0,0.0,0.0,0.0,0.0,0.0,0.0,0.0,0.0,0.0,0.0,0.0,0.0,0.0,0.0,2.5191,2.5191,2.5191,2.5191,2.5191,2.5191,2.5191,2.5191,2.5191,2.5191,2.5191,2.5191,2.5191,2.5191,2.5191,2.5191,2.5191,2.5191,2.5191,2.5191,2.5191,2.5191,2.5222,2.5261,2.5317,2.5346,2.5307,0.0,0.0,0.0,0.0,0.0,0.0,0.0,2.5495,2.5495,2.5456,2.5393,2.5312,2.6521,2.8503,3.149,3.5579,3.9351,4.1114,4.2223,4.3228,4.4453,4.4416,4.419,4.419,4.3821,4.3505,4.3505,4.2811,4.2267,4.2267,4.116,4.0388,4.0388,3.998,3.9703,3.9703,3.9315,3.9082,3.9082,3.8659,3.8406,3.8406,3.8829,3.9082,3.9082,3.947,3.9921,4.0388,4.0388,4.081,4.168,4.2073,4.2694,4.3544,4.4831,4.5433,4.5453,4.5827,4.6002,4.6002,4.6002,4.6002,4.6002,4.6002,4.6002,4.6002,4.6002,4.6002,4.6002,0.0,0.0,0.0,0.0,0.0,0.0,0.0,0.0,0.0,0.0,0.0,0.0,0.0,0.0,0.0,0.0,0.0,0.0,0.0,0.0,0.0,2.5191,2.5191,2.5191,2.5191,2.5191,2.5191,2.5191,2.5191,2.5191,2.5191,2.5191,2.5191,2.5191,2.5191,2.5191,2.5191,2.5191,2.5191,2.5191,2.5191,2.5222,2.522,2.5282,2.5361,2.5419,2.5356,2.5406,2.5484,2.537,0.0,0.0,0.0,0.0,2.551,2.5499,2.5456,2.5393,2.5312,2.6583,2.8868,3.2843,3.5797,3.8156,3.9774,4.0872,4.1728,4.2338,4.2881,4.3238,4.3083,4.2942,4.2787,4.2636,4.1412,4.0461,4.0461,3.928,3.8406,3.8406,3.8406,3.8406,3.8406,3.827,3.8173,3.8173,3.8037,3.7959,3.7959,3.8095,3.8173,3.8173,3.8328,3.8406,3.8406,3.8406,3.8751,3.9489,4.0305,4.1529,4.3083,4.3957,4.452,4.4831,4.5491,4.5866,4.6002,4.6002,4.6002,4.6002,4.6002,4.6002,4.6002,4.6002,4.6002,4.6002,0.0,0.0,0.0,0.0,0.0,0.0,0.0,0.0,0.0,0.0,2.4775,2.4874,0.0,0.0,0.0,0.0,0.0,0.0,2.5191,0.0,0.0,2.5191,2.5191,2.5191,2.5191,2.5191,2.5191,2.5191,2.5191,2.5191,2.5191,2.5191,2.5191,2.5191,2.5191,2.5191,2.5191,2.5191,2.5191,2.5191,2.5191,2.5231,2.5287,2.5365,2.5436,2.5484,2.5476,2.5484,2.5495,2.548,2.548,0.0,0.0,0.0,2.558,2.5513,2.5456,2.5393,2.5312,2.6979,2.9263,3.1411,3.3934,3.6153,3.7257,3.8224,3.8946,3.9034,4.0825,4.2131,4.1393,4.0674,3.9956,3.9198,3.8892,3.8736,3.8736,3.8542,3.8406,3.8406,3.8406,3.8406,3.8406,3.7722,3.7275,3.7275,3.6576,3.6144,3.6144,3.6867,3.7275,3.7275,3.8018,3.8406,3.8406,3.8406,3.8464,3.8581,3.9451,4.0344,4.1276,4.2151,4.3374,4.4812,4.4909,4.5356,4.6002,4.6002,4.6002,4.6002,4.6002,4.6002,4.6002,4.6002,4.6002,4.6002,0.0,0.0,0.0,0.0,0.0,0.0,0.0,0.0,0.0,0.0,0.0,2.5063,0.0,0.0,0.0,2.5191,2.5191,2.5191,2.5191,2.5191,2.5191,2.5191,2.5191,2.5191,2.5191,2.5191,2.5191,2.5191,2.5191,2.5449,2.5927,2.5927,2.5927,2.5927,2.5927,2.5927,2.5902,2.5405,2.5191,2.5191,2.5191,2.5242,2.5316,2.536,2.5448,2.5491,2.546,2.5429,2.5429,2.5429,2.5423,2.5415,2.5567,0.0,0.0,0.0,2.548,2.5532,2.5875,2.7124,2.8645,2.9924,3.1846,3.3662,3.4608,3.5533,3.6334,3.6755,3.7768,3.881,3.9392,3.9217,3.8848,3.8464,3.7998,3.7664,3.7664,3.6833,3.6211,3.6211,3.5822,3.5546,3.5546,3.5197,3.4964,3.4964,3.4614,3.44,3.44,3.5197,3.5643,3.5643,3.6498,3.6945,3.6945,3.6945,3.7197,3.7683,3.9043,3.9893,4.0266,4.1082,4.2422,4.4093,4.4598,4.5258,4.6002,4.6002,4.6002,4.6002,4.6002,4.6002,4.6002,4.6002,4.6002,4.6002,0.0,0.0,0.0,0.0,0.0,0.0,0.0,0.0,0.0,0.0,0.0,0.0,0.0,0.0,0.0,0.0,2.5191,2.5191,2.5191,2.5191,2.5191,2.5191,2.5191,2.5191,2.5191,2.5191,2.5203,2.522,2.522,2.5576,2.6222,2.667,2.6872,2.6872,2.6846,2.671,2.646,2.5786,2.5382,2.5191,2.5214,2.5275,2.5332,2.5406,2.5472,2.5513,2.5476,2.546,2.546,2.546,2.5423,2.5406,2.5544,2.5573,0.0,0.0,0.0,2.5608,2.6097,2.6886,2.7716,2.8366,2.9844,3.1332,3.1966,3.3014,3.4015,3.4575,3.4941,3.5566,3.6867,3.7279,3.7338,3.7143,3.6556,3.6129,3.6129,3.5002,3.421,3.421,3.3662,3.3293,3.3293,3.3293,3.3293,3.3293,3.3293,3.3293,3.3293,3.3876,3.421,3.421,3.4828,3.5154,3.5154,3.5367,3.6012,3.712,3.8635,3.9489,3.9737,4.0538,4.1723,4.3219,4.4093,4.5045,4.6002,4.6002,4.6002,4.6002,4.6002,4.6002,4.6002,4.6002,4.6002,4.6002,0.0,0.0,0.0,0.0,0.0,0.0,0.0,0.0,0.0,0.0,0.0,0.0,2.5191,2.5191,2.5191,2.5191,2.5191,2.5191,2.5191,2.5191,2.5191,2.5191,2.5191,0.0,2.5191,2.5191,2.5231,2.5282,2.5282,2.5346,2.5483,2.714,2.7923,2.7919,2.7797,2.7262,2.6498,2.6374,2.5892,2.5216,2.5275,2.5337,2.5391,2.5472,2.555,2.5595,2.5595,2.5592,2.5592,2.5592,2.5592,2.5589,2.5598,2.5598,2.5595,0.0,0.0,0.0,2.5481,2.6053,2.6665,2.6647,2.8049,2.9431,2.9405,3.0817,3.2143,3.2178,3.2843,3.3468,3.3546,3.4187,3.4443,3.3682,3.3526,3.3507,3.3507,3.3429,3.3351,3.3351,3.3332,3.3293,3.3293,3.3293,3.3293,3.3293,3.3293,3.3293,3.3293,3.3332,3.3351,3.3351,3.341,3.3429,3.3429,3.4187,3.541,3.712,3.8037,3.8907,3.9737,4.0538,4.1393,4.233,4.3199,4.4481,4.6002,4.6002,4.6002,4.6002,4.6002,4.6002,4.6002,4.6002,4.6002,4.6002,0.0,0.0,0.0,0.0,0.0,0.0,0.0,0.0,0.0,0.0,0.0,0.0,0.0,2.5191,2.5191,2.5191,2.5191,2.5191,2.5191,2.5191,2.5191,2.5191,2.5242,2.5269,2.5269,2.5302,2.5346,2.537,2.537,2.5676,2.6327,2.7478,2.8322,2.8891,2.8758,2.8212,2.7345,2.669,2.5931,2.5216,2.528,2.5341,2.5415,2.5476,2.5534,2.5595,2.5541,2.555,2.555,2.555,2.555,2.5534,2.5589,2.5601,2.5601,2.5601,2.5586,2.5541,2.5484,2.5708,2.5932,2.5865,2.6783,2.7695,2.7714,2.8617,2.9447,2.9495,2.9754,2.9968,2.9968,3.2031,3.3643,3.3351,3.3293,3.3293,3.3293,3.2827,3.2264,3.17,3.1137,3.0574,3.0026,3.0477,3.0807,3.0807,3.1312,3.1626,3.1626,3.2166,3.2474,3.2474,3.3002,3.3293,3.3293,3.4089,3.4812,3.5449,3.7454,3.8561,3.8907,4.0286,4.1374,4.2214,4.252,4.3646,4.5258,4.5788,4.6002,4.6002,4.6002,4.6002,4.6002,4.6002,4.6002,4.6002,0.0,0.0,0.0,0.0,0.0,0.0,0.0,0.0,0.0,0.0,0.0,0.0,0.0,0.0,2.5191,2.5191,2.5191,2.5191,2.5191,2.522,2.5231,2.5231,2.5292,2.5332,2.5332,2.5384,2.54,2.5421,2.5421,2.5902,2.6853,2.7667,2.8523,2.9405,2.9281,2.8748,2.7898,2.7154,2.6234,2.5266,2.5312,2.5379,2.5448,2.5506,2.5551,2.5595,2.5541,2.5527,2.5527,2.5527,2.5527,2.5534,2.5589,2.5601,2.5601,2.5601,2.5601,2.5592,2.5557,2.5573,2.5589,2.5513,2.5943,2.641,2.6427,2.7041,2.7643,2.7689,2.7909,2.81,2.81,2.9988,3.1545,3.1545,3.1545,3.1545,3.1545,3.1056,3.0473,2.9894,2.9331,2.8745,2.8162,2.8628,2.8958,2.8958,2.9505,2.9836,2.9836,3.0648,3.125,3.1545,3.2128,3.2574,3.2866,3.3682,3.4229,3.454,3.6852,3.8115,3.8445,3.9858,4.0966,4.1786,4.2078,4.3185,4.4831,4.5375,4.5769,4.6002,4.6002,4.6002,4.6002,4.6002,4.6002,4.6002,0.0,0.0,0.0,0.0,0.0,0.0,0.0,0.0,2.5191,2.5191,0.0,0.0,0.0,0.0,0.0,2.5268,2.5249,2.5249,2.5249,2.5264,2.5306,2.5311,2.537,2.541,2.5434,2.5434,2.5483,2.5576,2.5576,2.6035,2.6944,2.7754,2.8589,2.9405,2.9323,2.8814,2.7981,2.7758,2.6795,2.5391,2.5391,2.5448,2.5503,2.556,2.5601,2.5601,2.5601,2.5601,2.5601,2.5601,2.5601,2.5601,2.5601,2.5601,2.5601,2.5601,2.5601,2.5601,0.0,0.0,0.0,2.5513,2.5541,2.5586,2.5513,2.6204,2.6864,2.6867,2.7485,2.8026,2.8026,2.8026,2.8026,2.8026,2.8065,2.81,2.81,2.81,2.8081,2.8065,2.8065,2.8045,2.8026,2.8045,2.8065,2.8065,2.8084,2.81,2.81,2.8939,2.9797,3.0635,3.0694,3.1118,3.1949,3.2846,3.3682,3.4482,3.6265,3.7566,3.8425,3.9295,4.015,4.0946,4.1786,4.3146,4.4734,4.4773,4.5258,4.5963,4.5982,4.6002,4.6002,4.6002,4.6002,4.6002,0.0,0.0,0.0,0.0,0.0,0.0,2.5185,2.5191,2.5191,0.0,0.0,0.0,2.6007,2.6632,2.7014,2.7014,2.6427,2.6064,2.6064,2.5534,2.5253,2.5306,2.537,2.5726,2.6389,2.6454,2.6773,2.7381,2.7381,2.7508,2.7793,2.8647,2.9172,2.9405,2.9323,2.8834,2.8018,2.7243,2.6323,2.5395,2.5456,2.5484,2.5503,2.556,2.5601,2.5601,2.5601,2.5601,2.5601,2.5601,2.5601,2.5601,2.5601,2.5601,2.5601,2.5601,2.5601,2.5601,2.5601,0.0,0.0,0.0,0.0,0.0,2.5573,2.5735,2.5903,2.5945,2.6145,2.6297,2.6297,2.6297,2.6297,2.6297,2.7307,2.81,2.81,2.81,2.789,2.7291,2.7233,2.698,2.6356,2.6864,2.7233,2.7233,2.7773,2.81,2.81,2.8939,2.9505,2.9758,3.0364,3.083,3.1059,3.2555,3.341,3.3662,3.5993,3.7566,3.8425,3.9295,4.015,4.0907,4.114,4.1879,4.303,4.4287,4.4928,4.5181,4.5769,4.6002,4.6002,4.6002,4.6002,4.6002,0.0,0.0,0.0,0.0,0.0,2.5191,2.5191,2.5191,2.5325,0.0,0.0,0.0,2.6842,2.7396,2.7701,2.7701,2.7243,2.6937,2.6937,2.654,2.6299,2.6343,2.6434,2.6741,2.7299,2.7378,2.7637,2.81,2.81,2.8298,2.8647,2.9152,2.9583,2.9913,2.9136,2.8539,2.8019,2.673,2.591,2.5488,2.5495,2.5513,2.5557,2.5589,2.5601,2.5601,2.5601,2.5601,2.5601,2.5601,2.5601,2.5601,2.5601,2.5601,2.5601,2.5601,2.5601,2.5601,0.0,2.5601,2.5601,2.5601,0.0,0.0,2.5592,2.5577,2.5544,2.5595,2.5601,2.5601,2.5601,2.5601,2.5601,2.5601,2.6414,2.7055,2.7055,2.7055,2.688,2.6417,2.6359,2.6164,2.5659,2.6067,2.6359,2.6359,2.6783,2.721,2.7579,2.8395,2.9016,2.9389,3.0243,3.0694,3.0694,3.2069,3.2943,3.3313,3.5158,3.6653,3.7897,3.8751,3.9606,4.0422,4.0752,4.1199,4.1762,4.3141,4.3938,4.4345,4.5161,4.5491,4.553,4.5885,4.6002,4.6002,0.0,0.0,2.4967,2.515,2.518,2.5191,2.5191,2.5287,2.5587,0.0,2.6555,2.6975,2.7759,2.7931,2.7988,2.7988,2.7892,2.7829,2.7829,2.7814,2.7791,2.7796,2.7928,2.8038,2.8143,2.8209,2.8298,2.8395,2.8395,2.8783,2.9544,2.9544,2.9952,3.0616,2.888,2.81,2.7987,2.6317,2.5601,2.5595,2.5547,2.5557,2.5601,2.5601,2.5601,2.5601,2.5601,2.5601,2.5601,2.5601,2.5601,2.5601,2.5601,2.5601,2.5601,2.5601,2.5601,2.5601,2.5601,0.0,0.0,2.5601,2.5601,0.0,2.5601,2.5601,2.5601,2.5601,2.5601,2.5601,2.5601,2.5601,2.5601,2.5601,2.5601,2.5601,2.5601,2.5601,2.5601,2.5601,2.5601,2.5601,2.5601,2.5601,2.5601,2.5601,2.5601,2.597,2.6847,2.7657,2.8492,2.9369,3.0243,3.0694,3.0694,3.1564,3.2435,3.3313,3.4109,3.541,3.7139,3.7901,3.8771,3.9737,4.0461,4.083,4.0966,4.1747,4.2578,4.3433,4.4326,4.4715,4.4889,4.5594,4.5924,4.6002,0.0,2.4837,2.4915,2.4942,2.5082,2.5191,2.5191,2.574,2.6217,2.6383,2.7561,2.8478,2.865,2.9287,2.9707,2.9707,2.907,2.8669,2.8669,2.8077,2.7745,2.7796,2.7884,2.8269,2.9038,2.9105,2.9486,3.0185,3.0185,3.0282,3.0461,3.0461,3.0538,3.0616,2.888,2.81,2.7987,2.6317,2.5601,2.5598,2.5589,2.5592,2.5601,2.5601,2.5601,2.5601,2.5601,2.5601,2.5601,2.5601,2.5601,2.5601,2.5601,2.5601,2.5601,2.5601,2.5601,2.5601,2.5601,2.5601,2.5601,2.5601,2.5601,0.0,2.5601,2.5601,2.5601,2.5601,2.5601,2.5601,2.5601,2.5601,2.5601,2.5601,2.5601,2.5601,2.5601,2.5601,2.5601,2.5601,2.5601,2.5601,2.5601,2.5601,2.5601,2.5601,2.5601,2.597,2.6847,2.7657,2.8492,2.9369,3.0243,3.0694,3.0694,3.1564,3.2435,3.3313,3.4109,3.541,3.71,3.7275,3.8207,3.9699,3.9873,4.0305,4.0907,4.1082,4.1665,4.2539,4.3413,4.419,4.4812,4.4986,4.5433,4.6002,2.4926,2.4999,2.5051,2.5051,2.5468,2.5797,2.5797,2.6498,2.7186,2.758,2.8765,2.9548,2.9548,2.9937,3.0211,3.0211,2.9803,2.9548,2.9548,2.9172,2.897,2.905,2.9107,2.94,2.9933,3.0001,3.0263,3.0694,3.0694,3.0694,3.0694,3.0694,3.0694,3.0635,2.9331,2.8745,2.8667,2.7385,2.6841,2.6763,2.5951,2.5601,2.5601,2.5601,2.5601,2.5601,2.5601,2.5601,2.5601,2.5601,2.5601,2.5601,2.5601,2.5601,2.5601,2.5601,2.5601,2.5601,2.5601,2.5601,2.5601,2.5601,2.5601,0.0,0.0,2.5601,2.5601,2.5601,2.5601,2.5601,2.5601,2.5601,2.5601,2.5601,2.5601,2.5601,2.5601,2.5601,2.5601,2.5601,2.5601,2.5601,2.5601,2.5601,2.5601,2.5601,2.5601,2.597,2.6847,2.7657,2.8492,2.9369,3.0243,3.0694,3.0694,3.1137,3.2011,3.3293,3.3701,3.4808,3.6479,3.6906,3.7819,3.9082,3.9509,4.0169,4.0907,4.0907,4.116,4.1646,4.25,4.3122,4.3549,4.3996,4.4404,4.4812,2.5168,2.5191,2.5191,2.5191,2.5873,2.6402,2.6402,2.7262,2.8211,2.9051,2.9765,3.0199,3.0219,3.0219,3.0226,3.0227,3.0234,3.0221,3.0219,3.0219,3.0234,3.0273,3.0367,3.0457,3.0558,3.0657,3.0694,3.0694,3.0694,3.0694,3.0694,3.0694,3.0694,3.0655,2.9797,2.9408,2.935,2.8473,2.81,2.7987,2.6628,2.6084,2.6064,2.5912,2.5854,2.5834,2.5659,2.5601,2.5601,2.5601,2.5601,2.5601,2.5601,2.5601,2.5601,2.5601,2.5601,2.5601,2.5601,2.5601,2.5601,2.5601,2.5601,2.5601,0.0,0.0,0.0,2.5601,2.5601,2.5601,2.5601,2.5601,2.5601,2.5601,2.5601,2.5601,2.5601,2.5601,2.5601,2.5601,2.5601,2.5601,2.5601,2.5601,2.5601,2.5601,2.5601,2.6048,2.7077,2.7754,2.8589,2.9622,3.0321,3.0694,3.0694,3.0694,3.1487,3.306,3.3215,3.4089,3.5581,3.6459,3.7333,3.8192,3.9062,3.9917,4.0674,4.0849,4.0907,4.0966,4.1665,4.2058,4.2291,4.3,4.3345,4.3617,2.521,2.5191,2.5191,2.5191,2.5873,2.6402,2.6402,2.7752,2.907,2.9937,3.0128,3.0226,3.0279,3.0292,3.0303,3.037,3.0375,3.0342,3.0298,3.0292,3.0273,3.0213,3.0333,3.0407,3.0418,3.0595,3.0694,3.0694,3.0694,3.0694,3.0694,3.0694,3.0694,3.0655,2.9797,2.9408,2.935,2.8473,2.81,2.8081,2.789,2.7812,2.7735,2.7019,2.675,2.6653,2.5873,2.5601,2.5601,2.5601,2.5601,2.5601,2.5601,2.5601,2.5601,2.5601,2.5601,2.5601,2.5601,2.5601,2.5601,2.5601,2.5601,2.5601,2.5601,0.0,2.5601,2.5601,0.0,2.5601,2.5601,0.0,0.0,2.5601,2.5601,2.5601,2.5601,2.5601,2.5601,2.5601,2.5601,2.5601,2.5601,2.5601,2.5601,2.5601,2.5601,2.6297,2.789,2.8045,2.8842,3.0499,3.0655,3.0694,3.0694,3.0694,3.1195,3.2163,3.2924,3.3779,3.4672,3.5546,3.6416,3.7294,3.8173,3.9043,3.9893,4.0616,4.0907,4.0907,4.1005,4.151,4.2209,4.232,4.2795,4.3532,2.5191,2.5191,2.5344,2.5816,2.6593,2.7319,2.7771,2.8879,2.9784,3.0147,3.0211,3.0206,3.0234,3.0241,3.026,3.0339,3.035,3.0333,3.0291,3.0304,3.0297,3.0309,3.0333,3.0402,3.0574,3.0614,3.0657,3.0694,3.0694,3.0694,3.0694,3.0694,3.0694,3.0674,3.0321,3.0146,3.0127,2.9758,2.9602,2.9602,2.9602,2.9602,2.9467,2.8107,2.7602,2.754,2.7171,2.7055,2.7055,2.7055,2.7055,2.7055,2.7055,2.6728,2.6339,2.6339,2.6009,2.5601,2.5601,2.5601,2.5601,2.5601,2.5601,2.5601,2.5601,2.5601,2.5601,2.5601,0.0,0.0,0.0,0.0,0.0,0.0,2.5601,2.5601,2.5601,2.5601,2.5601,2.5601,2.5601,2.5601,2.5601,2.5601,2.5601,2.5601,2.5601,2.6336,2.8006,2.81,2.89,3.0635,3.0694,3.0694,3.0694,3.0694,3.139,3.2769,3.3138,3.3992,3.5274,3.562,3.628,3.7159,3.8018,3.8887,3.9757,4.0578,4.0903,4.0903,4.0868,4.1087,4.1446,4.145,4.1634,4.2031,2.5497,2.5535,2.5701,2.6294,2.73,2.8306,2.9127,2.9784,3.0211,3.0211,3.0211,3.0294,3.0552,3.0394,3.0375,3.0683,3.0519,3.0389,3.0386,3.0344,3.0356,3.0402,3.0339,3.0425,3.0665,3.0625,3.0633,3.0694,3.0694,3.0694,3.0694,3.0694,3.0694,3.0694,3.0694,3.0694,3.0694,3.0694,3.0694,3.0694,3.0694,3.0694,3.0538,2.9036,2.8317,2.81,2.81,2.81,2.81,2.81,2.81,2.81,2.81,2.7696,2.7233,2.7233,2.6786,2.6297,2.6297,2.6297,2.6297,2.6297,2.6126,2.5951,2.5951,2.5776,2.5601,2.5601,2.5601,0.0,0.0,0.0,2.5601,2.5601,0.0,2.5601,2.5601,2.5601,2.5601,2.5601,2.5601,2.5504,2.5268,2.5249,2.5132,2.4902,2.5116,2.5987,2.7676,2.7987,2.89,3.0635,3.0694,3.0694,3.0694,3.0694,3.1467,3.2943,3.3196,3.4051,3.5445,3.5698,3.6144,3.6789,3.7664,3.8533,3.9379,4.0194,4.0669,4.0872,4.0818,4.0832,4.0862,4.0862,4.0851,4.0931,2.6217,2.6364,2.6364,2.6402,2.7752,2.9147,3.0032,3.0192,3.0211,3.0211,3.0211,3.0552,3.1456,3.0862,3.0756,3.1671,3.1092,3.0661,3.0595,3.0462,3.0402,3.0402,3.0339,3.0398,3.06,3.06,3.0633,3.0694,3.0694,3.0694,3.0694,3.0694,3.0694,3.0694,3.0694,3.0694,3.0694,3.0694,3.0694,3.0694,3.0694,3.0694,3.0597,2.97,2.8822,2.81,2.81,2.81,2.81,2.81,2.81,2.81,2.81,2.8084,2.8065,2.8065,2.8045,2.8026,2.8026,2.8026,2.8026,2.8026,2.7427,2.6867,2.6867,2.6203,2.5601,2.5601,2.5601,2.5601,2.5601,2.5601,0.0,0.0,2.5601,0.0,0.0,2.5601,2.5601,2.5601,2.5601,2.5268,2.4411,2.4333,2.3986,2.3156,2.385,2.5093,2.6847,2.7676,2.89,3.0635,3.0694,3.0694,3.0694,3.0694,3.1156,3.2046,3.2905,3.374,3.4579,3.543,3.5814,3.5892,3.677,3.7592,3.8399,3.9277,4.0096,4.0807,4.0807,4.0809,4.08,4.08,4.08,4.091,2.709,2.7695,2.8058,2.8058,2.8516,2.9185,3.007,3.0211,3.0414,3.0987,3.1096,3.1463,3.2366,3.2266,3.2259,3.2624,3.1954,3.1474,3.1471,3.0887,3.0525,3.0525,3.0427,3.0462,3.0661,3.0621,3.0633,3.0694,3.0694,3.0694,3.0694,3.0694,3.0694,3.0694,3.0694,3.0694,3.0694,3.0694,3.0694,3.0694,3.0694,3.0694,3.0674,3.0364,3.0088,2.9816,2.9816,2.9816,2.9816,2.9816,2.9816,2.9816,2.9816,2.9428,2.8958,2.8958,2.855,2.81,2.81,2.81,2.81,2.81,2.7909,2.7696,2.7696,2.7463,2.7094,2.6572,2.6459,2.6281,2.5718,0.0,0.0,0.0,0.0,0.0,0.0,2.5601,2.5601,2.5601,2.5601,2.5268,2.4372,2.4294,2.3947,2.3079,2.3811,2.5054,2.6808,2.7657,2.89,3.0635,3.0694,3.0694,3.0694,3.1273,3.1992,3.2866,3.3701,3.4536,3.5367,3.5666,3.5793,3.5851,3.6672,3.7516,3.8355,3.9192,4.0029,4.0792,4.0794,4.0802,4.079,4.0808,4.0808,4.1002,2.7962,2.8535,2.8891,2.8891,2.9166,2.9548,3.0109,3.0475,3.0904,3.1453,3.2135,3.2877,3.3724,3.3635,3.3634,3.3984,3.3024,3.2385,3.2338,3.1525,3.1041,3.1036,3.0622,3.0501,3.069,3.0633,3.0633,3.0694,3.0694,3.0694,3.0694,3.0694,3.0694,3.0694,3.0694,3.0694,3.0694,3.0694,3.0694,3.0694,3.0694,3.0694,3.0694,3.0694,3.0694,3.0694,3.0694,3.0694,3.0694,3.0694,3.0694,3.0694,3.0694,3.0302,2.9855,2.9855,2.9467,2.9016,2.9016,2.9016,2.9016,2.9016,2.8783,2.857,2.857,2.8317,2.7948,2.7427,2.71,2.6731,2.6164,2.5815,0.0,0.0,0.0,0.0,0.0,2.5601,2.5601,2.5601,2.5601,2.5135,2.3947,2.3831,2.3481,2.259,2.3348,2.4727,2.6789,2.7657,2.89,3.0635,3.0694,3.0694,3.0694,3.1564,3.2435,3.3313,3.4109,3.496,3.5801,3.5808,3.5794,3.5805,3.6644,3.7487,3.8324,3.916,4.002,4.0802,4.0803,4.0797,4.0797,4.0796,4.0983,4.1429,2.8822,2.8949,2.8968,2.9025,2.9688,3.0211,3.0242,3.1014,3.1642,3.1719,3.3228,3.4623,3.5481,3.4946,3.4875,3.5693,3.4324,3.3343,3.3175,3.2381,3.1873,3.1806,3.0917,3.0506,3.069,3.0637,3.0637,3.0694,3.0694,3.0694,3.0694,3.0694,3.0694,3.0694,3.0694,3.0713,3.0752,3.0752,3.0752,3.0752,3.0713,3.0694,3.0694,3.0694,3.0694,3.0694,3.0694,3.0694,3.0694,3.0694,3.0694,3.0694,3.0694,3.0694,3.0694,3.0694,3.0694,3.0694,3.0694,3.0694,3.0694,3.0694,3.0088,2.9467,2.9467,2.8822,2.822,2.8162,2.7563,2.7003,2.6925,2.6223,0.0,0.0,0.0,0.0,2.5601,2.5601,2.5601,2.5601,2.5601,2.4921,2.3231,2.3059,2.2707,2.183,2.2571,2.4186,2.677,2.7657,2.89,3.0635,3.0694,3.0713,3.0752,3.1623,3.2493,3.3371,3.4187,3.501,3.5799,3.5799,3.5766,3.5742,3.661,3.7447,3.8272,3.9129,4.0008,4.0797,4.0797,4.0816,4.0855,4.0855,4.1371,4.2183,2.9707,2.9879,3.0051,3.0655,3.0452,3.0395,3.1006,3.1372,3.2039,3.3307,3.3988,3.4937,3.6383,3.6455,3.6496,3.6725,3.5767,3.4878,3.4182,3.2784,3.1965,3.1942,3.1099,3.0642,3.0694,3.068,3.068,3.0694,3.0694,3.0694,3.0694,3.0694,3.0694,3.0694,3.0694,3.1059,3.1677,3.1677,3.1677,3.16,3.0962,3.0694,3.0694,3.0694,3.0694,3.0694,3.0694,3.0694,3.0694,3.0694,3.0694,3.0694,3.0694,3.0694,3.0694,3.0694,3.0694,3.0694,3.0694,3.0694,3.0694,3.0694,3.0538,3.0364,3.0364,3.0185,2.9855,2.9195,2.8903,2.8379,2.7139,2.6711,2.6339,0.0,0.0,0.0,2.5601,2.5601,2.5601,2.5601,2.5601,2.5171,2.4064,2.3967,2.3598,2.2726,2.3462,2.4824,2.6789,2.7657,2.89,3.0635,3.0694,3.1001,3.1658,3.2536,3.3382,3.4205,3.5055,3.5566,3.5732,3.5737,3.5723,3.5756,3.6563,3.7403,3.8263,3.9139,4.001,4.0797,4.0797,4.1164,4.168,4.168,4.2222,4.3092,3.0089,3.0472,3.0987,3.1821,3.1642,3.1531,3.199,3.2422,3.3058,3.4058,3.4955,3.6008,3.732,3.7584,3.7664,3.7664,3.6867,3.6,3.5077,3.3802,3.3083,3.305,3.2268,3.1836,3.1836,3.1836,3.1642,3.1273,3.1273,3.1079,3.0694,3.0694,3.0694,3.0694,3.0694,3.1176,3.2027,3.2415,3.2571,3.2493,3.1623,3.1273,0.0,3.0849,3.0694,3.0694,3.0694,3.0694,3.0694,3.0694,3.0694,3.0694,3.0694,3.0694,3.0694,3.0694,3.0694,3.0694,3.0694,3.0694,3.0694,3.0694,3.0694,3.0694,3.0694,3.0694,3.0558,3.0069,2.9661,2.9117,2.8165,2.7391,2.6614,2.5737,0.0,0.0,2.5659,2.5931,2.6028,2.5659,2.5601,2.5404,2.4918,2.453,2.4103,2.362,2.4375,2.5618,2.733,2.822,2.9292,3.0655,3.1079,3.1506,3.2007,3.3215,3.4043,3.4508,3.5377,3.5766,3.5708,3.5693,3.5702,3.5769,3.6947,3.7748,3.829,3.9559,4.0352,4.0835,4.1184,4.1835,4.2609,4.2995,4.346,4.3943,3.051,3.1083,3.184,3.2718,3.3044,3.3242,3.3371,3.38,3.425,3.46,3.5864,3.7112,3.813,3.8326,3.8406,3.8406,3.7702,3.6822,3.5786,3.495,3.4473,3.442,3.3708,3.3293,3.3293,3.3293,3.2924,3.2163,3.2066,3.16,3.0869,3.0869,3.0869,3.0888,3.0985,3.1525,3.2376,3.3138,3.3468,3.3371,3.2512,3.2163,3.2085,3.1331,3.1043,3.1043,3.1043,3.0888,3.0694,3.0694,3.0694,3.0694,3.0694,3.0694,3.0694,3.0694,3.0694,3.0694,3.0694,3.0694,3.0694,3.0694,3.0694,3.0694,3.0694,3.0694,3.0694,3.0694,3.0108,2.9544,2.9428,2.8126,2.6805,2.6048,2.6553,2.6786,2.6028,2.6572,2.6786,2.6028,2.5834,0.0,2.5776,2.4977,2.453,2.4627,2.5346,2.6492,2.8181,2.8997,2.9797,3.0674,3.1545,3.2046,3.2163,3.3717,3.4544,3.4678,3.5426,3.5766,3.5702,3.5702,3.5711,3.5781,3.7464,3.8193,3.8328,4.0075,4.0797,4.0874,4.168,4.2531,4.3421,4.4284,4.4671,4.4755,3.2126,3.2374,3.2756,3.3624,3.4327,3.5071,3.582,3.4988,3.4799,3.6242,3.6128,3.6532,3.8185,3.8397,3.8406,3.8406,3.827,3.7484,3.5894,3.4979,3.4493,3.4481,3.3717,3.3293,3.3293,3.3293,3.3235,3.3079,3.2357,3.191,3.1774,3.1774,3.1774,3.1794,3.2516,3.3293,3.407,3.4229,3.4288,3.4229,3.339,3.3079,3.306,3.2905,3.2846,3.2846,3.2846,3.1914,3.0694,3.0694,3.0694,3.0694,3.0694,3.0694,3.0694,3.0694,3.0694,3.0694,3.0694,3.0694,3.0694,3.0694,3.0694,3.0694,3.0694,3.0694,3.0694,3.0694,3.0577,3.0243,2.9525,2.857,2.7832,2.7696,2.7793,2.7832,2.7676,2.7793,2.7832,2.7676,2.7077,2.6672,2.6672,2.5873,2.5679,2.6398,2.6595,2.7408,2.9078,2.9331,2.9797,3.0674,3.1545,3.2357,3.3079,3.4015,3.4829,3.548,3.5636,3.5707,3.5695,3.5695,3.569,3.5781,3.7464,3.8193,3.8328,4.0075,4.0797,4.0874,4.168,4.2531,4.3421,4.4284,4.5026,4.5587,3.3203,3.3375,3.3777,3.5076,3.5648,3.6381,3.7729,3.6935,3.6491,3.739,3.721,3.751,3.883,3.8636,3.8406,3.8406,3.7998,3.7178,3.5872,3.541,3.5177,3.5177,3.4808,3.4591,3.4591,3.4591,3.4381,3.3915,3.3507,3.3079,3.2668,3.2668,3.2668,3.271,3.3546,3.4128,3.454,3.4983,3.5177,3.51,3.4264,3.3915,3.3876,3.3468,3.3293,3.3293,3.3293,3.2477,3.137,3.137,3.1079,3.0694,3.0694,3.0694,3.0694,3.0694,3.0694,3.0694,3.0694,3.0694,3.0694,3.0694,3.0694,3.0694,3.0694,3.0694,3.0694,3.0694,3.0694,3.0441,2.9564,2.9055,2.8628,2.8162,2.8473,2.8628,2.8162,2.8492,2.8609,2.8142,2.7767,2.7514,2.7521,2.7146,2.6893,2.6906,2.7702,2.8554,2.9369,2.9836,3.0263,3.0694,3.1942,3.2827,3.3239,3.4495,3.5325,3.5708,3.5693,3.5692,3.5704,3.5704,3.5704,3.5781,3.7464,3.8193,3.8328,4.0075,4.1048,4.1506,4.2357,4.3208,4.4078,4.491,4.5471,4.5807,3.4631,3.4781,3.5209,3.6512,3.6938,3.7563,3.8953,3.873,3.8416,3.8408,3.8264,3.8471,3.9187,3.8743,3.8328,3.8134,3.7508,3.6731,3.5853,3.5795,3.5795,3.5795,3.5795,3.5795,3.5795,3.5795,3.5465,3.4769,3.4598,3.4191,3.3565,3.3565,3.3643,3.3856,3.4497,3.4769,3.4828,3.5503,3.5795,3.5736,3.5041,3.4769,3.4711,3.407,3.3837,3.3837,3.3837,3.3274,3.2512,3.2338,3.1564,3.0694,3.0694,3.0694,3.0694,3.0694,3.0694,3.0694,3.0694,3.0694,3.0694,3.0694,3.0694,3.0694,3.0694,3.0694,3.0694,3.0694,3.0694,3.0499,2.9797,2.968,2.9447,2.8764,2.9233,2.9447,2.8745,2.9233,2.9428,2.8725,2.8482,2.8381,2.8388,2.8381,2.811,2.7479,2.8647,2.9483,2.9673,3.0321,3.069,3.0706,3.2338,3.3203,3.3203,3.486,3.5708,3.5707,3.5702,3.5706,3.5704,3.5704,3.5781,3.6033,3.756,3.8406,3.8856,4.023,4.1274,4.2086,4.2957,4.3827,4.469,4.549,4.5807,4.58,3.7252,3.7306,3.738,3.748,3.8212,3.8838,3.8991,3.967,3.9965,3.9449,3.8633,3.8206,3.8476,3.8441,3.8076,3.7294,3.7159,3.6731,3.5853,3.5795,3.5795,3.5795,3.5795,3.5795,3.5795,3.5795,3.5756,3.5678,3.4886,3.4462,3.4385,3.4385,3.4808,3.5562,3.5639,3.5678,3.5678,3.5775,3.5795,3.5795,3.5717,3.5678,3.5678,3.5581,3.5562,3.5562,3.5562,3.5002,3.4148,3.3429,3.2069,3.0694,3.0694,3.0694,3.0694,3.0694,3.0694,3.0694,3.0694,3.0694,3.0694,3.0694,3.0694,3.0694,3.0694,3.0694,3.0694,3.0694,3.0694,3.0674,3.0597,3.0577,3.0558,3.048,3.0538,3.0558,3.048,3.0538,3.0558,3.048,2.9758,2.9281,2.9283,2.9278,2.9243,2.9167,2.932,2.9751,3.0548,3.0664,3.0703,3.0704,3.233,3.3203,3.3203,3.4861,3.5688,3.5707,3.5701,3.5709,3.5704,3.5704,3.6091,3.6845,3.7787,3.9108,4.0565,4.0739,4.1274,4.2086,4.2957,4.3827,4.469,4.549,4.5807,4.5759,3.7604,3.765,3.7838,3.8242,3.8689,3.9118,3.9488,3.9938,4.0127,3.9882,3.975,3.9476,3.899,3.8583,3.801,3.718,3.6626,3.6164,3.5814,3.5795,3.5795,3.5795,3.5795,3.5795,3.5795,3.5795,3.5795,3.5795,3.5445,3.5274,3.5274,3.5274,3.5465,3.5795,3.5795,3.5795,3.5795,3.5795,3.5795,3.5795,3.5795,3.5795,3.5795,3.5795,3.5795,3.5795,3.5795,3.5236,3.4443,3.4128,3.2885,3.139,3.0869,3.0694,3.0694,3.0694,3.0694,3.0694,3.0694,3.0694,3.0694,3.0694,3.0694,3.0694,3.0694,3.0694,3.0694,3.0694,3.0694,3.0694,3.0694,3.0694,3.0694,3.0694,3.0694,3.0694,3.0694,3.0694,3.0694,3.0694,3.0358,3.0149,3.0172,3.0149,3.0122,3.0114,3.0153,3.0326,3.068,3.0665,3.0894,3.1452,3.2557,3.3416,3.3973,3.5126,3.5701,3.5701,3.569,3.5704,3.5723,3.6207,3.7174,3.8475,3.8818,3.9675,4.0797,4.0797,4.1583,4.2802,4.3169,4.4061,4.5175,4.5502,4.5621,4.559,3.8979,3.9031,3.9166,3.9397,3.9545,3.9679,3.9865,3.9984,4.0027,3.9981,4.0281,4.0089,3.9018,3.8508,3.7792,3.6779,3.6142,3.5806,3.5806,3.5791,3.5795,3.5795,3.5795,3.5795,3.5795,3.5795,3.5795,3.5795,3.5795,3.5795,3.5795,3.5795,3.5795,3.5795,3.5795,3.5795,3.5795,3.5795,3.5795,3.5795,3.5795,3.5795,3.5795,3.5795,3.5795,3.5795,3.5795,3.541,3.4847,3.4598,3.3565,3.2221,3.1351,3.0904,3.0694,3.0694,3.0694,3.0694,3.0694,3.0694,3.0694,3.0694,3.0694,3.0694,3.0694,3.0694,3.0694,3.0694,3.0694,3.0694,3.0694,3.0694,3.0694,3.0694,3.0694,3.0694,3.0694,3.0706,3.0706,3.0694,3.0661,3.0637,3.0669,3.0641,3.061,3.0597,3.0633,3.0669,3.0668,3.0645,3.1033,3.1942,3.271,3.3543,3.4468,3.528,3.5704,3.5704,3.5936,3.6052,3.6091,3.7174,3.834,3.9501,3.9771,4.0236,4.0797,4.0797,4.1796,4.3305,4.3305,4.4191,4.549,4.5481,4.5437,4.5332,4.2165,4.225,4.2051,4.1132,4.1033,4.0809,4.0014,3.99,3.9848,3.9717,3.9878,3.9489,3.8148,3.8009,3.7391,3.5854,3.577,3.5803,3.5803,3.5801,3.5795,3.5795,3.5795,3.5795,3.5795,3.5795,3.5795,3.5795,3.5795,3.5795,3.5795,3.5795,3.5795,3.5795,3.5795,3.5795,3.5795,3.5795,3.5795,3.5795,3.5795,3.5795,3.5795,3.5795,3.5795,3.5795,3.5795,3.5795,3.5639,3.4789,3.3954,3.3138,3.226,3.139,3.0694,3.0694,3.0694,3.0694,3.0694,3.0694,3.0694,3.0694,3.0694,3.0694,3.0694,3.0694,3.0694,3.0694,3.0694,3.0694,3.0694,3.0694,3.0694,3.0694,3.0694,3.0694,3.0694,3.0695,3.0707,3.069,3.0692,3.0669,3.0606,3.0665,3.0665,3.0604,3.06,3.06,3.06,3.0657,3.1068,3.1878,3.2682,3.3514,3.4381,3.525,3.5704,3.5704,3.6516,3.6884,3.6942,3.8688,3.9481,3.9539,4.041,4.0797,4.0797,4.0797,4.1796,4.3305,4.3305,4.4191,4.549,4.5417,4.5275,4.5052,4.2221,4.2313,4.2108,4.1158,4.1052,4.0772,3.9847,3.9724,3.9735,3.9644,3.9684,3.9218,3.7868,3.7843,3.7328,3.5824,3.5723,3.5747,3.5799,3.5756,3.5745,3.5795,3.5801,3.5801,3.5795,3.5795,3.5795,3.5795,3.5795,3.5795,3.5795,3.5795,3.5795,3.5795,3.5795,3.5795,3.5795,3.5795,3.5795,3.5795,3.5795,3.5795,3.5795,3.5795,3.5795,3.5795,3.5795,3.5795,3.5678,3.4789,3.3973,3.3157,3.226,3.1409,3.0694,3.0694,3.0694,3.0694,3.0694,3.0694,3.0694,3.0694,3.0694,3.0694,3.0694,3.0694,3.0694,3.0694,3.0694,3.0694,3.0694,3.0694,3.0694,3.0694,3.0694,3.0706,3.0692,3.0704,3.0677,3.0649,3.0629,3.0617,3.0608,3.0617,3.0628,3.0592,3.06,3.0597,3.0597,3.1142,3.1859,3.2768,3.3568,3.439,3.5276,3.5565,3.5974,3.6516,3.6787,3.7522,3.8688,3.9249,3.981,4.041,4.0681,4.0797,4.0835,4.139,4.228,4.3363,4.3962,4.4606,4.5214,4.5194,4.4988,4.4656,4.3088,4.2894,4.2448,4.1525,4.1247,4.0788,3.9764,3.9644,3.9649,3.9602,3.9589,3.9078,3.7746,3.771,3.7226,3.5811,3.5698,3.5718,3.5752,3.6038,3.6203,3.625,3.626,3.626,3.6254,3.5952,3.5801,3.5801,3.5791,3.5795,3.5795,3.5795,3.5795,3.5795,3.5795,3.5795,3.5795,3.5795,3.5795,3.5795,3.5795,3.5795,3.5795,3.5795,3.5795,3.5795,3.5795,3.5795,3.5717,3.5177,3.4439,3.3604,3.2769,3.1895,3.1118,3.081,3.0694,3.0694,3.0694,3.0694,3.0694,3.0694,3.0694,3.0694,3.0694,3.0694,3.0694,3.0694,3.0694,3.0694,3.0694,3.0694,3.0694,3.0694,3.0694,3.0706,3.0695,3.0677,3.0669,3.063,3.0625,3.0608,3.0608,3.0608,3.0731,3.1023,3.1046,3.12,3.1525,3.1724,3.2382,3.3606,3.4138,3.4825,3.5692,3.5695,3.6091,3.6903,3.756,3.863,3.9984,3.9984,4.0294,4.0797,4.0797,4.0971,4.1293,4.1796,4.2705,4.384,4.4245,4.4697,4.5085,4.4931,4.4669,4.436,4.4501,4.3895,4.3088,4.2155,4.1599,4.0879,3.9758,3.9589,3.9589,3.9589,3.9589,3.9097,3.7841,3.7687,3.7209,3.5971,3.5827,3.5785,3.5785,3.6594,3.7094,3.7099,3.7094,3.7094,3.7099,3.6309,3.5857,3.5799,3.5801,3.5795,3.5795,3.5795,3.5795,3.5795,3.5795,3.5795,3.5795,3.5795,3.5795,3.5795,3.5795,3.5795,3.5795,3.5795,3.5795,3.5795,3.5795,3.5795,3.5795,3.5736,3.5177,3.4365,3.3546,3.2749,3.191,3.0962,3.0694,3.0694,3.0694,3.0694,3.0694,3.0694,3.0752,3.0791,3.0791,3.0791,3.0791,3.0791,3.0733,3.0694,3.0694,3.0694,3.0694,3.0694,3.0694,3.0694,3.069,3.0653,3.0641,3.0761,3.0727,3.0718,3.0776,3.0776,3.1084,3.1835,3.1889,3.2275,3.3146,3.2474,3.2788,3.4355,3.4452,3.4916,3.5762,3.5781,3.6226,3.7096,3.8785,4.0023,4.0797,4.0797,4.0835,4.0874,4.0874,4.1332,4.2086,4.2164,4.3124,4.4573,4.4295,4.4556,4.5041,4.4631,4.4369,4.4169,4.4501,4.4349,4.3743,4.2262,4.1893,4.1318,3.9827,3.9589,3.9589,3.9589,3.9589,3.9335,3.867,3.8602,3.8328,3.7666,3.7005,3.6629,3.669,3.7453,3.7948,3.7991,3.7931,3.795,3.7996,3.7143,3.6392,3.5713,3.5778,3.5806,3.5808,3.5806,3.5795,3.5795,3.5795,3.5795,3.5795,3.5795,3.5795,3.5795,3.5795,3.5795,3.5795,3.5795,3.5795,3.5795,3.5795,3.5795,3.5698,3.5022,3.4672,3.4365,3.3546,3.3157,3.2691,3.116,3.0694,3.0694,3.0694,3.0694,3.0694,3.0694,3.1195,3.1697,3.1697,3.1697,3.1697,3.1697,3.1156,3.0694,3.0694,3.0694,3.0694,3.0694,3.0694,3.0706,3.0692,3.07,3.0902,3.1538,3.1609,3.1844,3.2526,3.2542,3.2595,3.2778,3.2798,3.3165,3.404,3.3915,3.3993,3.4394,3.5051,3.5781,3.6613,3.6613,3.7386,3.8901,3.9984,4.0603,4.0797,4.0797,4.1145,4.1719,4.1719,4.2202,4.3034,4.3711,4.4193,4.4556,4.494,4.5033,4.4908,4.4612,4.4308,4.4036,4.4496,4.388,4.3079,4.2168,4.1392,4.061,3.9721,3.9589,3.9589,3.9589,3.9589,3.941,3.8947,3.8907,3.872,3.8246,3.7767,3.7508,3.7539,3.8321,3.8816,3.885,3.8814,3.8814,3.885,3.7984,3.7142,3.6285,3.6333,3.6168,3.5803,3.5793,3.5806,3.5795,3.5795,3.5795,3.5795,3.5795,3.5795,3.5795,3.5795,3.5795,3.5795,3.5795,3.5795,3.5795,3.5795,3.5795,3.5736,3.5255,3.51,3.4944,3.4109,3.3856,3.3584,3.2264,3.1603,3.1292,3.1292,3.1001,3.081,3.1195,3.1953,3.259,3.259,3.259,3.259,3.259,3.1895,3.1292,3.1292,3.0962,3.0694,3.0694,3.0694,3.071,3.0695,3.103,3.1402,3.1844,3.2221,3.2629,3.3113,3.3118,3.3277,3.3654,3.3692,3.4079,3.4955,3.5336,3.5375,3.5013,3.58,3.6458,3.6903,3.7696,3.8553,3.9501,4.0758,4.1351,4.1351,4.1757,4.2183,4.2589,4.2589,4.3092,4.3924,4.44,4.4805,4.5094,4.516,4.505,4.4849,4.443,4.4166,4.4005,4.4505,4.2951,4.1636,4.1642,4.0497,3.9589,3.9589,3.9589,3.9589,3.9589,3.9638,3.9524,3.9147,3.9116,3.8983,3.862,3.858,3.8547,3.8411,3.921,3.9694,3.9694,3.9694,3.9694,3.9694,3.8847,3.8003,3.7196,3.7206,3.6794,3.5997,3.5997,3.5933,3.5795,3.5795,3.5795,3.5795,3.5795,3.5795,3.5795,3.5795,3.5795,3.5795,3.5795,3.5795,3.5795,3.5795,3.5795,3.5795,3.5795,3.5795,3.5678,3.4925,3.4692,3.4556,3.3876,3.306,3.2357,3.2221,3.1661,3.1273,3.2007,3.2846,3.3487,3.3487,3.3487,3.3487,3.3487,3.2807,3.2163,3.2027,3.1409,3.0849,3.0713,3.069,3.0706,3.0706,3.1394,3.1956,3.2085,3.2802,3.336,3.3476,3.349,3.379,3.4549,3.4607,3.4974,3.5839,3.6535,3.6651,3.6091,3.6748,3.7154,3.729,3.8901,3.9694,3.9713,4.1255,4.2009,4.2028,4.2899,4.3363,4.3498,4.3492,4.3975,4.4768,4.478,4.5131,4.5665,4.5125,4.487,4.4751,4.4192,4.4005,4.4005,4.4506,4.2061,3.9975,3.9959,3.9777,3.9589,3.9589,3.9589,3.9589,3.9589,3.9789,3.9951,3.9986,4.0155,4.0296,4.0391,4.041,4.0081,3.9346,4.012,4.0603,4.0603,4.0603,4.0603,4.0603,3.9799,3.8955,3.8093,3.8156,3.7743,3.6895,3.6893,3.6513,3.5795,3.5795,3.5795,3.5795,3.5795,3.5795,3.5795,3.5795,3.5795,3.5795,3.5795,3.5795,3.5795,3.5795,3.5795,3.5795,3.5795,3.5795,3.5775,3.5639,3.56,3.5562,3.5445,3.4789,3.3954,3.3274,3.3002,3.2924,3.306,3.3701,3.4307,3.4307,3.4307,3.4307,3.4307,3.3662,3.2866,3.2143,3.1891,3.1564,3.083,3.0699,3.0704,3.0704,3.1382,3.2161,3.2917,3.3703,3.4483,3.5223,3.53,3.5342,3.5496,3.5496,3.5839,3.6671,3.6826,3.7174,3.7787,3.7922,3.8353,3.9094,4.01,4.0603,4.0603,4.1545,4.2009,4.2028,4.2899,4.3711,4.44,4.4346,4.4805,4.5606,4.5561,4.5481,4.5352,4.5025,4.4739,4.4425,4.4121,4.4005,4.4005,4.4503,4.1854,3.9608,3.9596,3.9589,3.9589,3.9589,3.9589,3.9589,3.9589,3.9892,4.0129,4.0196,4.0372,4.0583,4.0784,4.0797,4.0623,4.0236,4.0584,4.0797,4.0797,4.0797,4.0797,4.0797,4.0446,3.981,3.8944,3.9005,3.8603,3.7749,3.7738,3.7305,3.6498,3.6498,3.6241,3.5795,3.5795,3.5795,3.5795,3.5795,3.5795,3.5795,3.5795,3.5795,3.5795,3.5795,3.5795,3.5795,3.5795,3.5795,3.5795,3.5795,3.5795,3.5795,3.5795,3.5177,3.4326,3.3526,3.3623,3.3954,3.3954,3.4575,3.5197,3.5197,3.5197,3.5197,3.5197,3.4536,3.3818,3.3429,3.2982,3.2574,3.2166,3.2101,3.2093,3.2093,3.2796,3.3458,3.3843,3.4614,3.5252,3.5667,3.5695,3.5878,3.6303,3.6342,3.6709,3.7555,3.8044,3.847,3.8895,3.8895,3.9327,4.0197,4.1029,4.1448,4.1448,4.2763,4.3401,4.344,4.4272,4.4865,4.5249,4.5208,4.5413,4.5742,4.5704,4.5545,4.5274,4.5,4.4701,4.4374,4.4091,4.4005,4.4005,4.3514,4.1323,3.9589,3.9589,3.9589,3.9589,3.9589,3.9589,3.9589,3.9589,3.9937,4.0205,4.0205,4.0433,4.0639,4.0784,4.0797,4.0797,4.0797,4.0797,4.0797,4.0797,4.0797,4.0797,4.0803,4.0794,4.0483,3.9835,3.9887,3.9466,3.8631,3.8631,3.8194,3.7392,3.7392,3.6925,3.6105,3.6105,3.5989,3.5795,3.5795,3.5795,3.5795,3.5795,3.5795,3.5795,3.5795,3.5795,3.5795,3.5795,3.5795,3.5795,3.5795,3.5795,3.5795,3.5795,3.5333,3.4672,3.4051,3.4323,3.4808,3.4808,3.5313,3.5795,3.5795,3.5795,3.5795,3.5795,3.5274,3.473,3.454,3.3992,3.3526,3.3332,3.3289,3.3285,3.3285,3.3964,3.4481,3.4478,3.5364,3.5977,3.598,3.6168,3.6535,3.7154,3.7193,3.758,3.847,3.9133,3.9675,4.0062,3.9907,4.0216,4.1067,4.168,4.2106,4.2318,4.3866,4.4594,4.4599,4.5418,4.5791,4.5773,4.5785,4.575,4.5708,4.5684,4.5538,4.5263,4.4996,4.4688,4.4374,4.4091,4.4005,4.4005,4.0566,3.9777,3.9589,3.9589,3.9589,3.9589,3.9589,3.9589,3.9589,3.9589,3.9937,4.0205,4.0205,4.0554,4.0784,4.0797,4.0797,4.0797,4.0797,4.0797,4.0797,4.0797,4.0797,4.0809,4.0794,4.0809,4.0798,4.08,4.0791,4.0398,3.9601,3.9601,3.914,3.8309,3.8309,3.7819,3.7003,3.7003,3.6537,3.5795,3.5795,3.5795,3.5795,3.5795,3.5795,3.5795,3.5795,3.5795,3.5795,3.5795,3.5795,3.5795,3.5795,3.5795,3.5795,3.5795,3.5756,3.5698,3.562,3.5659,3.5698,3.5698,3.5756,3.5795,3.5795,3.5795,3.5795,3.5795,3.5756,3.5465,3.4653,3.4443,3.4171,3.3429,3.3258,3.3203,3.3203,3.3905,3.442,3.4415,3.5822,3.6806,3.6806,3.7535,3.8038,3.8096,3.8096,3.8489,3.9365,3.9462,4.0216,4.1777,4.1087,4.1087,4.1893,4.197,4.2415,4.3227,4.4149,4.458,4.4544,4.5402,4.5765,4.5708,4.5706,4.5695,4.57,4.5637,4.5495,4.5282,4.495,4.4637,4.4374,4.4091,4.4005,4.4005,3.9852,3.9589,3.9589,3.9589,3.9589,3.9589,3.9589,3.9589,3.9589,3.9589,3.972,3.9948,4.0286,4.0489,4.066,4.079,4.0797,4.0797,4.0797,4.0797,4.0797,4.0797,4.0797,4.0803,4.079,4.0804,4.0812,4.0842,4.0888,4.0733,4.0441,4.0441,3.9994,3.9217,3.9217,3.8712,3.792,3.792,3.7392,3.6615,3.6615,3.628,3.5795,3.5795,3.5795,3.5795,3.5795,3.5795,3.5795,3.5795,3.5795,3.5795,3.5795,3.5795,3.5795,3.5795,3.5795,3.5795,3.5795,3.5795,3.5795,3.5795,3.5795,3.5795,3.5795,3.5795,3.5795,3.5795,3.5795,3.5698,3.5371,3.5313,3.5216,3.4901,3.4827,3.4809,3.4809,3.5519,3.6013,3.6017,3.7008,3.7713,3.7715,3.7999,3.8431,3.8972,3.9011,3.9385,4.0255,4.0777,4.1332,4.197,4.2222,4.2492,4.2802,4.3343,4.3788,4.411,4.4947,4.5332,4.5317,4.5603,4.5727,4.5706,4.5709,4.5673,4.561,4.5438,4.5211,4.4954,4.4663,4.4388,4.4136,4.4033,4.4005,4.4005,4.0253,4.0347,4.0347,4.0347,3.9946,3.9589,3.9589,3.9589,3.9589,3.9589,3.9589,3.9731,4.011,4.0425,4.0653,4.0784,4.0797,4.0797,4.0797,4.0797,4.0797,4.0797,4.0797,4.0797,4.0797,4.0806,4.0796,4.0807,4.0873,4.0898,4.0907,4.0907,4.0616,4.0072,4.0072,3.9606,3.881,3.881,3.8305,3.7508,3.7508,3.6984,3.6203,3.6203,3.6047,3.5795,3.5795,3.5795,3.5795,3.5795,3.5795,3.5795,3.5795,3.5795,3.5795,3.5795,3.5795,3.5795,3.5795,3.5795,3.5795,3.5795,3.5795,3.5795,3.5795,3.5795,3.5795,3.5795,3.5795,3.5795,3.5795,3.5795,3.5795,3.5806,3.6002,3.6182,3.6178,3.6871,3.7389,3.7387,3.8117,3.8603,3.8605,3.8856,3.9262,3.9868,3.9907,4.0274,4.1126,4.1951,4.2531,4.2802,4.3401,4.3827,4.4078,4.4427,4.4729,4.4986,4.5544,4.5792,4.577,4.5719,4.5679,4.5676,4.5676,4.564,4.5577,4.5312,4.5085,4.4884,4.4533,4.4275,4.4106,4.4017,4.4005,4.4005,4.1685,4.2004,4.2023,4.2023,4.0703,3.9627,3.9589,3.9589,3.9589,3.9589,3.9589,3.9589,3.9602,4.0321,4.079,4.0797,4.0797,4.0797,4.0797,4.0797,4.0797,4.0797,4.0797,4.0797,4.0797,4.0802,4.0792,4.0807,4.0872,4.0898,4.0907,4.0907,4.0907,4.0907,4.0907,4.0461,3.9699,3.9699,3.9217,3.8406,3.8406,3.7901,3.712,3.71,3.6556,3.5814,3.5795,3.5795,3.5795,3.5795,3.5795,3.5795,3.5795,3.5795,3.5795,3.5795,3.5795,3.5795,3.5814,3.5814,3.5814,3.5795,3.5795,3.5795,3.5795,3.5795,3.5795,3.5795,3.5795,3.5795,3.5814,3.5814,3.5806,3.5823,3.6497,3.7007,3.7002,3.7693,3.8214,3.8214,3.8971,3.9501,3.9501,4.0294,4.0816,4.0816,4.0816,4.1164,4.197,4.2841,4.3711,4.4574,4.4613,4.4987,4.5787,4.5007,4.5005,4.5807,4.5807,4.5762,4.5701,4.5701,4.5657,4.5594,4.5594,4.5594,4.5577,4.5312,4.5201,4.5129,4.4612,4.4402,4.4355,4.4109,4.4005,4.4005,4.1911,4.2943,4.375,4.375,4.3356,4.2262,3.9946,3.9589,3.9589,3.9589,3.9589,3.9804,4.0372,4.0397,4.0489,4.0778,4.0797,4.0797,4.0797,4.0797,4.0797,4.0797,4.0797,4.0797,4.0797,4.0802,4.08,4.0792,4.0862,4.0907,4.0898,4.0898,4.0907,4.0907,4.0907,4.0771,4.0538,4.0538,4.0072,3.9315,3.9315,3.879,3.7959,3.7333,3.6945,3.6634,3.6028,3.5795,3.5795,3.5795,3.5795,3.5795,3.5795,3.5795,3.5795,3.5795,3.5795,3.5931,3.6556,3.6712,3.6576,3.595,3.5795,3.5795,3.5795,3.5795,3.5795,3.5795,3.5795,3.5989,3.6595,3.6675,3.6832,3.7448,3.7724,3.7829,3.7843,3.8576,3.9106,3.9106,3.9874,4.041,4.041,4.1158,4.1641,4.1641,4.2202,4.2667,4.2899,4.375,4.4323,4.4594,4.5142,4.5548,4.5807,4.5548,4.5554,4.5807,4.5758,4.5719,4.5701,4.5648,4.5622,4.5594,4.5594,4.5495,4.5302,4.503,4.4812,4.4612,4.4265,4.4121,4.4106,4.4017,4.4005,4.4005,4.2436,4.3332,4.4139,4.4444,4.4501,4.3825,4.183,4.0434,3.9589,3.9589,3.9589,3.9914,4.0713,4.0583,4.0546,4.0784,4.0797,4.0797,4.0797,4.0797,4.0797,4.0797,4.0797,4.0797,4.0797,4.079,4.0808,4.0794,4.0834,4.0862,4.0902,4.0903,4.0898,4.0907,4.0907,4.0907,4.0907,4.0907,4.0616,4.0169,4.0169,3.9664,3.8868,3.8324,3.7916,3.7547,3.7023,3.6615,3.63,3.63,3.6086,3.5795,3.5795,3.5795,3.5795,3.5795,3.6047,3.644,3.6964,3.7353,3.7489,3.6964,3.6828,3.6828,3.6828,3.6828,3.6824,3.6792,3.6792,3.6943,3.7482,3.7541,3.7681,3.8175,3.8512,3.8717,3.8706,3.9449,4.0139,4.0448,4.0951,4.1409,4.1757,4.2222,4.2512,4.2512,4.3324,4.3808,4.3808,4.462,4.5065,4.5065,4.5554,4.5805,4.5805,4.5764,4.5769,4.5765,4.5719,4.5698,4.5657,4.5622,4.5594,4.5594,4.5594,4.5504,4.5332,4.4943,4.4701,4.4519,4.4151,4.4005,4.4005,4.4005,4.4005,4.4005,4.3238,4.3407,4.3632,4.4369,4.4501,4.4501,4.4501,4.1961,3.9927,3.9646,3.9589,3.9914,4.0713,4.0797,4.0797,4.0797,4.0797,4.0797,4.0797,4.0797,4.0797,4.0797,4.0797,4.0797,4.0797,4.0797,4.0809,4.0794,4.0794,4.0823,4.0897,4.0902,4.0898,4.0883,4.0907,4.0907,4.0903,4.0907,4.0907,4.0907,4.0907,4.0461,3.9796,3.9737,3.9217,3.8503,3.8425,3.7901,3.7217,3.7217,3.6692,3.6028,3.5931,3.5911,3.5911,3.5911,3.6479,3.7139,3.7294,3.7916,3.8538,3.8596,3.8615,3.8576,3.8425,3.8402,3.8373,3.8307,3.8302,3.835,3.8505,3.8519,3.8523,3.8548,3.9207,3.9704,3.9623,4.0352,4.1184,4.1912,4.2067,4.2434,4.3227,4.3363,4.346,4.3518,4.4272,4.471,4.471,4.5394,4.5807,4.58,4.5803,4.5807,4.5781,4.5723,4.57,4.57,4.5698,4.5657,4.5594,4.5594,4.5594,4.5594,4.5577,4.5559,4.5495,4.4985,4.4751,4.4676,4.4196,4.4005,4.4005,4.4005,4.4005,4.4005,4.4083,4.4252,4.4275,4.4463,4.4501,4.4501,4.4501,4.3914,4.2506,3.9946,3.9589,3.9914,4.0713,4.0797,4.0797,4.0797,4.0797,4.0797,4.0797,4.0797,4.0797,4.0797,4.0797,4.0797,4.0797,4.0797,4.0797,4.0803,4.0808,4.0806,4.0818,4.0881,4.0877,4.0828,4.0869,4.0893,4.0893,4.0898,4.0907,4.0907,4.0907,4.0791,4.0577,3.9932,3.9582,3.9334,3.8659,3.8289,3.8115,3.8115,3.7998,3.7722,3.7023,3.6828,3.6828,3.6828,3.6945,3.7392,3.8771,3.9243,3.95,4.0194,4.0315,3.9946,3.8689,3.8369,3.8311,3.8302,3.8307,3.8699,4.0026,4.0261,4.0477,4.1143,4.1376,4.1248,4.0603,4.1216,4.1796,4.197,4.2609,4.3092,4.3285,4.3924,4.4581,4.52,4.5432,4.5529,4.5529,4.571,4.5793,4.5803,4.5788,4.5773,4.5723,4.5714,4.5698,4.5698,4.5701,4.5657,4.5594,4.5594,4.5594,4.5586,4.539,4.5169,4.4962,4.4624,4.436,4.4166,4.4048,4.4005,4.4005,4.4005,4.4005,4.4005,4.4407,4.4501,4.4501,4.4501,4.4501,4.4501,4.4501,4.4501,4.3881,4.2149,4.0566,3.9754,4.0186,4.0569,4.0797,4.0797,4.0797,4.0797,4.0797,4.0797,4.0797,4.0797,4.0797,4.0797,4.0797,4.0797,4.0797,4.0797,4.0809,4.0802,4.0794,4.0848,4.0826,4.0807,4.0839,4.0868,4.0902,4.0868,4.0878,4.0908,4.0908,4.0908,4.0849,4.0437,4.0266,4.0208,3.9761,3.9353,3.8965,3.8542,3.8406,3.8328,3.7858,3.7722,3.7722,3.7722,3.8013,3.8538,3.9446,3.9956,4.0325,4.0786,4.0848,4.0585,3.9738,3.9519,3.9485,3.9489,3.9821,4.0372,4.1226,4.1711,4.215,4.2589,4.2634,4.2473,4.2048,4.2357,4.2763,4.3189,4.3634,4.4078,4.4465,4.4891,4.5355,4.5768,4.5807,4.5807,4.5807,4.5807,4.5805,4.5807,4.5765,4.5735,4.5695,4.5673,4.5648,4.5648,4.5648,4.564,4.5594,4.5594,4.5594,4.5586,4.5448,4.5232,4.4973,4.4701,4.4443,4.4181,4.4048,4.4005,4.4005,4.4005,4.4005,4.4005,4.4501,4.4501,4.4501,4.4501,4.4501,4.4501,4.4501,4.4501,4.4501,4.4501,4.213,4.0271,3.9845,4.0389,4.0797,4.0797,4.0797,4.0797,4.0797,4.0797,4.0797,4.0797,4.0797,4.0797,4.0797,4.0797,4.0797,4.0797,4.0797,4.0809,4.0808,4.0794,4.0812,4.0796,4.0801,4.0837,4.0886,4.0812,4.0837,4.0877,4.0877,4.0897,4.0907,4.0893,4.0903,4.0907,4.0907,4.048,3.98,3.9062,3.8833,3.8795,3.8678,3.862,3.862,3.862,3.9135,3.9713,3.9869,4.0388,4.0886,4.0886,4.0832,4.0796,4.0796,4.0796,4.079,4.08,4.1485,4.2112,4.2209,4.2937,4.3518,4.3518,4.3518,4.3479,4.3324,4.344,4.3788,4.4516,4.471,4.5065,4.5749,4.5807,4.5807,4.5807,4.5807,4.58,4.5793,4.5793,4.5798,4.5785,4.5735,4.5695,4.5693,4.5631,4.5594,4.5594,4.5559,4.5559,4.5594,4.5559,4.5522,4.5522,4.5438,4.5263,4.5052,4.4776,4.4519,4.4303,4.4094,4.4005,4.4005,4.4005,4.3989,4.3974,4.4501,4.4501,4.4501,4.4501,4.4501,4.4501,4.4501,4.4501,4.4501,4.4501,4.4106,4.3023,4.0869,4.0733,4.0797,4.0797,4.0797,4.0797,4.0797,4.0797,4.0797,4.0797,4.0797,4.0797,4.0797,4.0797,4.0797,4.0797,4.0797,4.0797,4.0803,4.0808,4.0808,4.079,4.0804,4.0815,4.0812,4.0796,4.0812,4.0812,4.0812,4.0848,4.0902,4.0907,4.0903,4.0907,4.0907,4.083,4.0713,4.0597,4.0558,4.0441,3.9742,3.9528,3.9528,3.9528,3.9573,3.9787,4.0519,4.0773,4.0806,4.0806,4.0808,4.0809,4.0809,4.0808,4.08,4.08,4.1454,4.2247,4.2995,4.3846,4.442,4.442,4.442,4.4149,4.3421,4.3962,4.4458,4.4594,4.52,4.5691,4.5787,4.5807,4.5807,4.5807,4.5807,4.5793,4.5795,4.5795,4.5758,4.5717,4.569,4.5665,4.5603,4.5594,4.5594,4.5594,4.5362,4.539,4.5586,4.5352,4.5253,4.5232,4.4757,4.4546,4.4493,4.4221,4.4094,4.4048,4.4002,4.4005,4.4005,4.4005,4.3958,4.3913,4.4501,4.4501,4.4501,4.4501,4.4501,4.4501,4.4501,4.4501,4.4501,4.4501,4.4501,4.4075,4.3001,4.1631,4.0797,4.0797,4.0797,4.0797,4.0797,4.0797,4.0797,4.0797,4.0797,4.0797,4.0797,4.0797,4.0797,4.0797,4.0797,4.0797,4.0797,4.0809,4.0809,4.0797,4.0808,4.08,4.0794,4.08,4.0806,4.0804,4.0801,4.0821,4.0859,4.0892,4.0893,4.0903,4.0903,4.0907,4.0907,4.0907,4.0907,4.0849,4.048,4.0369,4.0359,4.0378,4.0315,4.0363,4.0786,4.084,4.0794,4.0794,4.0796,4.0913,4.1371,4.148,4.1331,4.0892,4.1828,4.2841,4.3227,4.4388,4.5278,4.5278,4.5278,4.5142,4.4755,4.5026,4.5278,4.5278,4.5568,4.5807,4.5807,4.5807,4.5807,4.5807,4.5807,4.5805,4.5807,4.5807,4.577,4.5701,4.5701,4.5676,4.5594,4.5594,4.5522,4.5381,4.5253,4.5253,4.5381,4.5096,4.4985,4.4954,4.4726,4.4533,4.4402,4.426,4.4136,4.4005,4.4005,4.3974,4.3926,4.3926,4.3897,4.3835]}]]